GFSGL_prec_radar_000.txt.gz
Reflectivity
-20 -20 -20 -20 -20 -20 -20 -20 -20 -20 1 12 15 -11 -10 2 4 -1 -19 -20 -20 -20 -20 -20 -20 -20 -20 -20 -20 -20 -20 -20 -20 -20 -20 -20 -15 3 3 3 -13 -20 -20
-20 -20 -20 -20 -20 -20 -20 -20 -20 -20 -20 -20 -20 -20 -20 -20 -20 -20 -20 -20 -20 -20 -20 -20 -20 -20 -20 -20 -20 -20 -20 -20 -20 -20 -20 -20 -20 -20 -13 5 -8 -2 -20
-20 -20 -20 -20 -20 -20 -20 -20 -20 -20 -20 -20 -20 -20 -20 -20 -20 -20 -20 -20 -20 -20 -20 -20 -20 -20 -20 -20 -20 -20 -20 -20 -20 -20 -20 -20 -20 -20 -20 -20 -6 -17 -3
-20 -20 -20 -20 -20 -20 -20 -20 -20 -20 -20 -20 -20 -20 -20 -20 -20 -20 -20 -20 -20 -20 -20 -20 -20 -20 -20 -20 -20 -20 -20 -20 -20 -20 -20 -20 -20 -20 -20 -20 -20 -20 -20
-20 -20 -20 -20 -20 -20 -20 -20 -13 3 -16 -20 -20 -20 -20 -20 -20 -20 -20 -20 -20 -20 -20 -20 -20 -20 -20 -20 -20 -20 -20 -20 -20 -20 -20 -20 -20 -20 -20 -20 -20 -20 -20
-17 5 -6 -7 -5 1 21 25 7 7 1 -7 -20 -20 -20 -20 -20 -20 -20 -20 -20 -20 -20 -20 -20 -20 -20 -20 -20 -20 -20 -20 -20 -20 -20 -20 -20 -20 -20 -20 -2 -20 -4
-10 23 29 28 28 10 -1 -9 -20 -20 -20 -20 -20 -20 -20 -20 -20 -20 -20 -20 -20 -20 -20 -20 -20 -20 -20 -20 -20 -20 -20 -20 -20 -20 3 -20 -20 -7 -20 -13 4 8 -20
-20 -20 -20 -20 -20 -20 -20 -20 -20 -20 -20 -20 -20 -20 -20 -20 -20 -20 -20 -20 -20 -20 -20 -20 -20 -20 -20 -20 -20 -20 -20 -20 -20 -20 -20 -20 -15 -19 -20 -20 -20 -20 -20
-20 -20 -20 -20 -9 -10 -19 -20 -20 -20 -20 -20 -20 -20 -20 -20 -20 -20 -20 -20 -20 -20 -20 -20 -0 3 4 8 8 6 -5 -20 -20 -20 -20 -15 -6 6 -0 -1 -5 -20 -19
-20 -19 -20 -20 -20 -20 -20 -20 -20 -20 -20 -20 -20 -20 -20 -20 -20 -20 -20 -4 -20 -20 -20 -20 -20 -20 -20 -18 9 8 7 -20 -19 -20 -20 -14 0 -11 6 12 4 3 -16
-7 -20 -20 -20 -20 -20 -20 -20 -20 -20 -20 -20 -20 -20 -20 -20 -20 -20 -6 -14 -20 -19 -20 -20 -20 -20 2 5 6 -1 1 -17 -12 5 -16 -13 -20 -20 -20 -14 8 4 0
-20 -20 -20 -20 -20 -20 -20 -20 -20 -20 -20 -20 -20 -20 -20 -20 -20 -20 -17 -20 -20 1 -18 -20 -20 4 10 6 -2 -18 -20 -3 4 -1 -20 -20 -12 -20 -20 -20 -20 -2 -7
-20 -20 -20 -20 -20 -20 -20 -20 -20 -20 -20 -20 -20 -20 -20 -20 -20 -20 -20 -20 -19 -2 -3 7 -10 -19 -20 -19 -20 -20 -19 -19 -20 -20 -20 -19 -14 -20 -20 -20 -20 -20 -20
-20 -20 -20 -20 -20 -20 -20 -20 -20 -20 -20 -20 -20 -20 -20 -20 -20 -20 -18 -17 -20 -15 -20 -20 -20 -20 -20 -20 -20 -20 -20 -14 -9 -10 -19 -20 -19 -20 6 0 -20 -20 -20
-20 -20 -20 -20 -20 -20 -20 -20 -20 -20 -20 -20 -20 -2 -20 -20 -20 12 1 4 8 -20 -19 -20 -20 -20 -20 -20 -20 -20 -18 -20 -19 -20 -9 -20 -20 -20 -18 -15 -17 -4 2
-20 -20 -20 -20 -20 -20 -20 -20 -20 -20 -20 -20 4 -7 -20 1 13 3 4 7 -4 -16 -20 -20 -20 -20 -20 -20 -20 -20 -20 -20 -20 -20 -20 -20 -20 -20 -20 -20 -20 -6 -18
-20 -20 -20 -20 -20 -20 -20 -20 -20 -20 -20 -20 -9 -3 -0 9 5 3 -1 -7 -20 -20 -20 -20 -20 -20 -20 -20 -20 -20 -20 -20 -18 -20 1 -19 -18 -15 9 -15 -8 10 9
-20 -20 -20 -20 -20 -20 -20 -20 -20 -20 -20 -20 -20 -8 -7 4 2 -0 -16 -20 -1 -8 -20 -20 -20 -20 -20 -20 -20 -20 -20 -20 -20 -20 -18 -20 -20 -20 -18 -5 -17 -20 -5
-20 -20 -20 -20 -20 -20 -20 -20 -20 -20 -20 -20 -20 -20 -20 -6 -3 -9 -19 -20 -14 -20 -20 -20 -20 -20 -20 -20 -20 -20 -20 -20 -20 -20 -20 -19 -19 -20 -20 -20 -20 -19 -20
-20 -20 -20 -20 -20 -20 -20 -20 -20 -20 -20 -20 -20 -20 -20 -20 -20 -20 -20 -20 -20 -20 -20 -20 -20 -20 -20 -20 -20 -20 -20 -20 -20 -20 -20 -20 -20 -20 -20 -20 -20 -20 -20
-20 -20 -20 -20 -20 -20 -20 -20 -20 -20 -20 -20 -20 -20 -20 -20 -20 -20 -20 -20 -20 -20 -20 -20 -20 -20 -20 -20 -20 -20 -20 -20 -20 -20 -20 -20 -20 -20 -20 -20 -20 -20 -20
-20 -20 -20 -20 -20 -20 -20 -20 -20 -20 -20 -20 -20 -20 -20 -20 -20 -20 -20 -20 -20 -20 -20 -20 -20 -20 -20 -20 -20 -20 -20 -20 -20 -20 -20 -20 -20 -20 -20 -20 -20 -20 -20
-20 -20 -20 -20 -20 -20 -20 -20 -20 -20 -20 -20 -20 -20 -20 -20 -20 -20 -20 -20 -20 -20 -20 -20 -20 -20 -20 -20 -20 -20 -20 -20 -20 -20 -20 -20 -20 -20 -20 -20 -20 -20 -20
-20 -20 -20 -20 -20 -20 -20 -20 -20 -20 -20 -20 -20 -20 -20 -20 -20 -20 -20 -20 -20 -20 -20 -20 -20 -20 -20 -20 -20 -20 -20 -20 -20 -20 -20 -20 -20 -20 -20 -20 -20 -20 -20
-20 -20 -20 -20 -20 -20 -20 -20 -20 -20 -20 -20 -20 -20 -20 -20 -20 -20 -20 -20 -20 -20 -20 -20 -20 -20 -20 -20 -20 -20 -20 -20 -20 -20 -20 -20 -20 -20 -20 -20 -20 -20 -20
-20 -20 -20 -20 -20 -20 -20 -20 -20 -20 -20 -20 -20 -20 -20 -20 -20 -20 -20 -20 -20 -20 -20 -20 -20 -20 -20 -20 -20 -20 -20 -20 -20 -20 -20 -20 -20 -20 -20 -20 -20 -20 -20

GFSGL_prec_radar_003.txt.gz
Reflectivity
-20 -20 -20 -20 -20 -20 -20 -20 -20 -20 -20 -16 -20 -14 18 -6 -14 -15 -10 1 3 -8 -20 -20 -20 -20 -20 -20 -20 -20 -20 -20 -20 -20 -20 -20 -20 -20 -20 -20 -20 3 -13
-20 -20 -20 -20 -20 -20 -20 -20 -20 -1 2 9 -15 -20 -20 -20 -20 -20 -20 -20 -20 -20 -20 -20 -20 -20 -20 -20 -20 -20 -20 -20 -20 -20 -20 -20 -20 -20 -20 -20 -20 -20 1
-20 -20 -20 -20 -20 -20 -20 -20 -19 -20 -5 5 -5 -19 -20 -20 -20 -20 -20 -20 -20 -20 -20 -20 -20 -20 -20 -20 -20 -20 -20 -20 -20 -20 -20 -20 -20 -20 -20 -20 -20 -20 -20
-20 -20 -20 -20 -20 -20 -20 -19 -20 -1 3 -8 -5 -20 -20 -20 -20 -20 -20 -20 -20 -20 -20 -20 -20 -20 -20 -20 -20 -20 -20 -20 -20 -20 -20 -20 -20 -20 -20 -20 -20 -20 -20
-20 -20 -20 -20 -20 -19 -20 -6 -15 -12 4 2 -5 -15 -20 -20 -20 -20 -20 -20 -20 -20 -20 -20 -20 -20 -20 -20 -20 -20 -20 -20 -20 -20 -20 -20 -20 -20 -18 -20 -20 -20 -20
-20 -20 -12 20 26 27 31 32 24 24 22 5 -20 -20 -20 -20 -20 -20 -20 -20 -20 -20 -20 -20 -20 -20 -20 -20 -20 -20 -20 -14 -20 -20 -20 -20 -20 -20 -20 -20 -20 -20 -20
-20 -20 -10 -10 12 20 9 15 11 -20 -20 -20 -20 -20 -20 -20 -20 -20 -20 -20 -20 -20 -20 -20 -20 -20 -20 -20 -20 -20 -20 -20 -20 2 2 -20 -20 -20 -16 3 4 -17 -17
-8 -12 -20 -20 -20 -14 -17 -20 -20 -20 -20 -20 -20 -20 -20 -20 -20 -20 -20 -20 -20 -20 -20 -20 -20 -20 -20 -20 -19 -19 -20 -20 -20 -20 -20 -20 -20 -20 -20 -20 -20 -20 -20
-20 6 8 -18 -20 -20 -20 -20 -20 -20 -20 -20 -20 -20 -20 -20 -20 -20 -20 -20 -20 -20 -20 -20 -20 -20 -20 1 2 -17 -16 -15 -15 3 -1 -20 -20 -20 -2 -20 -2 4 -20
-20 -20 -20 -20 -20 -20 -20 -20 -20 -20 -20 -20 -20 -20 -20 -20 -20 -20 -20 -18 -15 -20 -20 -20 -20 -20 -5 2 2 -18 -2 -20 -19 -18 -17 -20 4 -20 -2 8 9 3 -20
-20 -20 -20 -20 -20 -20 -20 -20 -20 -20 -20 -20 -20 -20 -20 -20 -20 -20 -20 -20 -20 -20 -20 -20 -20 -13 9 10 12 6 -4 -18 -20 4 -5 9 -20 -20 -20 -20 -20 3 12
-20 -20 -20 -20 -20 -20 -20 -20 -20 -20 -20 -20 -20 -20 -20 -20 -20 -20 -20 -20 -18 -16 -20 -8 -3 6 8 -8 -10 6 3 -1 -15 -20 -9 -20 -20 -20 -20 -20 -20 -20 -20
-20 -20 -20 -20 -20 -20 -20 -20 -20 -20 -20 -20 -20 -20 -20 -20 -20 -20 -20 -20 -4 -20 1 -20 -20 -20 -20 -20 -20 -20 -20 -8 -12 -20 -20 -20 -20 -20 -20 -20 -20 -20 -20
-20 -20 -20 -20 -20 -20 -20 -20 -20 -20 -20 -20 -20 -20 -20 -20 -20 -20 -3 -18 -20 2 -20 -11 -20 -20 -20 -20 -20 -20 -20 -19 -10 -16 -18 -20 -9 -0 -9 -3 1 -3 9
-20 -20 -20 -20 -20 -20 -20 -20 -20 -20 -20 -20 -20 1 -20 -20 -20 12 6 1 9 -7 -20 -20 -20 -20 -20 -20 -20 -20 -20 -20 -20 -20 -12 -20 -20 -20 -20 -20 -10 -13 5
-20 -20 -20 -20 -20 -20 -20 -20 -20 -20 -20 -20 -17 1 -20 3 10 7 6 8 6 -18 -20 -20 -20 -20 -20 -20 -20 -20 -20 -20 -20 -20 -20 -20 -20 -20 -20 -20 -17 -14 -20
-20 -20 -20 -20 -20 -20 -20 -20 -20 -20 -20 -20 -20 -6 1 5 6 6 3 7 4 -20 -20 -20 -20 -20 -20 -20 -20 -20 -20 -20 -20 -19 -19 -20 -20 -20 -15 -20 -20 -15 -11
-20 -20 -20 -20 -20 -20 -20 -20 -20 -20 -20 -20 -20 -20 -10 0 3 1 0 5 -6 -7 -14 -20 -20 -20 -20 -20 -20 -20 -20 -20 -20 -20 -20 -20 -20 -20 -3 -4 2 8 -12
-20 -20 -20 -20 -20 -20 -20 -20 -20 -20 -20 -20 -20 -20 -20 -19 -10 -3 3 -3 -19 -16 -20 -20 -20 -20 -20 -20 -20 -20 -20 -20 -20 -20 -20 -20 -20 -20 -20 -20 -20 -20 -20
-20 -20 -20 -20 -20 -20 -20 -20 -20 -20 -20 -20 -20 -20 -20 -20 -20 -20 -20 -14 -20 -20 -20 -20 -20 -20 -20 -20 -20 -20 -20 -20 -20 -20 -20 -20 -20 -20 -20 -20 -20 -20 -20
-20 -20 -20 -20 -20 -20 -20 -20 -20 -20 -20 -20 -20 -20 -20 -20 -20 -20 -20 -20 -20 -20 -20 -20 -20 -20 -20 -20 -20 -20 -20 -20 -20 -20 -20 -20 -20 -20 -20 -20 -20 -20 -20
-20 -20 -20 -20 -20 -20 -20 -20 -20 -20 -20 -20 -20 -20 -20 -20 -20 -20 -20 -20 -20 -20 -20 -20 -20 -20 -20 -20 -20 -20 -20 -20 -20 -20 -20 -20 -20 -20 -20 -20 -20 -20 -20
-20 -20 -20 -20 -20 -20 -20 -20 -20 -20 -20 -20 -20 -20 -20 -20 -20 -20 -20 -20 -20 -20 -20 -20 -20 -20 -20 -20 -20 -20 -20 -20 -20 -20 -20 -20 -20 -20 -20 -20 -20 -20 -20
-20 -20 -20 -20 -20 -20 -20 -20 -20 -20 -20 -20 -20 -20 -20 -20 -20 -20 -20 -20 -20 -20 -20 -20 -20 -20 -20 -20 -20 -20 -20 -20 -20 -20 -20 -20 -20 -20 -20 -20 -20 -20 -20
-20 -20 -20 -20 -20 -20 -20 -20 -20 -20 -20 -20 -20 -20 -20 -20 -20 -20 -20 -20 -20 -20 -20 -20 -20 -20 -20 -20 -20 -20 -20 -20 -20 -20 -20 -20 -20 -20 -20 -20 -20 -20 -20
-20 -20 -20 -20 -20 -20 -20 -20 -20 -20 -20 -20 -20 -20 -20 -20 -20 -20 -20 -20 -20 -20 -20 -20 -20 -20 -20 -20 -20 -20 -20 -20 -20 -20 -20 -20 -20 -20 -20 -20 -20 -20 -20

GFSGL_prec_radar_006.txt.gz
Reflectivity
-20 -20 -20 -20 -20 -20 -20 -20 -20 -20 -20 -20 -20 -20 2 -9 7 -20 -20 -11 -4 -10 2 1 -1 -1 -17 -20 -20 -20 -20 -20 -20 -20 -20 -20 -20 -20 -20 -20 -20 -20 -20
-20 -20 -20 -20 -20 -20 -20 -20 -20 -20 -20 -20 -18 19 12 -19 -20 -20 -20 -20 -20 -20 -20 -20 -20 -20 -20 -20 -20 -20 -20 -20 -20 -20 -20 -20 -20 -20 -20 -20 -20 -20 -20
-20 -20 -20 -20 -20 -20 -20 -20 -20 -20 -20 -20 11 -1 -11 -20 -20 -20 -20 -20 -20 -20 -20 -20 -20 -20 -20 -20 -20 -20 -20 -20 -20 -20 -20 -20 -20 -20 -20 -20 -20 -20 -20
-20 -20 -20 -20 -20 -20 -20 -20 -20 -12 -20 -5 -1 5 -18 -20 -20 -20 -20 -20 -20 -20 -20 -20 -20 -20 -20 -20 -20 -20 -20 -20 -20 -20 -20 -20 -20 -20 -20 -20 -20 -20 -20
-15 -19 -20 -20 -20 -20 -20 -20 -20 -14 11 16 21 18 9 6 -9 -20 -20 -20 -20 -20 -20 -20 -20 -20 -20 -20 -20 -20 -20 -8 -1 5 -3 -20 -20 -20 -20 -20 -20 -20 -20
-20 -20 -20 10 -6 18 -20 -20 -18 -8 -1 -2 -4 -20 -20 -20 -20 -20 -20 -20 -20 -20 -20 -20 -20 -20 -20 -20 -20 -20 -20 1 -12 1 -2 -20 -20 -20 -20 -20 -20 -20 -20
-20 -17 -20 -20 -20 -19 -12 -20 -20 -20 -20 -20 -20 -20 -20 -20 -20 -20 -20 -20 -20 -20 -20 -20 -20 -20 -20 -20 -20 -3 -4 -2 -2 4 9 4 -7 -20 -20 -20 -20 -20 -20
-20 -20 -20 -20 -20 -20 -20 -20 -20 -20 -20 -20 -20 -20 -20 -20 -20 -20 -20 -20 -20 -20 -20 -20 -20 -20 -20 -2 -11 -20 -10 -20 -20 -20 -20 -20 -20 -20 -20 -20 -20 -20 -20
-20 -20 -20 -20 -20 -20 -20 -20 -20 -20 -20 -20 -20 -20 -20 -20 -20 -20 -20 -20 -20 -20 -20 -20 -20 -20 -20 2 -2 -16 -20 -20 -20 -16 11 -19 -20 -20 -20 -20 -16 9 -20
-20 -20 -20 -20 -20 -20 -20 -20 -20 -20 -20 -20 -20 -20 -20 -20 -20 -20 -20 -20 -20 -20 -20 -20 -20 -20 -7 10 10 8 -15 -19 -18 -19 -20 -20 7 13 7 1 1 10 -11
-20 -20 -20 -20 -20 -20 -20 -20 -20 -20 -20 -20 -20 -20 -20 -20 -20 -20 -20 -20 -20 -20 -20 -20 -20 -10 -2 1 4 -20 -6 -12 -4 7 -20 -20 -10 -20 -20 -13 -16 1 2
-20 -20 -20 -20 -20 -20 -20 -20 -20 -20 -20 -20 -20 -20 -20 -20 -20 -20 -20 -19 -5 3 -20 -20 -20 -20 -20 -2 -7 -2 -12 -10 -14 -3 -20 -20 -20 -20 -20 -20 -20 -20 -15
-20 -20 -20 -20 -20 -20 -20 -20 -20 -20 -20 -20 -20 -20 -20 -20 -20 -20 -20 -17 6 -19 3 -2 -1 -20 -20 -20 -20 -19 -20 -20 -20 -16 -20 -20 -20 -20 -7 -4 -10 -20 -20
-20 -20 -20 -20 -20 -20 -20 -20 -20 -20 -20 -20 -20 -20 -20 -20 -20 -20 6 -20 -20 5 -9 -20 -20 -20 -20 -20 -20 -20 -20 -20 -20 -20 -20 -20 -20 -6 -10 -18 -19 -20 7
-20 -20 -20 -20 -20 -20 -20 -20 -20 -20 -20 -20 -20 -16 -2 -20 -20 13 8 6 12 4 -5 -15 -20 -20 -20 -20 -20 -20 -20 -20 -20 -17 -20 -20 -20 -20 -20 -20 -17 -13 -6
-20 -20 -20 -20 -20 -20 -20 -20 -20 -20 -20 -20 -20 -20 -1 3 10 9 6 8 10 2 -10 -20 -20 -20 -20 -20 -20 -20 -20 -20 -20 -17 -19 -20 -20 -20 -20 -20 -20 -20 -20
-20 -20 -20 -20 -20 -20 -20 -20 -20 -20 -20 -20 -20 -20 -3 0 7 5 0 6 7 3 -7 -15 -20 -20 -20 -20 -20 -20 -20 -20 -20 -20 -20 -20 -20 -20 -20 -20 -20 -20 -8
-20 -20 -20 -20 -20 -20 -20 -20 -20 -20 -20 -20 -20 -20 -20 -0 3 1 -5 3 2 -5 -4 -4 -19 -20 -20 -20 -20 -20 -20 -20 -20 -20 -20 -20 -20 -20 -20 -20 -20 -20 -18
-20 -20 -20 -20 -20 -20 -20 -20 -20 -20 -20 -20 -20 -20 -20 -20 -18 -12 -13 -20 -3 -20 -4 -8 -20 -20 -20 -20 -20 -20 -20 -20 -20 -20 -20 -20 -20 -20 -20 -20 -20 -20 -20
-20 -20 -20 -20 -20 -20 -20 -20 -20 -20 -20 -20 -20 -20 -20 -20 -20 -20 -20 -20 -20 -20 -20 -20 -20 -20 -20 -20 -20 -20 -20 -20 -20 -20 -20 -20 -20 -20 -20 -20 -20 -20 -20
-20 -20 -20 -20 -20 -20 -20 -20 -20 -20 -20 -20 -20 -20 -20 -20 -20 -20 -20 -20 -20 -20 -20 -20 -20 -20 -20 -20 -20 -20 -20 -20 -20 -20 -20 -20 -20 -20 -20 -20 -20 -20 -20
-20 -20 -20 -20 -20 -20 -20 -20 -20 -20 -20 -20 -20 -20 -20 -20 -20 -20 -20 -20 -20 -20 -20 -20 -20 -20 -20 -20 -20 -20 -20 -20 -20 -20 -20 -20 -20 -20 -20 -20 -20 -20 -20
-19 -20 -20 -20 -20 -20 -20 -20 -20 -20 -20 -20 -20 -20 -20 -20 -20 -20 -20 -20 -20 -20 -20 -20 -20 -20 -20 -20 -20 -20 -20 -20 -20 -20 -20 -20 -20 -20 -20 -20 -20 -20 -20
-20 -20 -20 -20 -20 -20 -20 -20 -20 -20 -20 -20 -20 -20 -20 -20 -20 -20 -20 -20 -20 -20 -20 -20 -20 -20 -20 -20 -20 -20 -20 -20 -20 -20 -20 -20 -20 -20 -20 -20 -20 -20 -20
-20 -20 -20 -20 -20 -20 -20 -20 -20 -20 -20 -20 -20 -20 -20 -20 -20 -20 -20 -20 -20 -20 -20 -20 -20 -20 -20 -20 -20 -20 -20 -20 -20 -20 -20 -20 -20 -20 -20 -20 -20 -20 -20
-20 -20 -20 -20 -20 -20 -20 -20 -20 -20 -20 -20 -20 -20 -20 -20 -20 -20 -20 -20 -20 -20 -20 -20 -20 -20 -20 -20 -20 -20 -20 -20 -20 -20 -20 -20 -20 -20 -20 -20 -20 -20 -20

GFSGL_prec_radar_009.txt.gz
Reflectivity
-20 -20 -20 -20 -20 -20 -20 -20 -20 -20 -20 -20 -20 -20 -9 21 27 15 -7 -6 -14 -20 -15 -20 -20 -17 -17 -20 -20 -20 -20 -20 -20 -20 -20 -20 -20 -20 -20 -20 -20 -20 -20
-20 -20 -20 -20 -20 -20 -20 -20 -20 -20 -20 -20 -20 -20 22 20 3 -6 -12 -12 -20 -20 -20 -20 -20 -20 -20 -20 -20 -20 -20 -20 -20 -20 -20 -20 -20 -20 -20 -20 -20 -20 -20
-20 -20 -20 -20 -20 -20 -20 -20 -20 -20 -20 -20 -16 14 4 -17 -20 -20 -20 -20 -20 -20 -20 -20 -20 -20 -20 -20 -20 -20 -20 -20 -20 -20 -20 -20 -20 -20 -20 -20 -20 -20 -20
-20 -20 -20 -20 -20 -20 -20 -20 -20 -20 -20 -14 -18 -7 -20 -20 -20 -20 -20 -20 -20 -20 -20 -20 -20 -20 -20 -20 -20 -20 -20 -20 -20 -20 -20 -20 -20 -20 -20 -20 -20 -20 -20
-20 -20 -20 -15 5 -20 -20 -17 -14 -4 -12 -20 -1 -20 -20 -20 -20 -20 -20 -20 -20 -20 -20 -20 -20 -20 -20 -20 -20 -20 -20 -20 -20 -5 -2 -9 -9 -7 -2 -20 -8 -20 -20
-20 -20 -20 -20 -20 -20 -20 -20 -20 -20 -20 -20 -20 -20 -20 -20 -20 -20 -20 -20 -20 -20 -20 -20 -20 -20 -20 -20 -20 -20 -4 -1 -2 -0 -2 -1 -20 -20 -7 -3 -3 -0 -20
-20 -20 -20 -20 -20 -20 -20 -20 -20 -20 -20 -20 -20 -20 -20 -20 -20 -20 -20 -20 -20 -16 -20 -20 -20 -20 -20 -15 -3 -17 6 -1 -17 4 7 6 3 1 -0 -2 5 4 2
-20 -20 -20 -20 -20 -20 -20 -20 -20 -20 -20 -20 -20 -20 -20 -20 -20 -20 -20 -20 -20 -20 -20 -20 -16 -11 -3 -2 -19 0 2 5 6 5 0 0 1 1 1 7 9 5 5
-20 -20 -20 -20 -20 -20 -20 -20 -20 -20 -20 -20 -20 -20 -20 -20 -20 -20 -20 -7 0 -2 -20 -4 -0 -0 -0 -2 1 8 13 5 -1 -20 -20 -20 -20 -20 -9 11 14 16 12
-20 -20 -20 -20 -20 -20 -20 -20 -20 -20 -20 -20 -20 -20 -20 -20 -20 -20 -18 2 -0 -5 1 3 -18 -20 -20 5 14 12 11 6 3 14 10 -1 -18 4 9 14 18 16 11
-20 -20 -20 -20 -20 -20 -20 -20 -20 -20 -20 -20 -20 -20 -20 -20 -20 -20 -11 2 7 7 8 3 4 -10 5 -3 0 6 5 4 7 9 7 5 6 7 8 9 14 18 15
-20 -20 -20 -20 -20 -20 -20 -20 -20 -20 -20 -20 -20 -14 -20 -0 -3 -20 -20 1 5 13 7 4 15 -15 -20 -20 -15 -2 2 -1 -2 -6 -0 2 3 7 3 1 5 11 15
-20 -20 -20 -20 -20 -20 -20 -20 -20 -20 -20 -20 -20 -20 -6 -5 1 -20 -20 8 2 5 11 -3 -19 -20 -20 -20 -20 -20 -20 -1 -0 -1 -2 -5 3 5 9 14 11 10 9
-20 -20 -20 -20 -20 -20 -20 -20 -20 -20 -20 0 2 3 0 -3 2 3 8 5 -6 10 6 5 -17 -20 -20 -20 -17 -20 -4 -1 -2 -1 -3 -20 -4 5 8 9 12 12 14
-20 -20 -20 -20 -20 -20 -20 -20 -20 -20 -20 -0 1 4 6 4 5 13 10 7 11 2 3 -1 -7 3 -20 -20 -16 -20 -20 -20 -20 -6 -3 -2 1 1 1 7 8 11 12
-20 -20 -20 -20 -20 -20 -20 -20 -20 -20 -20 -20 -20 -8 2 4 9 8 3 4 3 -6 1 -2 4 2 -20 -5 -1 -2 -4 -12 -20 -20 -20 -15 -20 -1 -3 -1 1 8 11
-20 -20 -20 -20 -20 -20 -20 -20 -20 -20 -20 -20 -20 -20 -5 1 5 4 -0 -3 -5 1 0 0 -1 -2 -20 -2 -3 -2 -1 -1 -13 -20 -20 -20 -20 -19 -1 -5 -4 0 6
-20 -20 -20 -20 -20 -20 -20 -20 -20 -20 -20 -20 -20 -20 -20 -2 0 -1 -9 -14 -4 -1 2 -0 -11 -20 -20 -20 -20 -20 -2 0 -2 -19 -20 -20 -20 -3 -17 -20 -2 1 2
-20 -20 -20 -20 -20 -20 -20 -20 -20 -20 -20 -20 -20 -20 -20 -20 -20 -16 -20 -20 -16 -4 -1 -3 -6 -19 -17 -20 -20 -20 -1 1 0 0 -3 -20 -20 -20 -6 -16 -14 -20 -18
-20 -20 -20 -20 -20 -20 -20 -20 -20 -20 -20 -20 -20 -20 -10 -20 -16 -6 -20 -20 -20 -19 -12 -17 -18 -20 -20 -20 -2 -2 -2 -0 -1 -14 -1 1 -20 -20 -17 -2 -12 -4 -20
-20 -20 -20 -20 -20 -20 -20 -20 -20 -20 -20 -20 -20 -20 -20 -20 -1 1 -2 -20 -20 -20 -20 -20 -20 -20 -20 -20 -20 -7 -20 -10 -20 -20 -1 -0 0 -20 -2 0 2 0 -4
-20 -20 -20 -20 -20 -20 -20 -20 -20 -20 -20 -20 -20 -20 -20 -20 -16 -2 -20 -20 -20 -16 -20 -20 -20 -20 -20 -20 -20 -20 -20 -20 -20 -20 -20 -20 -20 -20 0 -6 -1 -1 -20
-20 -20 -20 -20 -20 -20 -20 -20 -20 -20 -20 -20 -20 -20 -20 -20 -20 -7 -18 -20 -20 -14 -20 -20 -20 -20 -20 -20 -20 -20 -20 -20 -20 -20 -20 -20 -20 -20 -1 0 -20 -20 -20
-20 -20 -20 -20 -20 -20 -20 -20 -20 -20 -20 -20 -20 -20 -20 -20 -20 -20 -20 -20 -20 -20 -20 -20 -20 -20 -20 -20 -20 -20 -20 -20 -20 -20 -20 -20 -20 -20 -20 -20 -20 -20 -20
-20 -20 -17 -20 -20 -20 -20 -20 -20 -20 -20 -20 -20 -20 -20 -20 -20 -20 -20 -20 -20 -20 -20 -20 -20 -20 -20 -20 -20 -20 -20 -20 -20 -20 -20 -20 -20 -20 -20 -20 -20 -20 -20
-20 -5 10 -17 -20 -20 -20 -20 -20 -20 -20 -20 -20 -20 -20 -20 -20 -20 -20 -20 -20 -20 -20 -20 -20 -20 -20 -20 -20 -20 -20 -20 -20 -20 -20 -20 -20 -20 -20 -20 -20 -20 -20

GFSGL_prec_radar_012.txt.gz
Reflectivity
-20 -20 -20 -20 -20 -20 -20 -20 -20 -18 -20 -20 -20 -20 6 6 23 25 12 10 4 -17 -20 -20 -20 -4 -20 -20 -20 -13 -9 -19 -20 -20 -17 -20 -20 -20 -20 -20 -20 -20 -20
-20 -20 -20 -20 -20 -20 -20 -20 -1 2 4 6 14 -1 -1 10 22 13 3 8 -6 -19 -20 -20 -20 -20 -20 -20 -20 -20 -20 -20 -20 -20 -20 -20 -20 -20 -20 -20 -20 -20 -20
-20 -20 -20 -20 -20 -17 7 6 9 20 20 19 15 9 16 15 19 12 10 1 -11 -20 -20 -20 -20 -20 -20 -20 -20 -20 -20 -20 -20 -20 -20 -20 -20 -20 -20 -20 -20 -20 -20
-20 -20 -20 -2 6 11 7 -7 -7 2 17 13 8 8 -13 -20 -20 -20 -20 -20 -20 -20 -20 -20 -20 -20 -20 -20 -20 -20 -20 -20 -20 -20 -20 -20 -20 -20 -20 -20 -20 -20 -20
-20 -20 -20 -20 -15 -17 -20 -20 -20 -20 -20 -20 -20 -20 -20 -20 -20 -20 -20 -20 -20 -20 -15 -20 -20 -20 -20 -20 -20 -20 -20 -20 -20 -20 -20 -20 -20 -20 -20 -20 -20 -20 -20
-20 -20 -20 -20 -20 -20 -20 -20 -20 -20 -20 -20 -20 -20 -20 -20 -20 -20 -20 -20 -20 -20 -20 -20 -20 -20 -20 -20 -20 -12 -19 -4 -1 -0 -4 -4 -15 -20 -13 -12 2 4 3
-20 -20 -20 -8 -20 -20 -20 -20 -20 -20 -20 -20 -20 -20 -20 -20 -20 -20 -20 -20 -20 -20 -20 -20 -20 -20 -20 -18 -20 -20 -20 -20 -20 -0 1 -6 -1 -7 -11 -6 -10 2 5
-20 -17 1 -20 -20 -20 -20 -20 -20 -20 -20 -20 -20 -20 -20 -20 -20 -20 -20 -20 -20 -20 -20 -20 -20 -20 -16 -10 -1 -2 3 6 7 8 6 -3 -10 -20 -9 -1 7 10 12
-1 -20 -19 -20 -20 -20 -20 -20 -20 -20 -20 -20 -20 -20 -20 -20 -20 -20 -20 -20 -7 -8 -12 -2 -4 3 -17 -14 10 11 9 7 -5 -5 -20 -20 -17 -20 -15 6 16 15 14
-20 -20 -20 -20 -20 -20 -20 -20 -20 -20 -20 -20 -20 -18 -20 -2 -18 -1 0 2 7 7 2 2 -18 5 5 -18 14 13 10 5 6 10 5 4 6 -4 -20 3 15 15 15
-20 -20 -20 -20 -20 -20 -20 -20 -20 -20 -15 -20 5 -3 6 -5 -0 2 2 2 11 10 8 8 8 9 -20 -20 -20 3 6 0 -0 5 6 3 4 9 8 14 13 17 14
11 5 -20 -20 -20 -20 -20 -20 -20 -8 -5 -20 5 6 -1 -17 -8 -0 2 6 11 14 11 10 19 -18 -20 -17 -14 -19 -20 -17 3 10 11 8 8 6 4 9 11 12 13
11 6 -20 -20 -20 -20 -20 -20 -4 -4 -19 4 -3 1 -0 -1 1 -20 3 9 6 8 16 5 -20 -20 -5 -15 -20 -20 -20 11 7 4 7 7 10 9 10 15 14 11 12
-16 -20 -20 -20 -20 -20 -20 -7 -20 -20 3 -2 0 -1 -1 0 0 5 9 -9 5 11 3 15 -3 -6 -14 -6 -3 6 4 4 2 2 -2 -2 4 8 15 14 14 16 15
-20 -20 -20 -20 -20 -20 -20 -20 -20 -7 -10 -6 -6 -2 4 5 5 11 9 7 10 5 -2 11 6 7 10 6 4 1 1 1 6 1 1 3 -12 7 14 9 11 14 17
-20 -20 -20 -20 1 -8 -20 -20 -20 -20 -20 -20 -20 -8 -1 2 6 6 4 3 3 -15 7 3 7 9 7 4 2 4 5 -3 -0 4 7 4 -16 5 10 10 -0 13 17
-20 -20 -1 -20 0 -2 -1 -5 -2 -10 -20 -20 -20 -20 -4 2 2 2 -0 -3 -3 -20 1 2 4 4 6 -1 2 6 3 4 4 3 2 -4 -5 -6 10 13 10 10 9
-3 -13 1 2 -0 -3 -14 -19 -5 -1 3 3 -9 -20 -12 1 -2 -0 -5 -20 -3 -15 -2 0 1 2 3 1 2 3 3 4 2 1 -1 -3 -4 -6 -16 -1 6 11 12
0 -1 -2 2 -15 -2 -7 -20 -1 -2 1 1 -14 -20 -7 -3 -5 -0 -2 3 1 -1 -3 -3 1 1 2 2 4 4 8 4 4 7 4 -2 -1 1 -0 -0 2 -7 -9
-20 -14 -17 -20 -20 -20 -15 -3 -3 1 0 2 -4 -3 -3 1 2 4 3 3 -2 -12 -17 -20 -2 2 3 3 4 4 1 2 -1 2 3 4 2 7 -5 -5 -6 2 2
-20 -5 -20 -6 -18 -20 -17 -5 1 2 2 0 -3 2 -20 1 2 3 -0 -20 -20 -20 -20 -20 -2 1 2 2 2 3 1 2 1 1 0 4 9 6 3 -3 -5 -2 -2
5 7 -1 -19 -10 -20 -10 -4 -6 -1 1 2 2 -3 -20 4 2 2 -3 -15 -20 -20 -20 -20 -17 -4 -1 2 3 3 2 -0 1 -0 2 3 4 4 6 2 0 3 -2
-16 6 -2 -6 -1 -10 -11 1 -5 1 4 3 3 -2 1 3 3 2 -2 -5 -20 -20 -20 -20 -20 -20 -20 -4 -13 -12 -2 -1 3 1 -0 -1 -0 -2 5 2 -1 2 1
-17 -4 3 6 6 1 -6 -9 -7 -8 -3 3 4 3 -1 1 2 1 2 2 -5 -20 -20 -20 -20 -20 -20 -20 -20 -20 -20 -20 -20 -20 -7 -20 -20 -10 -1 -1 1 -2 1
9 10 10 9 8 0 -20 -1 -4 3 -1 1 2 4 -1 -0 -16 -3 2 3 -0 -20 -20 -20 -20 -20 -20 -20 -20 -20 -20 -20 -20 -20 -20 -13 -20 -20 -20 -20 -3 -4 -3
7 9 10 9 10 6 -14 -20 -20 -5 -7 0 3 4 1 -4 -16 -11 -3 -3 -10 -20 -20 -20 -20 -20 -20 -20 -20 -20 -20 -20 -20 -20 -20 -20 -20 -20 -20 -20 -20 -12 -20

GFSGL_prec_radar_015.txt.gz
Reflectivity
-20 -20 -20 -20 -20 -20 -20 -20 -20 -20 -20 -20 7 6 2 -20 -2 9 13 17 9 3 -20 -20 -20 -20 -20 -20 -15 -14 1 -17 -20 -3 -3 -6 1 6 9 -18 -20 -20 -20
-20 -20 -20 -20 -20 -20 -20 -20 -20 -20 -19 19 13 -20 2 13 9 16 20 19 11 10 12 10 -5 -16 -20 -20 -20 -20 -20 -20 -20 -20 -20 -20 -20 -20 -20 -20 -20 -20 -20
-20 -20 -20 -20 -20 -20 -20 -20 -20 -20 -20 -20 -20 13 9 6 -17 -20 -20 -20 -20 -20 -20 -20 -20 -20 -20 -20 -20 -20 -20 -20 -20 -20 -20 -20 -20 -20 -20 -20 -20 -20 -20
-20 -20 -20 -20 -20 -20 -20 -20 -20 -20 -20 -20 -20 -20 -20 -20 -20 -20 -20 -20 -20 -20 -20 -20 -20 -20 -20 -13 -20 -20 -20 -20 -20 -20 -20 -20 -20 -20 -20 -20 -20 -20 -20
-20 -20 -20 -20 -20 -20 -20 -20 -20 -20 -20 -20 -20 -20 -20 -20 -20 -20 -20 -20 -20 -20 -20 -20 -20 -20 -20 -20 -20 -20 -20 -20 -20 -20 -20 -20 -20 -20 -20 -20 -20 -20 -20
-20 -20 -20 -20 -20 -20 -20 -20 -20 -20 -20 -20 -20 -20 -20 -20 -20 -20 -20 -20 -20 -20 -20 -20 -20 -20 -20 -20 -20 -20 -20 -20 -20 -20 -20 -20 -20 -20 -20 -20 -20 -20 8
-20 -20 -20 -20 -20 -20 -20 -20 -20 -20 -20 -20 -20 -20 -20 -20 -20 -20 -20 -20 -20 -20 -20 -20 -20 -20 -20 -20 -14 10 -14 -20 -20 -18 -1 -8 -13 -20 -12 -1 -10 4 8
5 2 -11 -20 -20 -20 -19 -20 -20 -20 -20 -20 -20 -20 -20 -10 -4 -20 -20 -20 -20 -20 -12 -3 -16 -20 -20 -20 -13 -12 5 6 4 6 -3 -15 -3 1 3 4 -2 3 8
8 -19 -19 -20 -5 -20 -20 -20 -20 -20 -20 -20 -20 -20 -20 -3 -20 -20 -20 -5 1 -1 -4 2 3 -15 -0 -14 8 10 8 5 -3 -3 -20 -17 -17 -20 -20 -16 9 17 16
9 -11 -20 -20 2 -17 -20 -20 -20 -20 -20 -20 -20 -20 -20 1 8 -20 -20 3 6 7 7 -18 6 7 11 -18 14 17 16 7 -5 6 6 -2 4 -17 -17 -20 4 9 9
16 -9 -20 7 15 -3 -18 -20 -20 -20 -6 -20 -10 -1 3 9 6 -19 -20 4 3 15 12 12 11 20 -8 -11 -18 1 4 -2 -4 0 -1 -12 3 6 9 11 3 10 7
-20 -20 0 28 -0 -4 -20 -20 -18 -20 -5 -11 -1 -7 5 10 -12 -12 -20 -19 13 14 12 1 19 -9 -20 -20 -12 -20 -20 -20 -0 3 13 13 14 10 2 8 12 23 18
12 -3 20 4 -20 -20 -13 -20 -20 -12 -15 -20 -3 -6 3 -19 3 -19 -20 7 7 12 17 5 5 3 -2 -12 13 -20 -20 7 14 10 9 10 12 10 0 6 9 15 15
-15 2 6 -15 -1 -20 -20 -20 -20 -20 -20 -5 -15 -2 -2 2 -18 -4 4 11 5 7 1 -6 16 6 7 14 17 13 14 13 9 10 10 5 8 4 12 17 16 14 16
-20 -20 -20 -20 -9 -8 -20 -19 -20 -20 -20 -20 -20 -20 -10 1 -2 7 10 10 9 3 -12 14 8 5 6 11 13 13 13 8 8 7 8 10 10 1 15 18 3 15 17
-20 -20 -2 -4 -14 -20 -4 -20 -20 -20 -20 -20 -20 -20 -20 -5 2 4 5 2 5 -19 5 6 6 7 8 10 10 9 8 6 4 5 8 8 6 -2 11 16 -5 9 12
-5 -20 -8 -20 -19 -19 -3 -20 -3 -9 -20 -20 -20 -20 -20 -19 -2 1 2 -4 4 -20 4 4 5 5 5 7 7 5 7 9 4 4 7 6 6 -2 5 7 15 15 10
-11 -16 -12 -19 -20 -20 -16 -20 -17 1 4 3 -1 -20 -20 -20 -4 -1 -1 -19 2 -10 -0 3 2 5 0 -1 -1 2 4 8 8 10 7 8 2 7 8 6 9 -1 -3
-20 -14 -8 -20 2 -13 5 4 4 -14 3 0 1 -20 -20 -19 -20 -13 4 3 2 1 -2 2 1 -2 1 2 7 8 8 9 8 9 9 9 6 9 7 6 -3 5 -14
-20 -20 -9 -9 5 4 -17 -3 1 1 -0 -1 4 -1 -20 -7 5 7 5 3 -2 -20 -20 -20 -14 -1 2 2 3 6 -14 -7 5 1 6 11 12 9 8 8 8 0 5
-20 -7 -20 -20 7 -19 -19 4 2 3 4 -1 4 -14 -20 -19 6 4 4 1 -20 -20 -6 -3 -2 -1 -2 -4 -1 2 1 -11 2 2 1 8 10 10 9 8 9 9 5
-20 -16 -19 8 1 6 5 -14 -15 2 5 2 4 3 -20 1 3 4 1 1 -1 -10 -20 -9 -3 -14 -20 -3 -3 -2 -4 -5 -2 3 1 -2 4 4 9 4 6 9 3
-1 5 3 8 8 -12 3 8 5 8 6 6 5 4 3 1 4 4 5 6 -0 -5 -20 -20 -20 -20 -20 -20 -17 -20 -20 -20 -8 -9 -2 -3 -12 -12 2 -8 1 -2 -4
2 7 7 9 11 9 8 9 6 -3 7 6 8 8 5 1 2 3 6 7 4 3 -20 -20 -20 -20 -20 -20 -20 -20 -20 -20 -20 -20 -18 2 -20 -20 -16 -18 -6 -2 -2
10 8 9 10 11 11 8 6 6 8 10 8 10 7 6 2 0 -0 2 2 4 -1 -20 -20 -20 -20 -20 -20 -20 -20 -20 -20 -20 -20 -20 -20 -20 -20 -20 -20 -20 -13 -20
-0 7 10 11 10 12 12 7 1 7 8 9 8 8 6 -0 -2 -4 -2 -2 -10 -11 -20 -20 -20 -20 -20 -20 -20 -20 -20 -20 -20 -20 -20 -20 -20 -20 -20 -20 -20 -20 -20

GFSGL_prec_radar_021.txt.gz
Reflectivity
-20 -20 -20 -20 -20 -20 -20 -20 -20 -20 -20 -20 -20 -20 -20 -20 -20 -20 -20 -20 -9 7 -20 -20 -17 -10 7 -4 6 -13 -16 6 13 -8 -20 -20 -20 -18 10 11 -9 23 20
-20 -20 -20 -20 -20 -20 -20 -20 -20 -20 -20 -20 -20 -20 -20 -20 -20 -20 -20 -20 -20 -20 -20 -20 -20 -20 -20 -20 -19 -20 -20 -20 -20 -20 -20 -20 -20 -20 -19 -5 4 11 20
-20 -20 -20 -20 -18 -20 -20 -20 -20 -19 -20 -20 -20 -20 -20 -20 -20 -20 -20 -20 -20 -20 -20 -20 -20 -20 -20 -20 -20 -20 -20 -20 -20 -20 -20 -20 -20 -20 -20 -20 -20 -20 4
-20 -20 -20 -20 -2 -20 -20 -20 18 5 -20 -20 -20 -20 -20 -20 -20 -20 -20 -20 -20 -20 -20 -20 -20 -20 -20 -20 -20 -20 -20 -20 -20 -20 -20 -20 -20 -20 -20 -20 -20 -20 -20
-20 -20 -20 -20 -20 -11 6 13 -14 6 -20 -20 -20 -20 -20 -20 -20 -20 -20 -20 -20 -20 -20 -20 -20 -20 -20 -16 -2 -20 -20 -20 -20 -20 -20 -20 -20 -20 -20 -20 -20 -20 -20
-20 -20 -20 -20 -0 -1 3 30 40 18 -1 -20 -20 -20 -20 -20 -20 -20 -20 -20 -20 -20 -20 -20 -20 -20 -20 -20 -20 -20 -20 -10 -20 -20 -20 -20 -20 -20 -20 -20 -20 -20 -20
-20 -20 -20 -20 -20 -20 -20 -8 34 17 -19 -20 -20 -20 -20 -20 -20 -20 -20 -20 -20 -20 -20 -20 -20 -20 -20 -20 -20 -20 -20 -20 -20 -20 -20 -20 -20 -20 -20 -20 -20 -20 -20
-20 -20 -20 -20 -20 -20 -14 25 15 15 -19 -20 -15 -20 -20 -20 -20 -20 -7 -20 -20 -20 -20 -20 -20 -20 -20 -20 -6 -18 -20 -20 -20 -20 -12 -20 -6 -20 -18 -8 -20 -1 -5
-20 -20 -20 -20 -20 -20 -18 -1 36 2 -6 -20 -20 -20 -20 -20 -20 -15 -20 -20 -20 -20 -20 -20 -3 -16 -20 11 -8 -20 -20 -20 -20 1 14 2 -17 -15 8 16 5 -20 -20
-20 -20 -20 -20 -20 -20 -20 -20 -20 -20 -20 -20 -20 -20 -20 -20 -20 -20 -17 -19 -20 -20 -20 -20 -20 -20 14 1 20 -19 -20 -20 -20 -20 -20 -20 -20 -20 -20 -20 -20 -1 4
-20 -20 -20 -20 -20 -3 -7 -20 -16 -11 -20 -20 -20 -20 -20 -20 -20 -20 -18 -20 -20 -10 -3 -20 -16 3 -20 14 8 -18 -20 -13 -11 -20 -20 -20 -20 -20 -20 -16 -19 -20 -20
-20 -20 -20 -20 -20 6 -19 -19 -20 -20 -20 -20 -20 -20 -20 -20 -20 -20 -20 -20 -12 -18 -3 -2 -17 4 8 -5 -7 -0 11 -10 -20 -20 -20 -20 -20 -20 -4 9 14 24 -4
-20 -20 -20 -20 -20 -20 -20 -20 -20 -20 -20 -20 -20 -20 -20 -20 -20 -20 -20 -20 -19 -20 -20 -4 -1 -4 -18 -18 4 -6 -16 10 -11 -20 -17 -18 -18 -19 -6 -20 -20 -20 -18
-20 -20 -20 -20 -20 -20 -20 -20 -20 -20 -20 -20 -20 -20 -20 -20 -20 -20 -20 -20 -20 -20 -20 -20 6 -10 -18 -4 -19 -20 -20 -15 -9 -20 -20 -20 -20 -17 -20 -20 10 -20 -20
-20 -20 -20 -20 -20 -20 -20 -20 -20 -20 -20 -20 -20 -20 -20 -20 -20 3 -10 -4 -9 -4 -20 -9 -20 -20 -20 -3 -5 -20 -20 -20 -20 -20 -20 -20 -20 -20 -20 -20 -18 -20 -20
-20 -20 -20 -20 -20 -20 -20 -20 -20 -20 -20 -20 -20 -20 -20 -20 -20 -0 1 3 7 -16 -20 -20 -20 -20 -20 -7 -20 -20 -20 2 -20 -20 -16 -20 -20 -20 -20 -20 -20 -20 -19
-20 -20 -20 -20 -20 -20 -20 -20 -20 -20 -20 -20 -20 -20 -20 -20 -20 -9 1 -6 -20 -15 -20 -20 -20 -20 -20 -20 -20 -20 -20 -1 -20 -20 -20 -20 -20 -20 -18 -20 -20 -20 -20
-20 -20 -20 -20 -20 -20 -20 -19 -3 -20 -15 -20 -20 -20 -20 -20 -20 -20 2 -20 -20 -20 -20 -20 -20 -18 -20 -20 -20 -20 -20 -20 -20 -20 -20 -20 -20 -20 -20 -20 -20 -20 -20
-20 -20 -20 -20 -20 -15 -3 -11 -12 -2 2 -20 -20 -20 -20 -20 -20 -20 -20 -20 -20 -20 -20 -20 -20 -20 -20 -20 -20 -20 -20 -20 -20 -20 -20 -20 -20 -20 -20 -20 -20 -20 -20
-20 -20 -20 -20 -20 -6 -11 -20 -6 5 -1 0 -20 -20 -20 -20 -20 -20 -20 -20 -20 -20 -20 -20 -20 -20 -20 -20 -20 -20 -20 -20 -20 -20 -20 -20 -20 -20 -20 -18 -20 -20 -20
-20 -20 -20 -20 2 2 -10 0 5 -12 -7 -20 -20 -20 -20 -20 -20 -20 -20 -20 -20 -20 -20 -20 -20 -20 -20 -20 -20 -20 -20 -20 -20 -20 -20 -20 -20 -20 -20 -20 -20 -20 -20
-20 -20 -20 -20 -20 -1 -13 3 -20 -20 -16 -14 -20 -20 -20 -20 -20 -20 -20 -20 -20 -20 -20 -20 -20 -20 -20 -20 -20 -20 -20 -20 -20 -20 -20 -20 -20 -20 -20 -20 -20 -20 -20
-20 -20 -15 -12 0 -17 -16 2 2 -20 -8 -11 -11 -20 -20 -20 -20 -20 -20 -20 -20 -20 -20 -20 -20 -20 -20 -20 -20 -20 -20 -20 -20 -20 -20 -20 -20 -20 -20 -20 -20 -20 -20
-20 -20 -20 -13 -20 -8 -20 -20 -12 -8 -20 -20 -20 -19 -20 -20 -20 -20 -20 -20 -20 -20 -20 -20 -20 -20 -20 -20 -20 -20 -20 -20 -20 -20 -20 -20 -20 -20 -20 -20 -20 -20 -20
-20 -20 -20 -4 -16 -20 -20 -20 5 4 -19 -20 -20 -2 -20 -20 -20 -20 -20 -20 -20 -20 -20 -20 -20 -20 -20 -20 -20 -20 -20 -20 -20 -20 -20 -20 -20 -20 -20 -20 -20 -20 -20
-20 -20 -20 -20 3 -9 -18 1 3 -11 2 -20 -20 -20 -20 -20 -20 -20 -20 -20 -20 -20 -20 -20 -20 -20 -20 -20 -20 -20 -20 -20 -20 -20 -20 -20 -20 -20 -20 -20 -20 -20 -20

GFSGL_prec_radar_024.txt.gz
Reflectivity
-20 -20 -20 -20 -20 -20 -20 -20 -20 -20 -20 -20 -10 -13 -20 -20 -20 -20 -20 -20 -20 -20 -20 -20 -20 -20 -20 -20 -20 -20 -20 9 11 -20 -20 -20 -20 -20 -20 -20 -12 -15 18
-20 -20 -20 -20 -20 -20 -20 -20 -20 -20 -20 -6 9 -11 -20 -19 -20 -20 -20 -20 -20 -20 -20 -20 -20 -20 -20 -20 -20 -20 -20 -20 -20 -20 -20 -20 -20 -20 -20 -20 -20 -20 -16
-20 -20 -20 -20 -20 -20 -20 -20 -20 10 18 35 14 -3 -20 -20 -20 -20 -20 -20 -20 -20 -20 -20 -20 -20 -20 -20 -20 -20 -20 -20 -20 -20 -20 -20 -20 -20 -20 -20 -20 -20 -20
-20 -20 -20 -20 -20 -20 -20 -20 -3 -5 -18 26 -1 6 1 -15 -20 -20 -20 -20 -20 -20 -20 -20 -20 -20 -20 -20 -20 -20 -20 -20 -20 -20 -20 -20 -20 -20 -20 -20 -20 -20 -20
-20 -20 -20 -20 -20 -20 -20 -20 -12 17 -19 15 -4 -19 -20 -20 -20 -20 -20 -20 -20 -20 -20 -20 -20 -20 -20 -20 -13 -10 -8 -20 -20 -20 -20 -20 -20 -20 -20 -20 -20 -20 -20
-20 -20 -20 -20 -20 -20 -20 -20 -20 -20 15 21 24 -9 -19 -20 -20 -20 -20 -20 -20 -20 -20 -20 -20 -20 -20 -20 -20 -20 2 1 -20 -20 -20 -20 -20 -20 -20 -20 -20 -20 -20
-20 -20 -20 -20 -20 -20 -20 -20 -20 -20 -6 31 -6 -5 -20 -20 -20 -20 -20 -20 -20 -20 -20 -20 -20 -20 -20 -20 -20 -20 -20 -18 7 9 2 -20 -20 -20 -20 -20 -20 -20 -20
-20 -20 -20 -20 -20 -20 -20 -20 -8 18 -4 -20 -20 -20 -20 -20 -20 -20 -20 -20 -20 -20 -20 -20 -20 -20 -20 -20 -6 -3 -20 -20 -20 -20 -20 -20 -18 -20 -20 -20 -20 -20 -20
-20 -20 -20 -20 -20 -20 -20 -20 -20 -20 -20 -20 -20 -20 -20 -20 -20 -20 -20 -20 -20 -20 -20 -20 -1 -17 -20 12 2 3 7 -20 -20 -20 -15 -11 -13 3 10 14 3 14 -20
-20 -20 -20 -20 -20 -20 -20 -20 -20 -20 -20 -20 -20 -20 -20 -20 -20 -20 -20 -20 -20 -19 -19 -20 -20 -1 0 -3 7 5 0 -20 -20 -20 -20 -20 -20 -20 -20 -20 -20 -20 -20
-20 -20 -20 -20 -20 -20 -20 -20 -20 -20 -20 -20 -20 -20 -20 -20 -20 -20 -20 -20 -10 -6 -20 -14 -20 -20 15 -1 -2 -9 -15 -17 -20 -19 -20 -20 -20 -20 -20 -20 -20 -12 -20
-20 -20 -20 -20 -20 -20 -20 -20 -20 -20 -20 -20 -20 -20 -20 -20 -20 -20 -20 -2 1 -16 -9 -20 -20 2 5 7 2 4 -18 -20 -20 -20 -20 -20 -20 -20 -20 -20 -20 -20 -19
-20 -20 -20 -20 -20 -20 -20 -20 -20 -20 -20 -20 -20 -20 -20 -20 -20 -20 -20 -20 -20 -20 -5 -12 -10 -9 -18 -19 1 2 -20 -20 -20 -20 -19 -19 -12 -18 -20 -20 -20 -20 -20
-20 -20 -20 -20 -20 -20 -20 -20 -20 -20 -20 -20 -20 -20 -20 -20 -20 -20 -20 -20 -12 -20 -20 -20 -20 -20 -20 -0 -20 -20 -20 -20 -4 -14 -20 -20 -20 -20 -20 -14 -20 3 -20
-20 -20 -20 -20 -20 -20 -20 -20 -20 -20 -20 -20 -20 -20 -20 -20 -20 -0 -2 -20 -6 -20 -20 -20 -20 -20 -20 -20 -20 -20 -20 -8 -20 -20 -20 -20 -20 -20 -20 -19 -20 -20 -20
-20 -20 -20 -20 -20 -20 -20 -20 -20 -20 -20 -20 -20 -20 -20 -20 -20 -2 1 -20 -13 -20 -20 -20 -20 -20 -20 -17 -20 -20 -20 -13 -20 -20 -20 -20 -20 -20 -20 -20 -20 -20 -20
-19 -20 -20 -20 -20 -20 -20 -20 -20 -20 -20 -20 -20 -20 -20 -20 -20 -20 -4 -20 -20 -20 -20 -20 -20 -20 -20 -6 -20 -20 -20 -20 -20 -20 -20 -20 -20 -20 -20 -20 -20 -20 -20
-20 6 -20 -20 -20 -20 -20 -20 -17 -20 -20 -20 -20 -20 -20 -20 -20 -20 -20 -20 -20 -20 -20 -20 -20 -20 -20 -7 -20 -20 -20 -20 -20 -20 -20 -20 -20 -20 -20 -20 -20 -20 -20
-20 -20 -20 -20 -20 -20 -15 -20 -20 -20 -20 -20 -20 -20 -20 -20 -20 -20 -20 -20 -20 -20 -20 -20 -20 -20 -20 -20 -20 -20 -20 -20 -20 -20 -20 -20 -20 -20 -20 -20 -20 -20 -20
-19 -1 -20 -20 -20 -20 -15 -2 2 -20 -16 -20 -20 -20 -20 -20 -20 -20 -20 -20 -20 -20 -20 -20 -20 -20 -20 -20 -20 -20 -20 -20 -20 -20 -20 -20 -20 -20 -20 -20 -20 -20 -20
-20 -20 -20 -20 -20 -20 -20 -19 2 -0 -20 -20 -20 -20 -20 -20 -20 -20 -20 -20 -20 -20 -20 -20 -20 -20 -20 -20 -20 -20 -20 -20 -20 -20 -20 -20 -20 -20 -20 -20 -20 -20 -20
-20 -20 -20 -20 -20 -20 -20 -20 4 -10 -20 -20 -20 -20 -20 -20 -20 -20 -20 -20 -20 -20 -20 -20 -20 -20 -20 -20 -20 -20 -20 -20 -20 -20 -20 -20 -20 -20 -20 -20 -20 -20 -20
-20 -20 -20 -20 -20 -20 -20 -20 -12 -9 -20 3 -12 -20 -20 -20 -20 -20 -20 -20 -20 -20 -20 -20 -20 -20 -20 -20 -20 -20 -20 -20 -20 -20 -20 -20 -20 -20 -20 -20 -20 -20 -20
-20 -20 -20 -20 -20 -20 -20 -20 -7 -20 -15 -20 -20 -20 -20 -20 -20 -20 -20 -20 -20 -20 -20 -20 -20 -20 -20 -20 -20 -20 -20 -20 -20 -20 -20 -20 -20 -20 -20 -20 -20 -20 -20
-20 -20 -20 -20 -20 -20 -20 -20 -20 -1 -14 -20 -17 -20 -20 -20 -20 -20 -20 -20 -20 -20 -20 -20 -20 -20 -20 -20 -20 -20 -20 -20 -20 -20 -20 -20 -20 -20 -20 -20 -20 -20 -20
-20 -20 -20 -20 -20 -20 -20 -20 -20 -17 -14 4 -20 -20 -20 -20 -20 -20 -20 -20 -20 -20 -20 -20 -20 -20 -20 -20 -20 -20 -20 -20 -20 -20 -20 -20 -20 -20 -20 -20 -20 -20 -20

GFSGL_prec_radar_027.txt.gz
Reflectivity
-20 -20 -20 -20 -20 -20 -20 -20 -20 -20 -20 -20 -20 -19 28 8 12 -20 -20 -20 -20 -20 -20 -20 -20 -20 -20 -20 -20 -20 -20 -20 -20 -20 -20 -20 -20 -20 -20 -20 -20 -20 -20
-20 -20 -20 -20 -20 -20 -20 -20 -20 -20 -20 -16 -20 -20 14 11 15 1 -19 -20 -20 -20 -20 -20 -20 -20 -20 -20 -20 -20 -20 -20 -20 -20 -20 -20 -20 -20 -20 -20 -20 -20 -20
-20 -20 -20 -20 -20 -20 -20 -20 -20 -20 -20 -20 6 -20 -16 -1 6 -20 -20 -20 -20 -20 -20 -20 -20 -20 -20 -20 -20 -20 -20 -17 -20 -20 -20 -20 -20 -20 -20 -20 -20 -20 -20
-20 -20 -20 -20 -20 -20 -20 -20 -20 -20 -20 -20 -1 -20 -16 -9 13 -20 -20 -20 -20 -20 -20 -20 -20 -20 -20 -20 -20 -20 -9 -17 -2 -7 -20 -20 -20 -20 -20 -20 -20 -20 -20
-20 -20 -20 -20 -20 -20 -20 -20 -20 -20 -20 -12 18 8 -20 -17 -20 -20 -20 -20 -20 -20 -20 -20 -20 -20 -20 -20 -20 -20 -19 3 5 8 -3 -20 -20 -20 -20 -20 -20 -20 -20
-20 -20 -20 -20 -20 -20 -20 -20 -20 -20 -18 -6 19 12 -20 -20 -20 -20 -20 -20 -20 -20 -20 -20 -20 -20 -20 -20 -20 1 8 10 5 10 5 -6 -20 -20 -20 -20 -20 -20 -20
-20 -20 -20 -20 -20 -20 -20 -20 -20 -20 -20 -20 -20 -20 -20 -20 -20 -20 -20 -20 -20 -20 -20 -20 -20 -20 -20 -20 -20 -20 -20 -17 13 4 8 9 -7 -20 -20 -20 -20 -20 -20
-20 -20 -20 -20 -20 -20 -20 -20 -20 -15 -20 -20 -20 -20 -20 -20 -20 -20 -20 -20 -20 -20 -20 -20 -20 -20 -20 1 -13 12 -20 -20 -20 -20 -10 -20 -20 -20 -20 -20 -20 -20 -20
-20 -20 -20 -20 -20 -20 -20 -20 -20 -20 -20 -20 -20 -20 -20 -20 -20 -20 -20 -20 -20 -20 -20 -20 -5 -14 -7 2 5 -3 -20 -20 -20 -20 -20 -20 -14 -4 -14 9 -19 8 -20
-20 -20 -20 -20 -20 -20 -20 -20 -20 -20 -20 -20 -20 -20 -20 -20 -20 -20 -20 -20 -20 -19 -20 -20 -20 -1 11 6 6 -20 -12 -20 -20 -20 -20 -20 -20 -20 -20 -20 -20 -20 -20
-20 -20 -20 -20 -20 -20 -20 -20 -20 -20 -20 -20 -20 -20 -20 -20 -20 -20 -20 -20 -18 -20 -20 -14 -20 7 6 11 1 1 10 -13 -15 -19 -20 -20 -20 -20 -20 -20 -20 -20 -20
-20 -20 -20 -20 -20 -20 -20 -20 -20 -20 -20 -20 -20 -20 -20 -20 -20 -20 -20 -3 0 -16 -11 -15 2 4 6 4 -10 10 -2 -20 -20 -20 -20 -20 -20 -20 -20 -20 -20 -20 -20
-20 -20 -20 -20 -20 -20 -20 -20 -20 -20 -20 -20 -20 -20 -20 -20 -20 -20 -20 -1 -20 -20 -20 -16 -2 -3 -3 -20 -10 -1 -20 -20 -20 -20 -20 -20 -20 -20 -20 -18 -20 -20 -20
-20 -20 -20 -20 -20 -20 -20 -20 -20 -20 -20 -20 -20 -20 -20 -20 -20 -20 -20 -20 -20 -20 -20 -20 -20 -20 -20 -20 -20 -20 -20 -5 -17 -20 -20 -20 -20 -20 -1 5 8 5 -16
-20 -20 -20 -20 -20 -20 -20 -20 -20 -20 -20 -20 -20 -20 -20 -20 -20 -4 -11 -20 -20 -20 -20 -20 -20 -20 -20 -20 -20 -20 -20 -20 -20 -20 -20 -20 -20 -20 -20 -18 -16 -20 -20
-20 -20 -20 -20 -20 -20 -20 -20 -20 -20 -20 -20 -16 -20 -20 -20 -20 -9 -8 -20 -20 -20 -20 -20 -20 -20 -20 -20 -20 -20 -20 -20 -20 -20 -20 -20 -20 -20 -20 -20 -20 -20 -20
-11 -15 -20 -20 -20 -20 -20 -20 -20 -20 -20 -20 -20 -20 -20 -20 -20 -20 -20 -20 -20 -20 -20 -20 -20 -20 -20 -20 -20 -20 -20 -20 -20 -20 -20 -20 -20 -20 -20 -20 -20 -20 -20
-11 12 -15 -20 -20 -20 -20 -3 3 -7 -20 -20 -20 -20 -20 -20 -20 -20 -20 -20 -20 -20 -20 -20 -20 -20 -20 -20 -20 -20 -20 -20 -20 -20 -20 -20 -20 -20 -20 -20 -20 -20 -20
-16 -20 -19 -20 -20 -20 -20 -20 -19 -13 -20 -20 -20 -20 -20 -20 -20 -20 -20 -20 -20 -20 -20 -20 -20 -20 -20 -20 -20 -20 -20 -20 -20 -20 -20 -20 -20 -20 -20 -20 -20 -20 -20
-18 -2 -3 -20 -20 -20 -18 -20 -20 -4 -6 -20 -20 -20 -20 -20 -20 -20 -20 -20 -20 -20 -20 -20 -20 -20 -20 -20 -20 -20 -20 -20 -20 -20 -20 -20 -20 -20 -20 -20 -20 -20 -20
-14 -20 7 -19 -20 -20 -20 -19 -19 -13 1 -20 -20 -20 -20 -20 -20 -20 -20 -20 -20 -20 -20 -20 -20 -20 -20 -20 -20 -20 -20 -20 -20 -20 -20 -20 -20 -20 -20 -20 -20 -20 -20
-13 -18 -20 -20 -20 -20 -20 -20 -20 -20 -20 -20 -20 -20 -20 -20 -20 -20 -20 -20 -20 -20 -20 -20 -20 -20 -20 -20 -20 -20 -20 -20 -20 -20 -20 -20 -20 -20 -20 -20 -20 -20 -20
-19 -19 -20 -20 -20 -20 -20 -20 -20 -20 -20 -7 1 -20 -20 -20 -20 -20 -20 -20 -20 -20 -20 -20 -20 -20 -20 -20 -20 -20 -20 -20 -20 -20 -20 -20 -20 -20 -20 -20 -20 -20 -20
-19 -18 -20 -20 -20 -20 -20 -20 -20 -20 -20 -20 -20 -20 -20 -20 -20 -20 -20 -20 -20 -20 -20 -20 -20 -20 -20 -20 -20 -20 -20 -20 -20 -20 -20 -20 -20 -20 -20 -20 -20 -20 -20
-19 -18 -19 -20 -20 -20 -20 -20 -20 -20 -20 -20 -20 -20 -20 -20 -20 -20 -20 -20 -20 -20 -20 -20 -20 -20 -20 -20 -20 -20 -20 -20 -20 -20 -20 -20 -20 -20 -20 -20 -20 -20 -20
-20 -20 -18 -19 -20 -20 -20 -20 -20 -20 -20 -20 -11 -20 -20 -20 -20 -20 -20 -20 -20 -20 -20 -20 -20 -20 -20 -20 -20 -20 -20 -20 -20 -20 -20 -20 -20 -20 -20 -20 -20 -20 -20

GFSGL_prec_radar_030.txt.gz
Reflectivity
-20 -20 -20 -20 -20 -20 -20 -20 -20 -20 -20 -20 -20 -20 -20 -20 -20 -11 -20 -20 -20 -20 -20 -20 -20 -20 -20 -20 -20 -20 -20 -20 -20 -20 -20 -20 -20 -20 -20 -20 -20 -20 -20
-20 -20 -20 -20 -20 -20 -20 -20 -20 -20 -20 -20 -20 -20 -20 -20 -20 -20 -18 9 -20 -20 -20 -20 -20 -20 -20 -20 -20 -20 -20 -20 -20 -20 -20 -20 -20 -20 -20 -20 -20 -20 -20
-20 -20 -20 -20 -20 -20 -20 -20 -20 -20 -20 -20 -20 -20 -10 -20 -20 -19 -20 -20 -20 -20 -20 -20 -20 -20 -20 -20 -20 -20 -20 -20 -9 13 4 -20 -20 -20 -20 -20 -20 -20 -20
-20 -20 -20 -20 -20 -20 -20 -20 -20 -20 -20 -20 -20 -20 -10 -20 -20 -20 -20 -20 -20 -20 -20 -20 -20 -20 -20 -20 -11 -18 -20 -5 -5 -2 6 10 -20 -20 -20 -20 -20 -20 -20
-20 -20 -20 -20 -20 -20 -20 -20 -20 -20 -20 -20 -20 -20 -20 -20 -20 -20 -20 -20 -20 -20 -20 -20 -20 -20 5 3 3 -1 -15 -8 6 11 8 9 10 -20 -20 -15 -18 -20 -20
-20 -20 -20 -20 -20 -20 -20 -20 -20 -20 -20 -20 -20 -20 -20 -20 -20 -20 -20 -20 -20 -20 -20 -20 -20 -20 -20 -17 -20 -1 5 6 9 12 8 4 -20 -20 -20 -20 -20 -20 -20
-20 -20 -20 -20 -20 -20 -20 -20 -20 -20 -20 -20 -20 -20 -20 -20 -20 -20 -20 -20 -20 -20 -20 -20 -20 -20 -20 -20 -20 -20 -20 -20 11 4 15 -4 9 -19 -20 -20 -20 -20 -20
-20 -20 -20 -20 -20 -20 -20 -20 -20 -20 -20 -20 -20 -20 -20 -20 -20 -20 -20 -20 -20 -20 -20 -20 -20 -20 -20 -8 -6 8 -7 -20 -20 -20 -20 -20 -20 -20 -12 -0 -20 -20 -20
-20 -20 -20 -20 -20 -20 -20 -20 -20 -20 -19 -20 -20 -20 -20 -20 -20 -20 -20 -20 -20 -20 -20 -20 -2 -3 -20 14 -5 4 -20 -20 -20 -16 9 10 5 -14 -17 12 -15 2 -4
-20 -20 -20 -20 -20 -20 -20 -20 -20 -20 -20 -20 -20 -20 -20 -20 -20 -20 -20 -20 -20 -20 -20 -20 -20 3 8 9 10 -16 -16 5 -20 -19 -20 -20 -20 -20 -20 -20 -20 -14 -14
-20 -20 -20 -20 -20 -20 -20 -20 -20 -20 -20 -20 -20 -20 -20 -20 -20 -20 -20 -20 -18 -11 -20 -20 -20 5 5 6 7 -0 12 -7 -20 -20 -19 -13 -20 -20 -20 -20 -20 -20 -20
-20 -20 -20 -20 -20 -20 -20 -20 -20 -20 -20 -20 -20 -20 -20 -20 -20 -20 -7 -0 -9 -20 -20 -20 -11 1 -0 1 -7 9 -14 -20 -20 -20 -20 -20 -20 -20 -19 2 -15 -20 -20
-20 -20 -20 -20 -20 -20 -20 -20 -20 -20 -20 -20 -20 -20 -20 -20 -20 -20 -20 -2 -20 -20 -20 -20 -20 -20 -20 -20 -18 -18 -20 -20 -20 -20 -20 -20 -20 -20 -20 -20 -20 -20 -20
-20 -20 -20 -20 -20 -20 -20 -20 -20 -20 -20 -20 -20 -20 -20 -20 -20 -20 -20 -20 -20 -20 -20 -20 -20 -20 -20 -20 -20 -20 -20 -20 -20 -20 -20 -20 -20 -20 -10 9 13 13 -3
-20 -20 -20 -20 -20 -20 -20 -20 -20 -20 -20 -20 -20 -20 -20 -20 -20 -20 -19 -20 -20 -20 -20 -20 -20 -20 -20 -20 -20 -20 -20 -20 -20 -20 -20 -20 -20 -20 -20 -20 -20 -20 -2
-20 -20 -14 -14 -18 -20 -20 -20 -20 -20 -20 -20 -9 -20 -20 -20 -20 -20 -20 -20 -20 -20 -20 -20 -20 -20 -20 -20 -20 -20 -20 -20 -20 -20 -20 -20 -20 -20 -20 -20 -20 -20 -20
-20 -20 -20 -13 -20 -20 -20 -20 -20 -15 -20 -20 -20 -20 -20 -20 -20 -20 -20 -20 -20 -20 -20 -20 -20 -20 -20 -20 -20 -20 -20 -20 -20 -20 -20 -20 -20 -20 -20 -20 -20 -20 -20
-20 -20 -20 -20 -20 -20 -20 -20 -20 -20 -16 -20 -20 -20 -20 3 -16 -20 -20 -20 -20 -20 -20 -20 -20 -20 -20 -20 -20 -20 -20 -20 -20 -20 -20 -20 -20 -20 -20 -20 -20 -20 -20
-20 -20 -18 -19 -20 -20 -20 -20 -20 -20 -20 -20 -20 -20 -20 -20 -20 -20 -20 -20 -20 -20 -20 -20 -20 -20 -20 -20 -20 -20 -20 -20 -20 -20 -20 -20 -20 -20 -20 -20 -20 -20 -20
-20 -20 -19 -17 -20 -20 -20 -20 -16 -19 -20 -17 -20 -20 -20 -20 -20 -20 -20 -20 -20 -20 -20 -20 -20 -20 -20 -20 -20 -20 -20 -20 -20 -20 -20 -20 -20 -20 -20 -20 -20 -20 -20
-19 -5 -20 -6 -20 -20 -20 -20 -20 -20 -20 -20 -20 -20 -20 -20 -20 -20 -20 -20 -20 -20 -20 -20 -20 -20 -20 -20 -20 -20 -20 -20 -20 -20 -20 -20 -20 -20 -20 -20 -20 -20 -20
6 1 -20 -15 -20 -20 -20 -20 -20 -20 -20 -20 -20 -20 -20 -20 -20 -20 -20 -20 -20 -20 -20 -20 -20 -20 -20 -20 -20 -20 -20 -20 -20 -20 -20 -20 -20 -20 -20 -20 -20 -20 -20
-20 -8 -20 -19 -19 -20 -20 -20 -20 -20 -20 -20 -20 -20 -20 -20 -20 -20 -20 -20 -20 -20 -20 -20 -20 -20 -20 -20 -20 -20 -20 -20 -20 -20 -20 -20 -20 -20 -20 -20 -20 -20 -20
-20 -11 -20 -19 -19 -20 -20 -20 -20 -20 -20 -20 -20 -20 -20 -20 -20 -20 -20 -20 -20 -20 -20 -20 -20 -20 -20 -20 -20 -20 -20 -20 -20 -20 -20 -20 -20 -20 -20 -20 -20 -20 -20
-18 -15 -20 -19 -18 -9 -8 -20 -20 -20 -20 -20 -20 -20 -20 -20 -20 -20 -20 -20 -20 -20 -20 -20 -20 -20 -20 -20 -20 -20 -20 -20 -20 -20 -20 -20 -20 -20 -20 -20 -20 -20 -20
-13 -11 -6 -17 -18 -20 -20 -20 -20 -20 -20 -20 -20 -20 -20 -20 -20 -20 -20 -20 -20 -20 -20 -20 -20 -20 -20 -20 -20 -20 -20 -20 -20 -20 -20 -20 -20 -20 -20 -20 -20 -20 -20

GFSGL_prec_radar_033.txt.gz
Reflectivity
-13 -18 -20 -20 -20 -20 -20 -20 -20 -20 -20 -20 -20 -20 -20 -20 -14 4 -20 -20 -20 -20 -20 -20 -20 -20 -20 -20 -20 -20 -20 -20 -20 -20 -20 -20 -20 -20 -20 -20 -20 -20 -20
-10 -20 -20 -20 -20 -20 -20 -20 -20 -20 -20 -20 -20 -20 -20 -20 7 -19 -20 -20 -20 -20 -20 -20 -20 -20 -20 -20 -20 -20 -20 -20 3 -17 -20 -13 2 -19 -3 4 -20 -20 -20
-20 -20 -20 -20 -20 -20 -20 -20 -20 -20 -20 -20 -20 -17 -20 -20 -20 -20 -20 -20 -20 -20 -20 -20 -20 -20 -20 -20 -3 -0 2 0 4 3 -1 -20 -8 2 6 5 6 -20 -20
-20 -20 -20 -20 -20 -20 -20 -20 -20 -20 -20 -3 8 -7 -20 -20 -20 -20 -20 -20 -20 -20 -20 -20 -20 -13 -20 -13 1 3 5 9 2 3 -2 0 -1 -6 9 9 9 7 -10
-20 -20 -20 -20 -20 -20 -20 -20 -20 -20 -20 -20 -20 -20 -20 -20 -20 -20 -20 -20 -20 -20 -20 -20 -20 -20 -20 -20 -12 -1 -1 1 5 8 7 3 -1 2 7 9 11 9 9
-20 -20 -20 -20 -20 -20 -20 -20 -20 -20 -20 -20 -20 -20 -20 -20 -20 -20 -20 -20 -20 -20 -20 -20 -20 -20 -20 -20 -20 -20 -7 4 9 10 9 14 9 9 10 10 11 8 11
-20 -20 -20 -20 -20 -20 -20 -20 -20 -20 -20 -20 -20 -20 -20 -20 -20 -20 -20 -20 -20 -20 -20 -20 -20 -20 -16 -1 -18 -14 5 8 9 14 14 11 7 9 9 13 14 11 7
-20 -20 -20 -20 -20 -20 -20 -20 -20 -20 -20 -20 -20 -20 -20 -20 -20 -20 -20 -20 -20 -20 -20 -20 -20 -4 0 1 13 8 7 1 6 15 18 16 12 14 13 11 13 17 13
-20 -20 -20 -20 -20 -20 -20 -20 -20 -20 -20 -20 -20 -20 -20 -20 -20 -20 -20 -20 -20 -20 -20 -20 -5 -4 1 10 10 10 2 -2 -1 -16 -6 1 9 12 10 15 7 19 14
-20 -20 -20 -20 -20 -20 -20 -20 -20 -20 -20 -20 -20 -20 -20 -20 -20 -20 -20 -20 -3 -19 -20 -20 -20 -0 6 8 9 8 7 8 3 3 2 3 15 8 -10 8 9 5 10
-20 -20 -20 -20 -20 -20 -20 -20 -20 -20 -20 -20 -20 -20 -20 -20 -20 -20 -20 -7 -1 -5 -20 -20 -20 -2 -2 -0 2 7 9 -2 3 3 4 4 6 6 12 16 6 5 5
-20 -20 -20 -20 -20 -20 -20 -20 -20 -20 -20 -20 -20 -20 -20 -20 -20 -20 -20 -15 -9 -5 -13 -20 -20 -20 -20 -20 -16 -1 -20 -17 0 2 1 2 1 -1 1 1 2 11 1
-20 -20 -20 -20 -20 -20 -20 -20 -20 -20 -20 -20 -20 -20 -20 -20 -20 -20 -20 -20 -20 -20 -20 -20 -20 -20 -20 -20 -20 -20 -20 -20 -2 0 -1 -3 -3 -2 1 9 10 3 7
-20 -20 -20 -20 -20 -20 -20 -20 -20 -20 -20 -20 -20 -20 -20 -20 -20 -20 -20 -3 -20 -20 -20 -20 -20 -20 -20 -20 -20 -20 -20 -20 -20 -2 -2 -3 -20 -20 -1 4 6 3 10
-20 -20 -20 -20 -20 -20 -20 -20 -20 -20 -20 -20 -20 5 8 2 -20 -20 -12 -0 -13 -20 -20 -20 -20 -20 -20 -20 -20 -20 -20 -20 -20 -20 -5 -20 -20 -20 -3 -3 -12 5 9
-20 -20 -20 -20 -20 -20 -20 -20 -20 -20 -20 -20 -20 -9 9 -20 -20 -20 -20 -20 -20 -20 -20 -20 -20 -20 -20 -20 -20 -20 -20 -20 -20 -20 -20 -20 -20 -8 -3 -2 -20 -5 2
-20 -20 -20 -20 -20 -20 -20 -20 -20 -20 -20 -20 -19 -20 1 -19 -20 -20 -1 -20 -20 -20 -20 -20 -20 -20 -20 -20 -20 -20 -20 -20 -20 -20 -20 -20 -20 -19 -1 -0 -1 -20 -20
-20 -3 -20 -20 -20 -17 -20 -20 -15 -20 -20 -20 -20 -20 -20 -20 -0 9 -20 -20 -20 -20 -20 -20 -20 -20 -20 -20 -20 -20 -20 -20 -20 -20 -20 -20 -20 -8 -2 -14 -1 -20 -20
-20 -20 -20 -20 -20 -18 -19 -20 -20 -15 -20 -20 -20 -20 -20 -20 -20 9 -19 -12 -20 -20 -20 -20 -20 -20 -20 -20 -20 -20 -20 -20 -20 -20 -20 -20 -20 -20 -20 -20 -1 -20 -20
-20 -20 -14 -20 -20 -20 -17 -20 -20 -20 3 5 5 2 -20 -20 -20 -20 -20 -20 -20 -20 -20 -20 -20 -20 -20 -20 -20 -20 -20 -20 -20 -20 -20 -20 -20 -20 -20 -20 -3 -5 -20
-20 -20 -12 1 -20 -20 -17 -20 -20 -20 -20 -2 -1 5 -20 -10 -20 -20 -20 -20 -20 -20 -20 -20 -20 -20 -20 -20 -20 -20 -20 -20 -20 -20 -20 -20 -20 -20 -20 -20 -20 -20 -20
-20 -20 -20 -20 -20 -20 -20 -20 -20 -20 -20 -20 -20 -20 -20 -20 -20 -20 -20 -20 -20 -20 -20 -20 -20 -20 -20 -20 -20 -20 -20 -20 -20 -20 -20 -20 -20 -20 -20 -20 -20 -20 -20
-20 -18 -19 -20 -20 -20 -19 -20 -20 -20 -20 -20 -20 -20 -20 -20 -20 -20 -20 -20 -20 -20 -20 -20 -20 -20 -20 -20 -20 -20 -20 -20 -20 -20 -20 -20 -20 -20 -20 -20 -20 -20 -20
-20 -20 -20 -20 -17 -20 -20 -20 -20 -20 -20 -20 -20 -20 -20 -20 -20 -20 -20 -20 -20 -20 -20 -20 -20 -20 -20 -20 -20 -20 -20 -20 -20 -20 -20 -20 -20 -20 -20 -20 -20 -20 -20
-17 8 10 13 -14 -16 -20 -20 -20 -20 -20 -20 -20 -19 -20 -20 -20 -20 -20 -20 -20 -20 -20 -20 -20 -20 -20 -20 -20 -20 -20 -20 -20 -20 -20 -20 -20 -20 -20 -20 -20 -20 -20
7 8 7 4 5 13 10 10 1 -16 -20 2 -1 -20 -7 -4 -20 -20 -20 -20 -20 -20 -20 -20 -20 -20 -20 -20 -20 -20 -20 -20 -20 -20 -20 -20 -20 -20 -20 -20 -20 -20 -20

GFSGL_prec_radar_036.txt.gz
Reflectivity
-20 -20 -18 -20 -20 -20 -20 -20 -20 -20 -20 -20 -20 -20 -20 -20 0 7 -15 13 4 -20 -20 4 -19 -20 -20 -20 -20 -20 -20 -15 -1 -20 -20 -20 -20 -20 -20 -19 -20 -20 -20
-13 -13 -20 -20 -20 -20 -20 -20 -20 -20 -20 -20 -20 -20 -13 -20 4 2 -19 1 -11 3 4 -19 -20 -20 -20 -20 -20 -20 -20 -20 -3 -2 -20 -20 -20 -20 -20 -20 -17 -20 -20
-16 -20 -20 -20 -20 -20 -20 -20 -20 -20 -20 -20 -20 -20 -20 3 7 1 -20 1 -5 -20 -16 1 -20 -20 -20 -20 -20 -20 -20 -19 3 -13 -1 -17 -20 -20 -20 -20 -3 -14 -19
-20 -20 -20 -20 -20 -20 -20 -20 -20 -20 -20 -20 -20 -5 -7 -3 -12 -12 -20 -10 0 -17 -20 -20 -20 -20 -20 -20 -20 -20 -20 -3 -9 6 1 -3 -5 -13 -17 -1 -10 -0 -4
-20 -20 -20 -20 -20 -20 -20 -20 -20 -20 -20 -20 -20 -1 -15 -20 -20 -20 -15 -20 -14 -20 -20 -20 -20 -20 -20 -20 -20 -12 -2 -0 5 4 5 4 1 5 9 -13 3 -10 -16
-20 -20 -20 -20 -20 -20 -20 -20 -20 -20 -20 0 2 3 -20 -20 -20 -20 -20 -20 -20 -20 -20 -20 -20 -20 -20 -20 -13 -2 -19 6 9 0 1 9 11 12 -16 12 17 17 -1
-20 -20 -20 -20 -20 -20 -20 -20 -20 -20 -18 1 3 6 -20 -20 -20 -20 -20 -20 -20 -20 -20 -20 -20 -20 -20 -17 -18 -20 -17 -11 -11 8 12 14 10 18 16 18 -4 15 16
-20 -20 -20 -20 -20 -20 -20 -20 -20 -20 -20 1 -1 4 -20 -20 -20 -20 -20 -20 -20 -20 -20 -20 -20 -20 -20 -10 4 6 7 7 5 6 12 9 1 4 16 19 18 15 -4
-20 -20 -20 -20 -20 -20 -20 -20 -20 -20 -20 5 10 8 -20 -20 -20 -20 -20 -20 -20 -20 -20 -20 -20 -20 -20 -8 6 8 7 2 2 -20 -20 -9 -20 -20 -14 8 7 14 16
-15 -20 -20 -20 -20 -20 -20 -20 -20 -20 -12 -18 8 2 -20 -20 -20 -20 -20 -20 -2 -20 -20 -20 -20 -20 -20 -0 3 4 8 5 0 -16 -15 6 -18 14 -19 7 13 16 12
-10 -20 -20 -20 -20 -20 -20 -20 -20 -20 -20 2 -14 -20 -20 -20 -20 -20 -20 -20 -3 -14 -20 -20 -20 -20 -20 -20 -20 -2 2 -4 1 1 3 5 7 7 8 14 20 20 17
-20 -20 -20 -20 -20 -20 -20 -20 -20 -20 -20 -1 -13 5 1 2 -20 -20 -20 -20 -20 -2 -20 -20 -20 -20 -20 -20 -20 -20 -20 -16 3 4 7 6 7 6 5 7 12 5 14
-20 -20 -20 -20 -20 -20 -20 -20 -7 -20 -8 1 -9 1 3 -20 -19 -20 -20 -20 -20 -3 -20 -20 -20 -20 -20 -20 -20 -20 -20 -20 -2 5 3 3 1 4 6 13 18 19 9
-20 -20 -20 -20 -20 -20 -20 -20 -5 -19 -16 -20 -11 -8 -0 -20 -19 -20 -20 -18 -19 -8 -17 -20 -20 -20 -20 -20 -20 -20 -20 -20 -20 2 3 2 1 1 6 8 11 11 18
-20 -20 -20 -20 -20 -14 -20 -5 -13 -20 -19 -4 -5 -7 4 8 7 -6 -7 0 2 -6 -20 -19 -20 -20 -20 -20 -20 -20 -20 -20 -20 -3 2 3 -0 1 -2 4 4 3 12
-20 -20 -20 -20 -4 -8 -1 -9 -20 -20 -20 -20 -20 -20 1 2 -20 -20 -20 -20 -20 -20 -20 -8 -2 2 -20 -20 -20 -20 -20 -20 -20 -20 -6 -1 2 2 2 4 1 3 6
-20 -20 -15 -20 -20 -4 5 9 -10 -11 -20 -20 -20 -20 -20 -19 -11 -20 -20 -20 -20 -20 -1 3 4 2 1 -20 -20 -20 -20 -20 -20 -20 -20 -15 -4 -2 1 4 4 -2 -2
-20 -20 -11 0 6 4 8 12 10 3 4 -1 -15 -20 -20 -20 -20 -4 -14 -17 4 -14 -20 2 4 2 -20 -20 -20 -20 -20 -20 -20 -20 -20 -20 -9 -9 1 0 3 2 -0
-20 -20 -14 5 1 -11 -8 11 13 0 -10 1 2 -6 -10 -20 -20 -20 -2 12 -4 0 -1 -0 1 1 -10 -20 -20 -20 -20 -20 -20 -20 -20 -20 -14 -20 -20 -9 1 -3 -18
-20 -20 -20 -3 3 9 -15 6 11 6 -2 -20 -10 -11 3 -20 9 10 11 13 10 4 -1 -1 0 0 1 0 -1 -1 -20 -20 -20 -20 -20 -20 -16 -16 -20 -18 -6 -6 -17
-20 -20 -20 -19 -0 -1 -0 9 13 13 6 -1 4 -4 -4 2 7 11 12 15 7 2 6 -15 -0 -8 -5 2 -10 -2 -20 -14 -20 -20 -20 -20 -20 -20 -20 -20 -20 -20 -20
-6 -1 0 3 10 13 -8 3 13 14 10 6 3 -14 -20 -5 4 6 9 11 12 10 6 8 2 0 1 -1 -2 1 -1 -18 -9 -20 -20 -20 -20 -20 -20 -20 -20 -20 -20
4 6 2 -8 7 17 13 -12 -4 14 10 10 3 4 5 10 7 -1 7 10 9 13 10 2 -1 0 -1 0 0 -2 -12 -17 -1 -20 -20 -20 -20 -20 -20 -20 -20 -20 -20
3 2 -3 7 5 10 12 13 6 -3 13 13 15 9 8 7 9 6 4 5 13 9 10 -3 -2 -0 -2 -0 0 0 -20 -20 -7 -20 -20 -20 -20 -20 -20 -20 -20 -20 -20
9 13 14 13 10 11 10 14 14 13 10 13 15 14 13 14 13 11 9 8 3 8 8 1 -2 -2 -20 -20 -20 -4 -20 -20 -20 -20 -20 -20 -20 -20 -20 -20 -20 -20 -20
15 12 13 14 12 14 15 15 12 13 11 12 12 13 13 13 13 13 10 10 10 5 5 5 -7 -20 -20 -20 -20 -20 -20 -20 -20 -20 -20 -20 -20 -20 -20 -20 -20 -20 -20

GFSGL_prec_radar_039.txt.gz
Reflectivity
-20 -20 -17 21 -15 -20 -20 -20 -20 -20 -20 -20 -20 -20 -20 -20 -20 -20 -0 11 4 3 -12 7 -11 -20 -20 -13 -20 -20 -20 -20 6 -20 -20 -20 -20 -20 -20 -20 -20 -20 -20
-20 -20 20 -12 -20 -20 -20 -20 -20 -20 -20 -20 -20 -20 -20 -20 -20 -20 -20 -19 -20 -20 -20 -20 -20 -20 -20 -20 -20 -20 -20 -20 -20 -20 -20 -20 -20 -20 -20 -20 -20 -20 -20
-20 10 -1 -20 -20 -20 -20 -20 -20 -20 -20 -20 -20 -20 -20 -20 -20 -16 -20 6 -20 -20 -20 -20 -20 -20 -20 -20 -20 -20 -20 -20 -20 -16 -15 -20 -17 -20 -20 -20 -20 -14 -20
-18 12 -20 -20 -20 -20 -20 -20 -20 -20 -20 -20 -20 -20 -20 -20 -14 -9 -20 -20 -20 -20 -20 -20 -20 -20 -20 -20 -20 -20 -20 -20 -20 -19 -18 -13 -20 -20 -4 7 6 -20 -9
5 -14 -20 -20 -20 -20 -20 -20 -20 -20 -20 -20 -16 -20 -20 -20 -20 -20 -20 -20 -20 -20 -20 -20 -20 -20 -20 -20 -20 -20 -10 -5 -2 2 1 6 11 -12 -7 1 14 12 -20
-18 -6 -20 -20 -20 -20 -20 -20 -20 -20 -20 -20 -20 -11 -20 -19 -20 -20 -20 -20 -20 -20 -20 -20 -20 -20 -20 -20 -20 -20 -19 1 7 16 13 11 6 8 15 18 18 15 13
7 -20 -20 -20 -20 -20 -20 -20 -20 -20 -20 -20 -20 -20 -1 2 -20 -20 -20 -20 -20 -20 -20 -20 -20 -20 -20 -20 -20 -20 -9 -4 -0 11 14 15 13 10 2 -1 8 18 17
-20 -20 -20 -18 -3 -20 -20 -18 -20 -20 -20 -20 -11 -20 -20 -14 -20 -20 -20 -20 -20 -20 -20 -20 -20 -20 -20 -20 -20 -8 -1 -11 -3 3 9 -8 -12 -20 -6 -3 12 16 -3
-14 -20 -4 1 -14 -11 -4 -20 -20 -20 -20 -20 0 -20 10 6 -20 -20 -20 -20 -20 -20 -20 -20 -20 -20 -20 -20 -20 -3 -18 -20 -10 -14 -20 -20 -14 -20 -20 8 14 16 14
-19 13 2 -8 -6 -6 -20 -20 -20 -20 -20 -20 -20 3 -10 4 -20 -20 -20 -20 -15 -16 -20 -20 -20 -20 -20 -20 -20 -18 -18 -9 -20 -20 -18 -8 -11 9 6 3 17 20 15
19 8 5 3 -12 -8 -6 -15 -20 -20 -20 -20 -20 -8 -18 -20 -6 -20 -20 -20 -16 -17 -20 -20 -20 -20 -20 -20 -20 -20 -2 -20 -20 1 -4 6 7 7 9 5 9 15 16
-2 -3 -1 -6 -11 -17 -20 -20 -20 -20 -20 -20 2 -20 -18 -20 -20 -14 -20 -20 -20 -20 -4 -18 -20 -20 -20 -20 -20 -20 -20 -20 -9 -7 7 7 4 -12 -12 5 14 18 15
6 8 6 4 -3 -12 -20 -20 -20 -20 -19 -18 0 6 -17 5 6 -20 -20 -20 -20 -14 -6 -7 -20 -20 -20 -20 -20 -20 -20 -20 -20 -4 5 4 3 5 1 9 6 5 11
7 7 2 -11 -20 -20 -20 -20 -20 -20 -8 -1 -4 -20 -17 -17 -2 9 -5 -19 -20 -11 -16 -0 -20 -20 -20 -20 -20 -20 -20 -20 -20 -20 -4 3 4 5 0 5 6 8 10
10 -2 -13 -20 -20 -20 -20 -20 -20 -20 -0 4 -4 -8 11 8 -6 -3 0 6 7 2 -20 -20 -11 -4 -0 -2 -20 -20 -20 -20 -20 -20 -16 -15 -15 -11 4 -10 6 -7 -0
-6 -13 -20 -20 -20 -20 -20 -20 -20 -20 -20 -20 -20 -20 -20 -20 -20 -20 -20 -20 -20 -20 -20 -3 -0 6 5 3 -1 -20 -20 -20 -20 -20 -20 -20 -20 -20 -17 5 4 3 5
-20 -20 -20 -20 -20 -20 -19 7 6 -20 -20 -20 -20 -20 -20 -20 -20 -0 -19 -20 -20 -12 -4 1 5 5 5 1 -2 -20 -20 -20 -20 -20 -20 -9 -20 -19 -16 -1 2 5 0
-20 -20 -20 -20 -20 -14 -3 7 7 12 13 14 -15 -20 -20 -20 -20 -20 -18 1 10 -4 -6 0 1 5 5 -1 -6 -20 -16 -2 -0 -20 -15 -1 1 -14 -6 -6 -5 -20 -11
-20 -20 -20 -20 -20 -10 -12 -3 -20 5 10 12 -2 -17 -20 -20 -20 -20 -20 9 9 13 9 10 10 5 1 -0 -2 -9 -11 -0 -0 -5 -2 -2 1 0 -3 -20 -3 -3 -20
-20 -20 -19 -16 -20 -20 -9 -6 9 10 11 12 12 -12 -20 -1 10 8 4 0 3 1 10 4 -2 4 3 1 4 3 4 -7 0 1 -20 -12 1 -1 -2 -20 -18 -20 -18
-9 -1 -11 -20 16 12 8 5 -6 7 10 12 14 10 -20 -19 -13 8 14 15 10 9 9 -7 11 9 8 6 2 0 -2 -1 1 -2 -2 -4 -7 -2 -4 -13 -20 -20 -20
2 14 13 8 15 15 10 12 18 8 14 12 13 14 -18 -20 -3 -2 4 4 -2 13 12 -12 7 10 7 4 2 3 2 4 -11 0 -1 -20 -5 -3 2 -2 -5 -20 -20
-3 -14 -8 7 8 -17 -7 -3 8 23 12 3 11 14 16 16 8 3 -18 -20 -12 5 5 8 6 3 10 1 -1 -1 1 -2 -18 2 -3 -20 -3 -1 -3 -1 -1 -10 -20
10 -20 -1 15 11 16 14 10 17 13 16 11 11 12 14 16 15 10 5 5 1 -2 9 9 5 -19 -18 10 -12 -20 -19 -17 -20 -5 -20 -20 -20 -4 -6 -20 -10 -18 -20
24 20 17 12 12 14 12 13 12 14 11 15 15 12 11 14 15 15 12 13 3 7 1 13 3 -15 -20 3 -20 -20 -20 -20 -20 -20 -20 -20 -20 -20 -20 -20 -20 -20 -20
11 19 10 16 14 13 13 8 9 13 12 19 17 18 15 -7 5 -20 9 12 8 10 -2 5 6 -20 -20 -20 -19 -19 -20 -20 -20 -20 -20 -20 -20 -20 -17 -20 -20 -20 -13

GFSGL_prec_radar_042.txt.gz
Reflectivity
-20 -20 -20 -20 -16 -10 9 8 -19 -20 -20 -20 -20 -20 -20 -20 -20 -20 -20 -20 -20 -20 -20 -20 -20 -20 -20 -11 -20 -15 -20 -20 -20 -20 -20 -20 -20 -20 -20 -20 -20 -20 -20
-20 -20 -20 -20 3 -15 4 -8 -20 -20 -20 -20 -20 -20 -20 -20 -20 -20 -20 -20 -20 -20 -20 -20 -20 -20 -20 -20 -20 -20 -20 -20 -20 -20 -20 -20 -20 -20 -20 -20 -20 -20 -20
-20 -20 -20 -10 -6 -11 12 -20 -20 -20 -20 -20 -20 -20 -20 -20 -20 -20 -20 -4 -12 -20 -20 -20 -20 -20 -20 -20 -20 -20 -20 -20 -20 -20 -20 -20 -20 -20 -20 -20 -20 -20 -20
-20 -20 -20 -10 12 -17 -17 -20 -20 -20 -20 -20 -20 -20 -20 -20 -20 -15 -9 -20 -20 -20 -20 -20 -20 -20 -20 -20 -20 -20 -20 -20 -20 -20 -20 -20 -20 -20 -7 -0 -1 -20 -20
-20 -20 -14 9 -9 3 -19 -20 -20 -20 -20 -20 -20 -20 -20 -20 -20 -20 -20 -20 -20 -20 -20 -20 -20 -20 -20 -20 -20 -20 -20 -20 -20 -20 -20 -20 -4 -20 -20 -1 -3 -20 -20
-20 -19 -8 1 -16 6 -19 -20 -14 -20 -20 -20 -20 -20 -20 -13 -20 -20 -20 -20 -20 -20 -20 -20 -20 -20 -20 -20 -20 -20 -20 -20 -20 -7 -2 -11 -20 -5 3 -20 -7 -20 -11
-20 -17 -11 -0 3 -14 -20 -19 -20 -17 -18 -18 -20 -20 -19 -20 -14 -20 -20 -20 -20 -20 -20 -20 -20 -20 -20 -20 -20 -20 -20 -20 -8 -0 -1 7 -8 -20 -20 -20 -20 -20 -20
-17 -14 7 12 -7 -20 7 8 -3 -20 -20 -16 -19 -20 -18 -14 -20 -20 -20 -20 -20 -20 -20 -20 -20 -20 -20 -20 -20 -20 -20 -20 -20 -20 -10 -20 -20 -20 -20 -20 -20 -20 -20
1 12 8 -17 -7 14 3 -6 3 -0 -4 -20 -20 -20 -20 -20 -20 -20 -20 -20 -20 -20 -20 -20 -20 -20 -20 -20 -20 -20 -20 -20 -20 -20 -20 -20 -20 -7 -1 -0 -18 -14 -15
10 7 14 16 -3 3 9 4 4 -4 -19 -20 -20 -20 -20 -20 -20 -20 -20 -20 -20 -20 -20 -20 -20 -20 -20 -20 -20 -20 -20 -20 -20 -20 -20 -20 -20 -19 11 7 8 9 -14
4 14 21 19 16 16 16 12 4 -15 -16 -12 -20 -20 -20 -20 -20 -20 -20 -20 -20 -20 -20 -20 -20 -20 -20 -20 -20 -20 -20 -20 -20 -20 -20 -20 -2 -7 -20 -20 -20 2 11
-10 23 19 16 18 13 1 -15 -18 -19 -5 -20 -20 -20 -20 -20 -20 -20 -20 -20 -20 -20 -20 -20 -20 -20 -20 -20 -20 -20 -20 -20 -20 -20 -20 -14 -20 -20 -4 -20 -20 -15 -20
8 10 16 9 -2 -7 -19 -20 -17 -20 -20 -20 -20 -20 -20 -20 2 -17 -15 -20 -20 -20 -20 -20 -20 -20 -20 -20 -20 -20 -20 -20 -20 -20 -20 -20 -20 -18 -8 -19 -20 -20 -20
6 -5 -10 -8 -11 -20 -20 -19 -20 -20 -20 -20 -20 -20 -20 -20 -19 -20 -20 -20 -20 -20 -20 -20 -20 -20 -20 -20 -20 -20 -20 -20 -20 -20 -20 -20 -20 -20 -20 -20 -20 -20 -20
-20 -20 -20 -19 -20 -16 -16 -20 -20 -20 -20 -20 -20 -20 5 -20 -15 -19 -20 -10 13 6 -18 -20 -20 -20 -10 -20 -20 -20 -20 -20 -20 -20 -20 -20 -20 -20 -20 -20 -14 -20 -19
-20 -20 -20 -20 -20 -20 -20 -20 -20 -20 -20 -20 -20 -20 -20 -20 -20 -20 -20 -20 -20 -20 -20 -20 -20 -20 7 -20 -20 -20 -20 -20 -20 -20 -20 -20 -16 -20 -20 -20 -2 4 -20
-20 -20 -20 -20 -20 -20 -20 -20 -20 -20 -20 -20 -20 -20 -19 -20 -20 -20 -20 -20 1 -20 -20 -20 -20 -20 -2 -20 -20 -20 -20 -20 -20 -20 -20 -15 -20 -20 -20 -20 -20 -8 -20
-20 -20 -20 -20 -20 -12 -20 -20 -20 -20 -20 -20 -20 -20 -17 -19 -20 -20 -20 -20 2 4 -19 -20 -20 -9 2 -8 -20 -20 -20 -20 -20 -20 -20 -20 -20 -20 -20 -20 -20 -20 -20
-20 -20 -20 -20 -12 -20 -20 -20 -20 -20 -20 -20 -20 -20 -20 -20 -20 -20 -19 -20 -20 -20 -6 -19 -20 -20 -20 -20 -20 -20 -20 -20 -20 -20 -20 -20 -20 -20 -20 -14 -20 -20 -20
-20 -20 -16 -8 13 11 10 0 2 2 -20 -20 -20 -12 -1 -4 -20 -20 -20 -20 -20 -20 -20 -19 -10 -1 1 1 -20 -20 -20 -20 -20 -20 -20 -20 -20 -20 -20 -20 -20 -20 -20
5 4 1 14 17 10 9 16 15 16 9 1 -20 -20 -2 12 -15 -20 -8 -4 -19 -20 -20 -20 -20 -20 -20 -4 -20 -20 -19 -14 -20 -20 -20 -20 -20 -20 -19 -20 -20 -20 -20
-8 1 4 13 1 -5 7 -1 -20 -20 -20 -20 6 13 2 11 7 -20 -20 -18 -6 2 5 -11 -20 -20 -20 -20 -20 -20 -20 -20 -18 -20 -20 -20 -20 -20 -20 -20 -20 -20 -20
-4 12 4 9 -19 -8 -14 -20 -3 -1 2 -14 3 -20 -20 -10 13 -2 -20 -20 -18 -16 -20 -13 3 -20 -20 -20 -20 -20 -20 -20 -20 -20 -20 -20 -20 -20 -20 -20 -20 -20 -20
-20 -20 -14 -19 25 14 1 7 -16 -20 -1 -18 -18 10 14 2 6 9 17 11 -8 -19 -20 -20 -2 5 -20 -13 -20 -20 -20 -20 -20 -20 -20 -20 -20 -20 -20 -20 -20 -20 -20
3 -1 5 -3 7 24 25 10 3 -7 -1 2 14 14 18 15 8 12 10 -17 -19 -3 7 -6 -20 -9 -20 -16 -14 -20 -20 -20 -20 -20 -20 -20 -20 -20 -20 -20 -20 -20 -20
7 10 10 6 16 23 -1 -7 -20 -12 -16 -18 -12 -6 -5 -4 1 4 9 5 7 -6 -19 3 -4 -20 -20 -3 8 -20 -20 -20 -20 -20 -20 -20 -20 -20 -20 -20 -20 -20 -20

GFSGL_prec_radar_045.txt.gz
Reflectivity
-20 -20 -20 -20 -17 -5 -11 -17 -10 30 11 -19 -20 -20 -20 -20 -20 -20 -20 -20 -20 -20 -20 -20 -20 -20 -20 -20 -20 -20 -20 -20 -20 -20 -20 -20 -20 -20 -20 -20 -20 -20 -20
-16 -20 -20 -12 6 -9 -8 -7 -17 14 -19 -20 -20 -20 -20 -20 -20 -20 -20 -20 -20 -20 -20 -20 -20 -20 -20 -20 -20 -20 -20 -20 -20 -20 -20 -20 -20 -20 -20 -20 -20 -20 -20
-14 -12 7 19 -4 -8 -20 1 -11 -19 -20 -20 -11 -2 -20 -20 -20 -20 -20 -20 -20 -20 -20 -20 -20 -20 -20 -20 -20 -20 -20 -20 -20 -20 -20 -20 -20 -20 -20 -20 -20 -20 -20
6 -4 -5 -8 -10 -17 3 -16 0 -4 -9 -15 11 -20 -20 -20 -20 -18 -20 -20 -20 -20 -20 -20 -20 -20 -20 -20 -20 -20 -20 -20 -20 -20 -20 -20 -20 -20 -20 -20 -8 -20 -20
-20 -13 -0 -17 -17 -2 -12 20 -20 -18 -14 7 -20 -14 -20 -10 -20 -20 -20 -20 -20 -20 -20 -20 -20 -20 -20 -20 -20 -20 -20 -20 -20 -20 -20 -20 -20 -20 -17 11 -20 -20 -20
-20 -20 -20 -19 -10 -11 22 -19 8 11 20 -8 -1 -11 -9 -20 -20 -20 -20 -20 -20 -20 -20 -20 -20 -20 -20 -20 -20 -20 -20 -20 -20 -20 -20 -20 -20 1 -20 -20 -20 -20 -20
-20 -20 -20 -20 -20 17 -17 2 12 10 -10 6 0 -4 -15 -20 -20 -20 -20 -20 -20 -20 -20 -20 -20 -20 -20 -20 -20 -20 -20 -20 -20 -20 -20 -12 -20 -20 -20 -20 -20 -20 -20
-20 -20 -20 -20 -7 12 5 8 14 19 15 6 -8 -9 1 -7 -18 -20 -20 -20 -20 -20 -20 -20 -20 -20 -20 -20 -20 -20 -20 -20 -20 -20 -20 -20 -20 -20 3 -10 -20 -19 -20
-20 -20 -18 14 17 13 10 13 8 3 -10 -5 -4 -7 -18 -20 -20 -20 -20 -20 -20 -20 -20 -20 -20 -20 -20 -20 -20 -20 -20 -20 -20 -20 -20 -20 -20 -20 -12 -5 -2 -0 -20
-20 -20 6 3 25 20 5 7 -18 -20 -16 -20 -20 -20 -20 -20 -20 -20 -20 -20 -20 -20 -20 -20 -20 -20 -20 -20 -20 -20 -20 -20 -20 -20 -20 -20 -20 -20 -20 -20 -20 -20 -20
3 13 19 14 7 -6 -20 -20 -20 -20 -20 -20 -20 -20 -20 -20 -20 -20 -20 -20 -20 -20 -20 -20 -20 -20 -20 -20 -20 -20 -20 -20 -20 -20 -20 -20 -20 -20 -20 -20 -20 -20 2
21 8 -8 -20 -19 -20 -20 -20 -20 -20 -20 -20 -20 -20 -20 -20 -20 -20 -20 -20 -20 -20 -20 -20 -20 -20 -20 -20 -20 -20 -20 -20 -20 -20 -20 -20 -20 -20 -20 -20 -20 -20 -20
-20 -20 -20 -20 -20 -20 -20 -20 -20 -20 -20 -20 -20 -20 -20 -20 -20 -20 -20 -20 -20 -20 -20 -20 -20 -20 -20 -20 -20 -20 -20 -20 -20 -20 -20 -20 -20 -20 -20 -20 -20 -20 -20
-20 -20 -20 -20 -20 -20 -20 -20 -20 -20 -20 -20 -20 -20 -20 -20 -20 -20 -20 -20 -20 -20 -20 -20 -20 -20 -20 -20 -20 -20 -20 -20 -20 -20 -20 -20 -20 -20 -20 -20 -20 -20 -20
-20 -20 -20 -20 -20 -20 -20 -20 -20 -20 -20 -20 -20 -20 -20 -20 -20 -20 -20 -20 -20 -20 -20 -20 -18 -20 -20 -20 -20 -20 -20 -20 -20 -20 -20 -20 -20 -20 -20 -20 -20 -20 -20
-20 -20 -20 -20 -20 -20 -20 -20 -20 -20 -20 -20 -20 -20 -20 -20 -20 -19 -20 -20 -20 -20 -19 -20 -20 -20 -20 -20 -20 -20 -20 -20 -20 -20 -20 -20 -20 -20 -20 -20 -20 -20 -20
-20 -20 -20 -20 -20 -20 -20 -20 -20 -20 -20 -20 -20 -20 -20 -20 -20 -9 -18 -20 -20 -20 -20 -20 -20 -20 -20 -20 -20 -20 -20 -20 -20 -20 -20 -20 -20 -20 -20 -20 -20 -20 -20
-20 -20 -20 -20 -20 -20 -20 -20 -20 -20 -20 -20 -20 -20 -20 -20 -20 -20 -18 -2 7 -8 -20 -20 -20 -20 -20 -20 -20 -20 -20 -20 -20 -20 -20 -20 -20 -20 -20 -20 -20 -20 -20
-20 -20 -20 -20 -20 -6 6 12 9 17 14 -20 -20 -20 -20 -20 -20 -20 -20 10 -20 -20 -20 -20 -20 -20 -20 -20 -20 -20 -20 -20 -20 -20 -20 -20 -20 -20 -20 -20 -20 -20 -20
-20 -17 -12 -12 -20 -20 -15 10 17 19 -2 7 -5 -10 -19 -20 -20 -20 -20 -3 -5 -20 -20 -20 -20 -20 -20 -9 -15 -20 -20 -20 -20 -20 -20 -20 -20 -20 -20 -20 -20 -20 -20
-20 -20 -20 -20 -17 7 3 7 17 9 -3 -19 -20 -20 -20 -20 5 10 -20 -20 -1 -20 -20 -20 -20 -20 -20 -20 -20 -20 -20 -20 -20 -20 -20 -20 -20 -20 -20 -20 -20 -20 -20
-20 -20 -20 -20 -20 -20 -20 -20 9 15 3 -20 -20 -20 -20 -20 -8 -20 -20 -20 -4 4 -16 -20 -20 -20 -20 -20 -20 -20 -20 -20 -20 -20 -20 -20 -20 -20 -20 -20 -20 -20 -20
-20 -20 -20 -20 -19 -13 -15 -3 5 24 -4 -20 -20 -9 -20 -20 -20 -19 -19 -20 -9 5 -13 10 8 -14 -20 -20 -20 -20 -20 -20 -20 -20 -20 -20 -20 -20 -20 -20 -20 -20 -20
-17 3 -3 2 -2 -3 -16 -9 -3 17 23 -20 -20 -4 -6 2 13 16 -16 -16 -8 -10 1 2 -0 -9 -7 -20 -20 -20 -20 -20 -20 -20 -20 -20 -20 -20 -20 -20 -20 -20 -20
-19 -18 -1 -18 -9 5 -3 4 22 17 9 1 -20 -20 -20 -20 -20 -13 -0 13 17 -5 6 8 -3 -18 -20 -5 -3 -20 -20 -12 -20 -20 -20 -20 -20 -20 -20 -20 -20 -20 -20
-20 -6 -20 -20 -20 -20 -1 -15 9 12 6 -16 -20 -20 -20 -4 -20 -11 -20 -20 -20 -19 1 2 -19 4 -20 -20 -2 -17 -6 8 -19 -20 -20 -20 -20 -20 -20 -20 -20 -20 -20

GFSGL_prec_radar_048.txt.gz
Reflectivity
-19 9 12 -7 -9 16 9 -18 24 31 -5 2 17 -20 -20 -20 -20 -20 -20 -20 -20 -20 -20 -20 -20 -20 -20 -20 -20 -20 -20 -20 -20 -20 -20 -20 -20 -20 -20 -20 -20 -20 -20
-20 -20 -18 -20 -8 10 18 26 27 12 1 23 -10 -20 -20 -20 -20 -20 -20 -20 -20 -20 -20 -20 -20 -20 -20 -20 -20 -20 -20 -20 -20 -20 -20 -20 -20 -20 -20 -20 -20 -20 -20
-20 -20 -19 20 -0 32 -5 -17 16 -11 -1 -19 -20 -20 -20 -20 -20 -19 -11 -20 -20 -20 -20 -20 -20 -20 -20 -20 -20 -20 -20 -20 -20 -20 -20 -20 -20 -20 -20 -20 -20 -20 -20
-20 18 22 -3 8 -16 -8 19 -9 -20 -20 -20 -20 -20 -20 -20 -8 -18 -20 -20 -20 -20 -20 -20 -20 -20 -20 -20 -20 -20 -20 -20 -20 -20 -20 -20 -20 -20 -20 -20 -12 -20 -20
18 -14 -3 4 -20 -20 -11 -5 -0 -20 -20 -20 -20 -1 -4 -18 -20 -20 -20 -20 -20 -20 -20 -20 -20 -20 -20 -20 -20 -20 -20 -20 -20 -20 -20 -20 -20 -20 -20 -7 -20 -20 -20
16 -9 7 -20 -20 -18 -18 1 -20 -2 -6 12 15 -4 -20 -20 -20 -20 -20 -20 -20 -20 -20 -20 -20 -20 -20 -20 -20 -20 -20 -20 -20 -20 -20 -20 -20 -20 -20 -20 -20 -20 -20
5 1 3 -20 -20 -20 -20 -20 -10 10 15 -2 -20 -19 -20 -20 -20 -20 -20 -20 -20 -20 -20 -20 -20 -20 -20 -20 -20 -20 -20 -20 -20 -20 -20 -20 -20 -20 -20 -20 -20 -20 -20
-20 -20 -20 -20 -20 -20 -20 11 29 -1 -10 -19 -20 -20 -20 -20 -20 -20 -20 -20 -20 -20 -20 -20 -20 -20 -20 -20 -20 -20 -20 -20 -20 -20 -20 -20 -20 -17 1 -3 7 6 -20
-20 -20 -20 -6 -20 7 35 19 9 -18 -20 -20 -20 -20 -20 -20 -20 -20 -20 -20 -20 -20 -20 -20 -20 -20 -20 -20 -20 -20 -20 -20 -20 -20 -20 -20 -20 -20 -17 -2 -20 -20 -20
-20 -20 -20 -12 29 13 2 -18 -20 -20 -20 -20 -20 -20 -20 -20 -20 -20 -20 -20 -20 -20 -20 -20 -20 -20 -20 -20 -20 -20 -20 -20 -20 -20 -20 -20 -20 -20 -20 -20 -20 -18 -0
-13 4 32 17 -20 -20 -20 -20 -20 -20 -20 -20 -20 -20 -20 -20 -20 -20 -20 -20 -20 -20 -20 -20 -20 -20 -20 -20 -20 -20 -20 -20 -20 -20 -20 -20 -20 -20 -20 -20 -20 -20 -10
10 -9 -16 -20 -20 -20 -20 -20 -20 -20 -20 -20 -20 -20 -20 -20 -20 -20 -20 -20 -20 -20 -20 -20 -19 -20 -20 -20 -20 -20 -20 -20 -20 -20 -20 -20 -20 -20 -20 -20 -20 -20 -20
-20 -20 -20 -20 -20 -20 -20 -20 -20 -20 -20 -20 -20 -20 -20 -20 -20 -20 -20 -20 -20 -20 -20 -20 -20 -20 -20 -20 -20 -20 -20 -20 -20 -20 -20 -20 -20 -20 -20 -20 -20 -20 -20
-20 -20 -20 -20 -20 -20 -20 -20 -20 -20 -20 -20 -20 -20 -20 -20 -20 -20 -20 -0 -17 -20 -20 -20 -20 -20 -20 -20 -20 -20 -20 -20 -20 -20 -20 -20 -20 -20 -20 -20 -20 -20 -20
-20 -20 -20 -20 -20 -20 -20 -20 -20 -20 -20 -20 -20 -20 -20 -20 -20 -20 -20 -20 -20 -20 -20 -9 -20 -20 -20 -20 -20 -20 -20 -20 -20 -20 -20 -20 -20 -20 -20 -20 -20 -20 -20
-20 -20 -20 -20 -20 -20 -20 -20 -20 -20 -20 -20 -20 -20 -20 -20 -20 -20 -20 -20 -20 -8 -14 -19 -20 -20 -20 -20 -20 -20 -20 -20 -20 -20 -20 -20 -20 -20 -20 -20 -20 -20 -20
-20 -20 -20 -20 -20 -20 -20 -20 -20 -20 -20 -20 11 -16 27 -20 -20 -20 -20 -20 -12 16 2 -20 -20 -20 -20 -20 -20 -20 -20 -20 -20 -20 -20 -20 -20 -20 -20 -20 -20 -20 -20
-20 -20 -20 -20 -20 -20 -20 -20 -17 -4 -17 -20 -20 -20 15 12 -20 -20 -20 -20 -5 5 -17 -20 -20 -20 -20 -20 -20 -20 -20 -20 -20 -20 -20 -20 -20 -20 -20 -20 -20 -20 -20
-20 -20 -20 -20 -20 -20 -5 -9 5 7 6 -6 -20 -5 -6 -15 -11 -20 -20 -14 -14 -20 -20 -20 -20 -20 -20 -20 -20 -20 -20 -20 -20 -20 -20 -20 -20 -20 -20 -20 -20 -20 -20
-20 -20 -20 -20 -20 -20 -20 -20 -7 1 9 8 0 7 -4 -20 -20 -20 -20 -20 -14 -16 -20 -20 -20 -20 -20 -20 -20 -20 -20 -20 -20 -20 -20 -20 -20 -20 -20 -20 -20 -20 -20
-20 -20 -20 -20 -20 -20 -20 -20 -20 -3 -2 5 1 16 16 -20 -20 -20 -19 -18 10 -17 -20 -20 -20 -20 -20 -20 -20 -20 -20 -20 -20 -20 -20 -20 -20 -20 -20 -20 -20 -20 -20
-20 -20 -20 4 2 -20 -18 -14 -2 -2 2 4 -4 13 18 -20 -20 -20 -20 -20 -20 -20 -20 -18 15 -12 -20 -20 -20 -20 -20 -20 -20 -20 -20 -20 -20 -20 -20 -20 -20 -20 -20
-20 -13 -20 -14 -19 -20 -20 -13 -13 -15 2 18 17 22 -20 -20 -20 -20 -6 4 21 -1 -19 -11 12 -4 -20 -20 -20 -20 -20 -20 -20 -20 -20 -20 -20 -20 -20 -20 -20 -20 -20
-20 -7 -20 -20 -20 -20 -20 -20 -1 -6 -7 17 20 18 8 -20 -20 -20 -14 -20 -20 -16 15 6 -15 -17 -9 -20 -9 -0 -20 -20 -12 -19 -20 -20 -20 -20 -20 -20 -20 -20 -20
-20 -20 -20 -20 -20 -20 -20 -20 -20 -20 -20 -16 -0 -4 3 2 -20 -20 -20 -20 -20 -15 -4 -18 2 -16 -20 -20 -20 -20 -20 4 2 -2 -20 -20 -20 -20 -20 -20 -20 -20 -20
-20 -15 -20 -20 -20 -20 -20 -15 -20 -20 -20 -20 -20 -20 -20 -18 -20 -20 -20 -20 -20 -20 -20 -20 -20 -19 0 -20 -16 -20 -20 -20 1 7 -20 -20 -20 -20 -20 -20 -20 -20 -20

GFSGL_prec_radar_051.txt.gz
Reflectivity
-20 -20 -20 -20 -20 -7 4 -20 -20 13 28 37 12 21 5 10 -6 -18 -20 -16 -20 -20 -20 -20 -20 -20 -20 -20 -20 -20 -20 -20 -20 -20 -20 -20 -20 -20 -20 -20 -20 -20 -20
19 22 22 -20 -20 -20 -20 -19 -20 30 13 1 21 23 18 -10 -20 -19 6 -20 -20 -20 -20 -20 -20 -20 -20 -20 -20 -20 -20 -20 -20 -20 -20 -20 -20 -20 -20 -20 -20 -20 -20
-9 18 19 -20 13 17 15 10 19 -20 -20 -20 7 -16 -20 -20 6 -8 -20 -20 -20 -20 -20 -20 -20 -20 -20 -20 -20 -20 -20 -20 -20 -20 -20 -20 -20 -20 -20 -20 -20 -20 -20
21 22 -2 19 2 -20 3 17 -20 -18 -20 -11 24 -17 3 1 -20 -20 -20 -20 -20 -20 -20 -20 -20 -20 -20 -20 -20 -20 -20 -20 -20 -20 -20 -20 -20 -20 -20 -20 -20 -20 -20
-8 -9 14 -11 -20 1 -10 -16 -20 -16 -16 -17 -13 13 -20 -20 -20 -20 -20 -20 -20 -20 -20 -20 -20 -20 -20 -20 -20 -20 -20 -20 -20 -20 -20 -20 -20 -20 -20 -20 -20 -20 -20
20 22 -6 -20 -19 -5 13 -11 -20 -20 -20 19 6 -5 -19 -20 -20 -20 -20 -20 -20 -20 -20 -20 -20 -20 -20 -20 -20 -20 -20 -20 -20 -20 -20 -20 -20 -20 -20 -20 -20 -20 -20
-10 -12 7 -4 -7 -15 -18 -20 -18 13 16 19 -8 -20 -20 -20 -20 -20 -20 -20 -20 -20 -20 -20 -20 -20 -20 -20 -20 -20 -20 -20 -20 -20 -20 -20 -20 -20 -20 -20 -20 -20 -10
-19 -20 -8 -20 -20 -19 -11 -10 25 24 13 -19 -20 -20 -20 -20 -20 -20 -20 -20 -20 -20 -20 -20 -20 -20 -20 -20 -20 -20 -20 -20 -20 -20 -20 -20 -20 -20 -20 -7 7 -7 -20
-20 -18 -20 -20 -17 14 11 25 24 -16 -19 -20 -20 -20 -20 -20 -20 -20 -20 -20 -20 -20 -20 -20 -20 -20 -20 -20 -20 -20 -20 -20 -20 -20 -20 -20 -20 -20 -20 -20 -20 -8 -20
-20 -19 -18 20 6 27 11 -19 -20 -20 -20 -20 -20 -20 -20 -20 -20 -20 -20 -20 -20 -20 -20 -20 -20 -20 -20 -20 -20 -20 -20 -20 -20 -20 -20 -20 -20 -20 -20 -20 -20 -20 -20
-14 17 32 26 -2 -7 -14 -20 -20 -20 -20 -20 -20 -20 -20 -20 -20 -20 -20 -20 -20 -20 -20 -20 -20 -20 -20 -20 -20 -20 -20 -20 -20 -20 -20 -20 -20 -20 -20 -20 -20 -20 -20
5 -13 -16 -20 -20 -20 -20 -20 -20 -20 -20 -20 -20 -20 -20 -20 -20 -20 -20 -20 -20 -20 -20 -20 -20 -20 -19 -20 -20 -20 -20 -20 -20 -20 -20 -20 -20 -20 -20 -20 -20 -20 -20
-20 -20 -20 -20 -20 -20 -20 -20 -20 -20 -20 -20 -20 -20 -20 -20 -20 -20 -20 -20 -20 -20 -20 -20 -20 -20 -20 -20 -20 -20 -20 -20 -20 -20 -20 -20 -20 -20 -20 -20 -20 -20 -20
-20 -20 -20 -20 -20 -20 -20 -20 -20 -20 -20 -20 -20 -20 -20 -20 -20 -20 -20 -20 -20 -14 -20 -20 -20 -20 -5 -20 -20 -20 -20 -20 -20 -20 -20 -20 -20 -20 -20 -20 -20 -20 -20
-20 -20 -20 -20 -20 -20 -20 -20 -20 -20 -20 -20 -20 -20 -20 -20 -20 -20 -20 -20 -20 -20 -20 -20 6 -20 -5 -8 -20 -20 -20 -20 -20 -20 -20 -20 -20 -20 -20 -20 -20 -20 -20
-20 -20 -20 -20 -20 -20 -20 -20 -20 -20 -20 -20 -20 -20 -20 -20 -20 4 10 14 -20 -20 -20 -20 -20 -20 -20 -18 -20 -20 -20 -20 -20 -20 -20 -20 -20 -20 -20 -20 -20 -20 -20
-20 -20 -20 -20 -20 -20 -20 -20 -20 -20 -20 -20 -20 -20 -20 -2 -20 25 14 30 -13 -20 -19 -20 -20 -20 -20 -17 -20 -20 -20 -20 -20 -20 -20 -20 -20 -20 -20 -20 -20 -20 -20
-20 -20 -20 -20 -20 -20 -20 -16 -12 -8 -18 -20 -20 -20 -6 -20 -17 -11 15 23 22 -20 -20 -20 -20 -20 -20 -4 -20 -20 -20 -20 -20 -20 -20 -20 -20 -20 -20 -20 -20 -20 -20
-20 -20 -20 -20 -20 -20 -20 -20 -20 -20 -20 -20 -20 -20 -20 -20 -17 24 17 7 -15 -20 -20 -20 -20 -20 -20 -4 -7 -20 -20 -20 -20 -20 -20 -20 -20 -20 -20 -20 -20 -20 -20
-20 -20 -20 -20 -20 -20 -20 -19 -20 -19 1 5 -5 -20 -20 -7 -20 21 15 -4 -20 -19 -18 -20 -11 -18 -20 -20 -20 -20 -20 -20 -20 -20 -20 -20 -20 -20 -20 -20 -20 -20 -20
-20 -20 -20 -20 -7 -11 -16 -20 -1 -20 -20 -20 -20 8 13 16 -1 20 -18 -20 -20 -20 -19 -18 -20 -20 -20 -12 -16 -3 -20 -20 -20 -20 -20 -20 -20 -20 -20 -20 -20 -20 -20
-20 -11 -20 -20 -20 -20 -20 -11 -16 -12 -20 -20 -20 -20 2 -0 23 22 4 -14 -20 -7 0 16 10 -18 -20 16 -6 -1 -20 -20 -20 -20 -20 -20 -20 -20 -20 -20 -20 -20 -20
-20 -20 -20 -20 -20 -20 -20 -20 -14 -20 -20 -20 -20 -20 -20 4 13 18 -2 -20 -20 -20 -20 -20 -3 -7 10 2 9 5 -19 -20 -13 -3 -20 -20 -20 -20 -20 -20 -20 -20 -20
-20 -20 -20 -20 -20 -20 -20 -20 -20 -20 -20 -20 -20 -20 -20 -14 7 12 11 -20 -20 -20 -20 -20 -20 -20 2 7 7 -4 -0 2 5 -7 -10 -20 -20 -20 -20 -20 -20 -20 -20
-20 -20 -20 -20 -20 -20 -20 -20 -20 -20 -20 -20 -20 -20 -20 -20 -15 2 -17 -20 -20 -20 -20 -20 -20 -20 -20 -19 8 -20 -20 -1 9 2 10 -15 -20 -20 -20 -20 -20 -20 -20
-20 -20 -20 -20 -20 -20 -20 -20 -20 -20 -20 -20 -20 -20 -20 -20 -20 -20 -20 -20 -20 -20 -20 -20 -20 -20 -20 -20 -20 -6 -20 -17 7 5 5 6 -20 -20 -20 -20 -20 -20 -20

GFSGL_prec_radar_054.txt.gz
Reflectivity
8 -20 5 -2 -20 -20 2 13 9 12 -20 4 20 20 -20 -16 3 15 14 -20 -20 -20 -20 -20 -20 -20 -20 -20 -20 -20 -20 -20 -20 -20 -20 -20 -20 -20 -20 -20 -20 -20 -20
-18 16 10 -20 3 27 23 24 -16 -3 15 -1 -19 -18 -20 -4 15 18 -20 -20 -20 -20 -20 -20 -20 -20 -20 -20 -20 -20 -20 -20 -20 -20 -20 -20 -20 -20 -20 -20 -20 -20 -20
24 29 -9 22 24 25 24 14 3 -20 5 23 30 -5 23 0 1 -20 -20 -20 -20 -20 -20 -20 -20 -20 -20 -20 -20 -20 -20 -20 -20 -20 -20 -20 -20 -20 -20 -20 -20 -20 -20
26 27 28 26 25 20 13 -19 -4 -15 17 33 24 26 9 -13 -20 -20 -20 -20 -20 -20 -20 -20 -20 -20 -20 -20 -20 -20 -20 -20 -20 -20 -20 -20 -20 -20 -20 -20 -20 -20 -20
-10 21 24 25 17 13 -20 -13 -20 9 30 -4 -20 16 15 4 -2 -20 -20 -20 -20 -20 -20 -20 -20 -20 -20 -20 -20 -20 -20 -20 -20 -20 -20 -20 -20 -20 -20 -20 -20 -20 -20
-17 -20 -5 11 12 -20 -20 -10 24 16 -10 7 23 20 19 -4 -20 -20 -20 -20 -20 -20 -20 -20 -20 -20 -20 -20 -20 -20 -20 -20 -20 -20 -20 -20 -20 -20 -20 -20 -20 -20 -8
-20 -20 -20 4 12 -20 7 19 -8 -16 6 34 24 -11 -20 -20 -20 -20 -20 -20 -20 -20 -20 -20 -20 -20 -20 -20 -20 -20 -20 -20 -20 -20 -20 -20 -20 -20 -20 -20 -20 2 2
-20 -20 -2 -6 -17 -5 22 11 -1 21 20 8 -19 -20 -20 -20 -20 -20 -20 -20 -20 -20 -20 -20 -20 -20 -20 -20 -20 -20 -20 -20 -20 -20 -20 -20 -20 -20 -20 -20 -20 -20 -20
-20 -20 -18 -4 2 9 15 13 35 30 6 -20 -20 -20 -20 -20 -20 -20 -20 -20 -20 -20 -20 -20 -20 -20 -20 -20 -20 -20 -20 -20 -20 -20 -20 -20 -20 -20 -20 -20 -20 -20 -20
-20 -19 -14 -17 7 31 24 2 2 -20 -20 -20 -20 -20 -20 -20 -20 -20 -20 -20 -20 -20 -20 -20 -20 -20 -20 -20 -20 -20 -20 -20 -20 -20 -20 -20 -20 -20 -20 -20 -20 -20 -20
-20 -17 25 15 -8 -20 -20 -20 -20 -20 -20 -20 -20 -20 -20 -20 -20 -20 -20 -20 -20 -20 -20 -20 -20 -20 -20 -20 -20 -20 -20 -20 -20 -20 -20 -20 -20 -20 -20 -20 -20 -20 -20
-9 -17 -20 -20 -20 -20 -20 -20 -20 -20 -20 -20 -20 -20 -20 -20 -20 -20 -20 -20 -20 -20 -20 -20 -20 -20 -20 -20 -20 -20 -20 -20 -20 -20 -20 -20 -20 -20 -20 -20 -20 -20 -20
-20 -20 -20 -20 -20 -20 -20 -20 -20 -20 -20 -20 -20 -20 -20 -20 -20 -20 -20 -20 -20 -20 -20 -20 -20 -20 -16 -20 -13 -20 -20 -20 -19 -20 -20 -20 -20 -20 -20 -20 -20 -20 -20
-20 -20 -20 -20 -20 -20 -20 -20 -20 -20 -20 -20 -20 -20 -20 -20 -20 -20 -20 -20 -20 -20 -20 -20 -20 -20 -20 -12 -18 3 3 -20 -20 -20 -20 -20 -20 -20 -20 -20 -20 -20 -20
-20 -20 -20 -20 -20 -20 -20 -20 -20 -20 -20 -20 -20 -20 -20 -20 -20 -20 -20 -8 -4 12 14 -2 -19 -9 -19 -19 1 -20 2 -8 -20 -20 -20 -20 -20 -20 -20 -20 -20 -20 -20
-20 -20 -20 -20 -20 -20 -20 -20 -20 -20 -20 -20 -20 -10 -20 -2 -2 -5 0 0 5 18 18 30 -8 -20 -20 -20 -20 -20 -20 -9 -20 -20 -20 -20 -20 -20 -20 -20 -20 -20 -20
-20 -20 -20 -20 -20 -20 -20 -20 -20 -20 -20 -20 -20 -20 -20 -20 -20 -20 2 -1 15 11 7 24 -15 -20 -20 -20 -20 -20 -20 -20 -20 -20 -20 -20 -20 -20 -20 -20 -20 -20 -20
-20 -20 -20 -20 -20 -20 -20 -20 -20 -20 -20 -20 -20 -20 -20 -20 -8 -20 -20 -2 4 5 13 6 2 -15 -20 -20 -20 -5 4 -20 -20 -20 -20 -20 -20 -20 -20 -20 -20 -20 -20
-20 -20 -20 -20 -20 -20 -20 -20 -20 -16 2 -20 -20 -20 -20 -20 -20 -20 -12 -20 -7 16 18 14 -20 -20 -19 -20 11 -19 13 -18 -20 -20 -20 -20 -20 -20 -20 -20 -20 -20 -20
-20 -20 -20 -20 -20 -20 -20 -20 -20 -4 -20 -20 -20 -20 -20 -20 -20 -20 -19 12 26 9 -20 -16 -18 -20 -20 -3 -6 -20 7 -14 -20 -20 -20 -20 -20 -20 -20 -20 -20 -20 -20
-20 -20 -20 -20 -20 -20 -20 -20 -20 -20 -20 -20 -20 -20 -20 -20 -20 -20 -3 -11 -8 4 -4 -20 -16 -20 -20 -15 -20 -20 -10 -5 -20 -20 -20 -20 -20 -20 -20 -20 -20 -20 -20
-20 -20 -20 -20 -20 -20 -20 -20 -17 -20 -20 -20 -20 -20 -20 -20 -20 -20 -15 9 15 15 7 -0 -14 -10 5 8 15 9 5 -20 -11 -20 -20 -20 -20 -20 -20 -20 -20 -20 -20
-20 -20 -20 -20 -20 -20 -20 -20 -20 -20 -20 -20 -20 -20 -20 -20 -20 -20 -20 -20 2 13 13 -14 -20 -20 -20 -20 -7 15 15 -20 -16 7 -5 -20 -20 -20 -20 -20 -20 -20 -20
-20 -20 -20 -20 -20 -20 -20 -20 -20 -20 -20 -20 -20 -20 -20 -20 -20 -20 -20 -20 -20 -5 7 -20 -20 -20 -20 -20 -6 4 16 13 -7 4 11 2 -20 -20 -20 -20 -20 -20 -20
-20 -20 -20 -20 -20 -20 -20 -20 -20 -20 -20 -20 -20 -20 -20 -20 -20 -20 -20 -20 -20 -20 -3 -7 -20 -20 -20 -20 -20 7 -1 -13 13 12 10 4 -19 -20 -20 -20 -20 -20 -20
-20 -20 -20 -20 -20 -20 -20 -20 -20 -20 -20 -20 -20 -20 -20 -20 -20 -20 -20 -20 -20 -20 -20 -20 -20 -20 -20 -20 -20 -20 -20 -20 -6 8 16 12 -18 -2 -20 -20 -20 -20 -20

GFSGL_prec_radar_057.txt.gz
Reflectivity
-20 -12 8 25 23 23 5 13 -15 19 34 10 22 29 21 12 14 3 3 -11 -10 -20 -20 -20 -20 -20 -20 -20 -20 -20 -20 -20 -20 -20 -20 -20 -20 -20 -20 -20 -20 -20 -20
-20 -4 24 25 23 26 21 13 13 8 38 16 -11 -3 -8 30 3 32 19 -20 -20 -20 -20 -20 -20 -20 -20 -20 -20 -20 -20 -20 -20 -20 -20 -20 -20 -20 -20 -20 -20 -20 -20
-19 -20 -11 22 27 17 20 23 24 39 29 14 -6 22 12 26 31 1 -20 -20 -20 -20 -20 -20 -20 -20 -20 -20 -20 -20 -20 -20 -20 -20 -20 -20 -20 -20 -20 -20 -20 -20 -20
5 -17 8 25 19 24 26 28 13 17 12 -13 -17 27 22 17 -4 7 15 -13 -20 -20 -20 -20 -20 -20 -20 -20 -20 -20 -20 -20 -20 -20 -20 -20 -20 -20 -20 -20 -20 -20 -20
8 8 6 -12 -4 15 15 -3 -18 -12 2 7 32 12 22 24 -4 -12 -20 -20 -20 -20 -20 -20 -20 -20 -20 -20 -20 -20 -20 -20 -20 -20 -20 -20 -20 -20 -20 -20 -20 -20 -20
-20 -20 -20 -20 -20 -20 -20 -20 17 -20 -6 10 30 14 21 -10 19 -20 -20 -20 -20 -20 -20 -20 -20 -20 -20 -20 -20 -20 -20 -20 -10 -20 -20 -20 -20 -20 -20 -20 -20 -20 -20
-20 -20 -20 -20 -20 -20 -1 12 -20 2 16 30 22 21 15 19 -16 -20 -20 -20 -20 -20 -20 -20 -20 -20 -20 -20 -20 -20 -20 -20 -20 -20 -20 -20 -20 -20 -20 -20 -20 -20 -20
-20 -20 -20 -20 -19 -8 -19 5 25 13 29 32 6 -13 -20 -20 -20 -20 -20 -20 -20 -20 -20 -20 -20 -20 -20 -20 -20 -20 -20 -20 -20 -20 -20 -20 -20 -20 -20 -20 -0 3 -20
-20 -20 -20 -19 -12 -13 -20 16 25 9 2 -15 -20 -20 -20 -20 -20 -20 -20 -20 -20 -20 -20 -20 -20 -20 -20 -20 -20 -20 -20 -20 -20 -20 -20 -20 -20 -20 -20 -5 1 0 -11
-20 -20 -20 -20 0 21 20 -11 -20 -20 -20 -20 -20 -20 -20 -20 -20 -20 -20 -20 -20 -20 -20 -20 -20 -20 -20 -20 -20 -20 -20 -20 -20 -20 -20 -20 -20 -20 -20 -20 -7 2 -2
-20 -16 -20 -14 -18 -20 -20 -20 -20 -20 -20 -20 -20 -20 -20 -20 -20 -20 -20 -20 -20 -20 -20 -20 -20 -20 -20 -20 -20 -20 -20 -20 -13 -20 -20 -20 -20 -20 -20 -20 -20 -20 -7
-20 -17 -20 -20 -20 -20 -20 -20 -20 -20 -20 -20 -20 -20 -20 -20 -20 -20 -20 -20 -20 -20 -20 -20 -20 -20 -20 -20 -20 -20 -20 -20 -20 -20 -11 -14 -20 -20 -20 -20 -20 -20 -20
-20 -20 -20 -20 -20 -20 -20 -20 -20 -20 -20 -20 -20 -20 -20 -20 -20 -20 -20 -20 -20 -20 6 -10 -20 -20 -20 -20 -20 -20 -20 -14 9 -3 -3 -19 -20 -20 -20 -20 -20 -20 -20
-20 -20 -20 -20 -20 -20 -20 -20 -20 -20 -20 -20 -20 -20 -20 -20 -16 -20 2 8 7 3 -16 4 17 17 18 21 11 16 -7 -0 -20 -20 -5 -18 -20 -20 -20 -20 -20 -20 -20
-20 -20 -20 -20 -20 -20 -20 -20 -20 -20 -20 -20 -20 -4 5 5 4 -3 -3 6 7 -2 10 8 7 9 18 -20 16 -0 1 5 4 -9 1 -1 -20 -20 -20 -20 -20 -20 -20
-20 -20 -20 -20 -20 -20 -20 -20 -20 -20 -20 -20 -9 -18 -3 -13 -20 -20 -20 -20 -13 -2 9 10 17 12 6 12 3 -3 -3 -5 -20 -20 -7 -20 -20 -20 -17 -11 -20 -20 -20
-20 -20 -20 -20 -20 -20 -20 -20 -20 -20 -20 -20 -20 -20 -20 -20 -20 -20 -20 -20 -20 -20 10 4 15 15 -18 16 17 -4 -3 -1 -15 -14 -20 -20 -20 -20 -20 -20 -20 -20 -20
-20 -20 -20 -20 -20 -20 -20 -20 -20 -20 -20 -20 -20 -20 -20 -20 -20 -20 -20 -20 -20 -3 6 -7 9 12 15 12 -8 0 -6 -5 -17 5 -20 -20 -20 -20 -2 -20 -20 -20 -20
-20 -20 -20 -20 -20 -20 -20 -20 -20 -20 -20 -20 -20 -20 -20 -20 -20 -20 -20 -20 -20 -20 -7 -16 15 22 13 8 -19 -12 -4 17 1 -1 -20 -20 -20 -20 -20 -20 -20 -20 -20
-20 -20 -20 -20 -20 -20 -20 -20 -20 -20 -20 -20 -20 -20 -20 -20 -20 -9 -20 -4 -20 -20 -15 6 4 -18 -13 15 11 8 3 -1 -0 -18 -20 -20 -20 -20 -20 -20 -20 -16 -20
-20 -20 -20 -20 -20 -20 -20 -20 -20 -20 -20 -20 -20 -20 -20 -20 -9 -5 -3 -5 -19 -20 -20 -20 -4 -16 -20 -7 -0 13 5 3 -9 -19 -20 -20 -20 -20 -20 -20 -20 -20 -20
-20 -20 -20 -20 -20 -20 -20 -20 -20 -20 -20 -20 -20 -20 -20 -20 -20 -15 -3 -19 -2 -5 -20 -19 -8 12 3 1 -11 12 7 8 1 6 -2 -18 -20 -20 -20 -20 -20 -20 -20
-20 -20 -20 -20 -20 -20 -20 -20 -20 -20 -20 -20 -20 -20 -20 -20 -20 -20 -1 -20 -11 -10 -19 -20 -17 -0 12 -0 -4 -4 -10 -11 15 12 10 4 -20 -20 -20 -20 -20 -20 -20
-20 -20 -20 -20 -20 -20 -20 -20 -20 -20 -20 -20 -20 -20 -20 -20 -20 -20 -5 -20 -20 -14 -20 -6 -20 -20 -14 -16 -20 -20 -5 -6 6 11 10 11 -5 -20 -20 -20 -20 -20 -20
-20 -20 -20 -20 -20 -20 -20 -20 -20 -20 -20 -20 -20 -20 -20 -20 -20 -20 -20 -20 -20 -20 -20 -20 -20 -20 -20 -20 -20 -20 -20 -19 9 17 10 5 -0 -15 -13 -14 -20 -20 -20
-20 -20 -20 -20 -20 -20 -20 -20 -20 -20 -20 -20 -20 -20 -20 -20 -20 -20 -20 -20 -20 -20 -20 -20 -20 -20 -20 -20 -20 -20 -20 -20 6 -2 -6 -1 7 -3 0 5 -20 -20 -20

GFSGL_prec_radar_060.txt.gz
Reflectivity
-20 -20 -20 -20 -16 0 1 9 19 33 22 17 -13 14 34 24 22 21 27 25 27 21 1 -17 -20 -20 -20 -20 -20 -20 -20 -20 -20 -20 -20 -20 -20 -20 -20 -20 -20 -20 -20
-20 -20 -20 -20 2 -12 4 -18 24 5 -4 23 36 37 29 9 1 18 16 22 22 4 -19 -20 -20 -20 -20 -20 -20 -20 -20 -20 -20 -20 -20 -20 -20 -20 -20 -20 -20 -20 -20
-20 -19 11 0 -10 -12 -20 -18 3 28 35 33 25 36 23 26 27 23 11 -10 -3 -10 -20 -20 -20 -20 -20 -20 -18 -20 -20 -9 -20 -7 -20 -20 -20 -20 -20 -20 -20 -20 -20
-20 1 10 5 12 0 -15 -8 -1 14 -3 21 5 10 4 19 34 28 3 -20 -20 -20 -20 -20 -20 -20 -20 -20 -15 -2 -9 -13 -20 -20 -20 -20 -20 -20 -20 -20 -20 -20 -20
7 8 12 10 -12 -14 -8 4 9 -6 -20 -15 -13 -2 13 26 30 28 10 -15 -20 -20 -20 -20 -20 -20 -20 -20 -20 -20 -19 -20 -20 -20 -20 -20 -20 -20 -20 -20 -20 -20 -20
-19 -20 -18 -20 -20 -20 -20 -20 -10 -20 -20 -20 -16 4 20 16 22 21 22 8 -20 -20 -20 -20 -20 -20 -20 -20 -20 -20 -20 -20 -20 -4 -3 7 -20 3 -20 -20 -20 -20 -20
-20 -20 -20 -20 -20 -20 -20 -20 -20 -20 -20 9 23 9 0 -1 7 -19 -20 -20 -20 -20 -20 -20 -20 -20 -20 -20 -20 -20 -20 -20 -20 -20 1 10 8 -20 -19 -17 -20 -20 -20
-20 -20 -20 -20 -20 -20 -20 -20 -16 -19 -6 -5 -20 -20 -19 -11 -20 -20 -20 -20 -20 -20 -20 -20 -20 -20 -20 3 -14 4 4 -3 -20 -7 -20 -14 -17 -20 -13 -20 -20 -20 -20
-20 -20 -20 -20 -20 -20 -20 -20 -20 -19 -16 -20 -20 -20 -20 -20 -20 -20 -20 -20 -20 -20 -20 -20 -20 -20 -20 -20 -16 -14 7 -15 -20 -20 -20 -20 -20 -20 -20 -20 -9 -2 -0
-20 -20 -20 -20 -20 -20 -20 -20 -20 -20 -20 -20 -20 -20 -20 -20 -20 -20 -20 -20 -20 -20 -20 -20 -20 -20 -20 -20 16 10 8 -20 -6 -14 -17 -20 -20 -20 -20 -20 -7 2 -1
-20 -20 -20 -20 -20 -20 -20 -20 -20 -20 -20 -20 -20 -20 -20 -20 -20 -20 -20 -20 -15 -1 1 1 -12 -11 -10 -20 -9 8 -8 -8 -6 -0 6 -19 -9 -20 -20 -20 -20 -1 3
-20 -20 -20 -20 -20 -20 -20 -20 -20 -20 -20 -20 -20 -20 -20 -20 -20 -20 -20 -20 -20 -7 -17 -15 -12 -12 -12 18 -13 -10 12 12 2 18 -2 -4 -6 -20 -20 -20 -20 -20 -13
-20 -20 -20 -20 -20 -20 -20 -20 -20 -20 -20 -20 -20 -20 -20 -20 -20 -20 -20 -20 -20 -3 -18 -9 -20 -20 -20 -20 12 17 -3 18 23 20 8 7 -18 -4 1 0 -15 -18 -18
-20 -20 -20 -20 -20 -20 -20 -20 -20 -20 -20 -20 -20 -20 -20 -20 -20 -20 -19 -18 -20 -10 -16 8 -20 -20 -20 -20 -3 -1 25 29 21 13 0 7 10 6 2 -8 -0 4 5
-20 -20 -20 -20 -20 -20 -20 -20 -20 -20 -20 -20 -20 -20 -20 -16 -20 -20 -3 -11 -5 -2 -9 10 8 -9 -20 4 14 11 22 15 28 16 12 13 14 7 5 2 8 3 4
-20 -20 -20 -20 -20 -20 -20 -20 -20 -20 -20 -20 -20 -20 -20 -20 -20 -20 -20 -20 -20 -20 6 14 15 15 5 4 17 19 12 7 3 5 11 12 8 11 3 9 6 5 5
-20 -20 -20 -20 -20 -20 -20 -20 -20 -20 -20 -20 -20 -20 -20 -20 -20 -20 -20 -20 -20 -20 4 3 5 8 20 18 7 21 13 28 -12 3 9 9 4 9 11 12 12 4 6
-20 -20 -20 -20 -20 -20 -20 -20 -20 -20 -20 -20 -20 -20 -20 -20 -20 -20 -20 -20 -20 -20 -20 -1 2 2 3 24 37 22 21 17 14 -1 11 11 9 9 13 1 6 9 7
-20 -20 -20 -20 -20 -20 -20 -20 -20 -20 -20 -20 -20 -20 -20 -20 -20 -20 -20 -4 -3 -3 -2 -2 -1 -3 0 9 11 26 12 15 15 13 10 11 14 9 6 6 7 -6 -7
-20 -20 -20 -20 -20 -20 -20 -20 -20 -20 -20 -20 -20 -20 -20 -20 -20 -20 -4 1 2 -1 -0 0 0 -1 -2 6 3 3 9 17 13 9 11 12 15 10 6 6 9 12 -4
-20 -20 -20 -20 -20 -20 -20 -20 -20 -20 -20 -20 -20 -20 -20 -20 0 -1 0 2 2 2 2 2 3 2 -1 0 4 1 -0 -3 17 12 13 10 16 10 1 7 11 7 1
-20 -20 -20 -20 -20 -20 -20 -20 -20 -20 -20 -20 -20 -20 -20 -15 -8 -5 -4 -2 3 2 0 3 3 3 3 2 1 5 0 1 2 14 15 14 17 10 5 5 11 11 -0
-20 -20 -20 -20 -20 -20 -20 -20 -20 -20 -20 -20 -20 -20 -20 -4 -3 -3 -2 1 2 0 1 0 1 -1 0 3 2 6 3 -0 4 -1 -6 18 14 10 7 6 6 8 2
-20 -20 -20 -20 -20 -20 -20 -20 -6 -20 -20 -20 -3 -3 -3 -2 0 0 -0 2 0 -0 -1 -2 -10 -4 -2 -3 0 1 2 3 -1 -7 -5 13 17 11 10 6 2 2 1
-20 -20 -20 -20 -18 -3 -1 -3 -4 -3 -4 -3 -1 -1 -2 -1 -2 0 2 -1 -1 -1 -3 -0 -3 -14 -20 -20 -20 -3 -1 -19 -20 -19 -2 9 13 14 8 3 4 1 -0
-20 -20 -20 -3 -2 -1 -2 -1 -3 -3 -4 -2 -2 0 1 1 -1 0 -1 -2 -2 -10 -7 -3 -6 -20 -20 -20 -20 -1 -15 -20 -14 -14 -0 6 15 13 10 7 5 -0 -12

GFSGL_prec_radar_063.txt.gz
Reflectivity
-20 -20 -20 8 20 -1 -2 -16 18 23 -11 -11 -15 -12 31 28 29 28 28 22 14 26 27 20 2 -20 -20 -20 -20 -20 -20 -20 -20 -20 -20 -20 -20 -20 -20 -20 -20 -20 -20
-20 -20 10 -20 -20 16 17 17 26 -18 -20 -12 -0 10 20 13 19 28 19 22 28 27 23 12 -20 -20 -20 -20 -20 -20 -20 -20 -20 -20 -20 -20 -20 -20 -20 -20 -20 -20 -20
-20 -20 -20 -20 -19 6 10 10 17 6 -6 12 22 26 29 0 -6 10 -2 12 10 17 -6 -18 -9 -4 -5 -1 -20 -20 -20 -20 -20 -20 -20 -20 -20 -20 -20 -20 -20 -20 -20
-20 -20 -20 -11 -5 12 14 15 6 8 5 -14 -14 -19 -4 -16 -1 5 14 11 -6 -20 5 11 -12 -10 -14 -20 -20 -20 -20 -20 -20 -20 -20 -20 -20 -20 -12 -20 -7 -20 -18
-20 -6 -12 -19 4 -7 10 -10 -4 -7 -8 -20 -20 -19 -18 1 0 15 3 -19 -18 -20 -20 -20 -20 -20 -20 -20 -20 -20 -20 -20 -20 -20 -20 -20 -20 -20 -20 -20 14 0 -20
-20 5 7 26 -10 -6 -5 -20 -20 -15 -1 -13 -20 -20 -4 12 23 5 -2 -20 -15 1 0 -20 -20 -20 -20 -20 -20 -20 -20 -20 -20 -20 -20 9 -20 2 -20 16 -10 -19 -20
12 -20 -20 -20 -20 -20 -20 -20 -20 -20 -20 -20 -15 2 -8 -20 -20 -20 -9 -9 -20 -20 -20 -20 -20 -20 -20 -20 -20 -20 -20 -20 -20 -20 -18 -20 3 -7 14 7 0 -20 -20
-20 -20 -20 -20 -20 -20 -20 -20 -20 -20 -20 -20 -20 -20 -20 -20 -20 -20 -20 -20 -20 -20 -20 -20 -20 -20 -20 -20 -20 -20 15 5 -13 -14 -13 -20 -20 -20 -4 4 -13 -20 -20
-20 -20 -20 -20 -20 -20 -20 -20 -20 -20 -20 -17 -20 -16 -20 -20 -20 -20 -20 -20 -20 -20 -20 -20 -20 -20 -20 -20 -18 -15 -20 -20 14 24 -17 -20 -20 -20 -20 -20 -20 -10 -0
-20 -20 -20 -20 -20 -20 -20 -20 -20 -20 -20 -20 -20 -20 -20 -20 -20 -20 -20 -20 -20 -20 -20 -20 -20 -20 -20 -20 -12 -18 -16 -10 -17 21 22 9 7 -20 -20 -20 -20 -4 -5
-20 -20 -20 -20 -20 -20 -20 -20 -20 -20 -20 -20 -20 -20 -20 -20 -20 -20 -20 -20 -20 -20 -20 -20 -20 -20 -20 -20 -20 -4 5 6 19 20 22 17 -3 -20 -20 -18 -20 -20 -20
-20 -20 -20 -20 -20 -20 -20 -20 -20 -20 -20 -20 -20 -20 -20 -20 -20 -20 -20 -20 -20 -20 -20 -20 -20 -20 -20 -20 -20 -20 -20 -16 11 21 10 18 3 -14 6 -15 -20 -20 -20
-20 -20 -20 -20 -20 -20 -20 -20 -20 -20 -20 -20 -20 -20 -20 -20 -20 -20 -20 -20 -20 -20 -20 -20 -20 -20 -20 -20 -20 -20 -20 -2 6 3 30 14 12 5 -20 -1 -20 -4 -19
-20 -20 -20 -20 -20 -20 -20 -20 -20 -20 -20 -20 -20 -20 -20 -20 -20 -20 -20 -20 -20 -20 -20 -20 -20 -20 -20 -20 -17 -15 7 -3 10 9 14 10 19 1 6 2 8 6 3
-20 -20 -20 -20 -20 -20 -20 -20 -20 -20 -20 -20 -20 -20 -20 -20 -20 -20 -20 -20 -20 -20 -12 -10 9 8 3 4 10 8 6 15 -6 -6 22 33 32 6 12 8 3 5 9
-20 -20 -20 -20 -20 -20 -20 -20 -20 -20 -20 -20 -20 -20 -20 -20 -20 -20 -20 -20 -20 -20 -20 -13 9 10 9 7 9 0 16 15 -6 14 22 16 11 9 13 7 10 11 11
-20 -20 -20 -20 -20 -20 -20 -20 -20 -20 -20 -20 -20 -20 -20 -20 -20 -20 -20 -20 -20 -20 -20 -10 6 10 8 7 5 8 19 19 15 23 28 -19 18 9 15 14 12 8 7
-20 -20 -20 -20 -20 -20 -20 -20 -20 -20 -20 -20 -20 -20 -20 -20 -20 -20 -20 -20 -20 -20 -20 -20 -10 4 7 5 3 7 -1 21 29 16 4 15 15 17 13 15 12 12 8
-20 -20 -20 -20 -20 -20 -20 -20 -20 -20 -20 -20 -20 -20 -20 -20 -20 -20 -20 -2 -1 -3 -19 -20 -4 -13 -20 6 7 5 6 10 13 17 13 5 13 14 10 14 13 -1 9
-20 -20 -20 -20 -20 -20 -20 -20 -20 -20 -20 -20 -20 -20 -20 -20 -20 -4 -2 -1 1 0 -1 -2 -3 -8 -20 8 8 5 2 4 4 14 19 12 12 10 10 14 8 12 -1
-2 -20 -20 -20 -20 -20 -20 -20 -20 -20 -20 -20 -20 -4 -20 -20 -15 1 -2 -0 0 -0 2 2 -9 -20 6 -12 5 6 -2 5 7 8 6 14 15 11 14 14 9 9 10
0 -13 -18 -20 -20 -20 -20 -20 -20 -20 -20 -20 -19 -9 -20 -14 0 -0 -2 0 3 2 -19 -15 1 1 -20 -12 8 8 3 4 7 8 6 -7 -10 12 19 10 13 14 5
-13 -18 -20 -20 -20 -20 -20 -20 -17 -2 -10 -3 -2 -0 1 2 2 1 2 3 4 -10 3 -3 -13 6 1 6 7 10 7 4 8 10 0 0 -9 -15 21 11 11 12 8
-20 -20 -20 -20 -20 -20 -5 -2 0 -13 -2 -2 2 3 2 2 3 2 -17 3 2 -14 5 8 3 3 7 8 6 7 1 6 6 7 4 2 -19 -5 12 15 13 10 6
-18 -20 -20 -18 -3 -1 -0 0 1 1 3 2 2 2 -1 2 0 1 1 1 -1 -17 4 1 5 4 1 1 1 0 -18 5 3 -15 3 0 -2 -20 4 18 14 6 7
-15 -20 -4 0 0 1 1 2 2 3 2 3 0 1 1 1 -0 0 1 -9 -6 -16 -0 4 2 -2 -1 0 0 -9 -20 -20 -15 -10 6 1 -7 -20 6 15 14 11 3

GFSGL_prec_radar_066.txt.gz
Reflectivity
-20 -20 -20 -20 -20 27 21 6 -19 -20 7 23 3 10 9 -19 -20 -2 -5 -5 13 16 8 9 12 21 -3 -20 -20 -20 -20 -17 -20 -20 -20 -20 -20 -20 -20 -20 -20 -20 -20
-20 18 23 37 39 20 -16 25 -17 -11 18 -10 7 11 -19 4 11 15 28 -6 -2 -20 -4 -6 -20 -20 -20 -19 -20 -20 -20 -20 -20 -20 -20 -20 -20 -20 -20 -20 -20 -20 -20
-1 5 3 38 -8 -20 -20 -20 -10 -1 -1 14 11 -1 2 5 -4 6 6 2 12 12 5 -11 -20 -16 -20 -20 -20 -20 -20 -20 -20 -18 -20 -20 -20 -20 -20 -20 -20 -20 -20
-16 -18 -20 -20 -20 -20 -7 9 9 21 23 16 1 21 -16 -12 -11 1 -2 10 -2 2 -15 -20 -20 -20 -20 -20 -20 -20 -20 -13 -14 -0 -2 -20 -20 -12 -12 10 -16 -20 -20
-13 23 32 25 25 26 11 9 12 22 19 -5 -12 -20 -20 -20 -16 -15 -14 2 -5 -20 -20 -20 -20 -20 -20 -20 -20 -20 -20 -20 -20 -20 -20 -20 -20 -20 -20 -20 -20 -20 -20
-20 -4 29 -16 15 10 24 -16 -20 -2 -20 -20 -10 -20 -18 -20 6 8 -2 -14 -20 -20 -20 -20 -20 -20 -20 -20 -14 -13 -6 4 3 8 3 -20 -20 -20 -20 -20 -20 -20 -20
-2 -13 12 14 -2 -13 -20 -20 -20 -17 -20 -20 -20 -20 -20 -20 2 -20 -17 -20 -20 -20 -20 -20 -20 -20 -20 -20 -20 -20 -20 -20 -20 5 15 -12 14 2 -17 -0 -20 -20 -20
-13 -15 -20 -20 -20 -20 -20 -20 -20 -20 -20 -20 -20 -20 -20 -20 -20 -20 -20 -20 -20 -20 -20 -20 -20 -20 -20 -20 -20 -20 -20 -20 -20 -12 12 9 15 18 10 5 -20 -20 -20
-20 -20 -20 -20 -20 -20 -20 -20 -20 -20 -20 -20 -20 -20 -20 -20 -20 -20 -20 -20 -20 -20 -20 -20 -20 -20 -20 -20 -20 -20 -20 -20 -20 -20 -15 15 4 12 12 -0 -7 -1 -20
-20 -20 -20 -20 -20 -20 -20 -20 -20 -20 -20 -20 -20 -20 -20 -20 -20 -20 -20 -20 -20 -20 -20 -20 -20 -20 -20 -20 -20 -20 -20 -20 -20 -20 -20 -20 10 -15 11 33 -16 -20 -20
-20 -20 -20 -20 -20 -20 -20 -20 -20 -20 -20 -20 -20 -20 -20 -20 -20 -20 -20 -20 -20 -20 -20 -20 -20 -20 -20 -20 -20 -20 -20 -20 -20 -20 -20 -20 -3 -14 -20 -20 -6 -15 -20
-20 -20 -20 -20 -20 -20 -20 -20 -20 -20 -20 -20 -20 -20 -20 -20 -20 -20 -20 -20 -20 -20 -20 -20 -20 -20 -20 -20 -20 -20 -20 -20 -14 -20 -3 -6 3 15 4 -16 -15 -20 -20
-20 -20 -20 -20 -20 -20 -20 -20 -20 -20 -20 -20 -20 -20 -20 -20 -20 -20 -20 -20 -20 -20 -20 -20 -20 -20 -20 -20 -20 -20 -20 -20 -20 -14 -20 -20 -2 10 5 13 21 17 -20
-20 -20 -20 -20 -20 -20 -20 -20 -20 -20 -20 -20 -20 -20 -20 -20 -20 -20 -20 -20 -20 -20 -20 -20 -20 -20 -20 -20 -20 -20 -19 -20 9 9 -19 -18 -8 13 15 13 19 -20 -20
-20 -20 -20 -20 -20 -20 -20 -20 -20 -20 -20 -20 -20 -20 -20 -20 -20 -20 -20 -20 -20 -20 -20 -20 -20 -20 -20 -20 -20 -20 -20 -20 -20 5 -17 -20 -10 10 11 24 15 -20 -20
-20 -20 -20 -20 -20 -20 -20 -20 -20 -20 -20 -20 -20 -20 -20 -20 -20 -20 -20 -20 -20 -20 -20 -20 -20 -20 -20 -20 -11 -6 -20 -20 -19 -18 12 -2 9 24 17 5 -7 -19 -20
-20 -20 -20 -20 -20 -20 -20 -20 -20 -20 -20 -20 -20 -20 -20 -20 -20 -20 -20 -20 -20 -20 -20 -20 -20 -20 -20 -18 -0 -1 -3 -20 11 20 27 2 29 17 -19 -20 -20 -20 -20
-20 -15 -15 -16 -19 -17 -3 -20 -20 -20 -20 -20 -20 -20 -20 -20 -20 -20 -20 -20 -18 -20 -20 -20 -20 -20 -20 -19 -18 1 2 -20 -20 7 8 22 -13 -20 9 -20 10 -20 -20
2 4 2 -10 7 13 14 10 -10 -20 -20 -20 -20 -20 -20 -20 -20 -20 -8 -11 -20 -20 -8 -20 -20 -20 -20 -14 -18 -3 1 -14 -20 -4 7 7 14 -12 -20 -6 -20 -20 -19
9 -3 15 19 16 15 13 2 -9 -19 -20 -20 -20 -20 -20 -20 -20 -20 -17 -20 -20 -20 -20 -20 -14 -20 -20 -17 -3 -8 -1 -7 -20 -18 11 11 -4 15 1 -17 -2 -19 -14
22 20 19 14 9 8 5 1 -7 -19 -20 -20 -20 -20 -20 -20 -20 -19 -4 -20 -15 -20 -20 -17 4 -20 -20 -13 0 -10 -5 0 -14 -20 -20 13 10 -14 -19 11 11 5 5
18 15 12 10 7 5 1 -13 -20 -20 -20 -20 -20 -20 -20 -20 -2 -20 -20 -20 -20 -20 -14 -20 -20 -8 -13 4 -14 -20 3 -20 0 -20 -20 -20 -0 -14 -20 -20 16 10 -17
11 7 4 0 -4 -18 -20 -20 -20 -15 -18 -20 -20 -8 -20 -20 -20 -20 -20 -20 -20 -20 -20 -20 -20 -7 -9 -20 -20 -1 1 0 -17 -13 -20 -20 -20 -6 -19 -4 12 15 -11
5 -0 -8 -20 -20 -20 -20 -16 -20 -13 -20 -5 -17 -20 -0 -20 -20 -20 -20 -20 -20 -20 -20 -4 -17 -20 -20 -15 3 -4 -0 -18 -20 -19 -4 -20 -20 -4 -14 -20 -10 19 -6
-9 -20 -20 -7 -8 1 -11 -3 -2 -9 -7 -20 -20 -20 -20 -18 -12 -20 -20 -20 -20 -20 -1 -20 -20 -5 -3 -20 -20 -20 -20 -17 -9 -20 -20 -20 -20 -16 -20 -20 -5 6 17
-20 -18 -20 -5 -1 2 -8 -9 -19 -18 -20 -20 -20 -20 -8 -18 -18 -20 -10 -20 3 -20 -20 -20 -17 -20 -20 -20 -16 -7 -20 -20 -20 -20 -20 -20 -20 -20 -20 -20 -18 8 19

GFSGL_prec_radar_069.txt.gz
Reflectivity
-20 -20 -20 -20 -20 -16 18 33 34 38 30 -2 -8 11 -0 11 -20 -4 -17 -16 -8 -11 -20 6 13 -20 -20 -20 -20 -20 -20 -20 -20 -20 -20 -20 -20 -20 -20 -20 -20 -20 -20
27 16 10 26 -16 35 34 42 35 12 -6 29 -20 15 -1 -10 8 -18 10 -4 -18 -4 10 -2 -7 -7 -20 -20 -20 -20 -20 -20 -20 -20 -20 -20 -20 -20 -20 -20 -20 -14 0
35 29 37 36 25 32 26 15 1 -11 -13 27 4 20 -0 3 -19 -19 -20 -11 6 3 3 9 -7 -6 -20 -20 -20 -20 -20 -20 -20 -20 -20 -20 -20 -20 -20 -20 -16 -20 12
17 16 -1 15 -12 -14 8 31 -10 6 15 -1 -14 -15 7 -11 -1 -9 -19 -5 -20 12 -10 -19 10 -19 -20 -20 -20 -20 -20 -20 -20 2 -10 -20 -20 -20 -20 -20 -20 -20 -20
-20 -17 -11 -8 17 -13 -4 -2 7 3 -6 -4 1 9 15 9 -19 -19 -20 -3 -6 -20 -13 -6 -20 -20 -20 -20 1 -5 -13 8 -17 9 6 -20 -20 -20 -20 -20 11 19 24
-20 -20 -20 -20 -20 -20 -20 -20 -20 -20 9 -0 12 -20 -20 -20 15 2 -4 -20 -20 -7 -20 -20 -20 -20 -20 -20 -20 -20 -20 -20 -20 -20 -20 0 -15 -20 -20 14 14 14 9
13 2 -13 -20 -20 -20 -20 -16 -2 -7 -0 -15 -20 -20 -20 -20 -18 -20 -19 -20 -20 -20 -20 -20 -20 -20 -20 -20 -20 -20 -20 -20 -20 -20 -20 -20 -20 -20 -14 5 11 18 8
-20 -20 -20 -20 -20 -20 -20 -20 -20 -20 -20 -20 -20 -20 -20 -18 1 -19 -20 -20 -20 -20 -20 -20 -20 -20 -20 -20 -20 -20 -20 -20 -20 -20 -20 -20 -20 -18 0 5 17 15 12
-20 -20 -20 -20 -20 -20 -20 -20 -20 -20 -20 -20 -20 -20 -20 -20 -19 -20 -20 -20 -20 -20 -20 -20 -20 -20 -20 -20 -20 -20 -20 -20 -20 -20 -20 -20 -20 -20 -20 11 20 11 9
-20 -20 -20 -20 -20 -20 -20 -20 -20 -20 -20 -20 -20 -20 -20 -20 -20 -20 -20 -20 -20 -20 -20 -20 -20 -20 -20 -20 -20 -20 -20 -20 -20 -20 -20 -20 -20 -20 -20 -16 1 11 -2
-20 -20 -20 -20 -20 -20 -20 -20 -20 -20 -20 -20 -20 -20 -20 -20 -20 -20 -20 -20 -20 -20 -20 -20 -20 -20 -20 -20 -20 -20 -20 -20 -20 -20 -20 -20 -20 -20 -8 2 3 4 11
-20 -20 -20 -20 -20 -20 -20 -20 -20 -20 -20 -20 -20 -20 -20 -20 -20 -20 -20 -20 -20 -20 -20 -20 -20 -20 -20 -20 -20 -12 -13 -20 -5 -0 3 -12 -20 -20 -20 -0 9 -18 -20
-20 -20 -20 -20 -20 -20 -20 -20 -20 -20 -20 -20 -20 -20 -20 -20 -20 -20 -20 -20 -20 -20 -20 -20 -20 -20 -20 -20 -20 -20 -20 -20 -20 -18 -20 -17 -12 -20 -20 -8 15 -3 2
-20 -20 -20 -20 -20 -20 -20 -20 -20 -20 -20 -20 -20 -20 -20 -20 -20 -20 -20 -20 -20 -20 -20 -20 -20 -20 -20 -20 -20 -20 -20 -20 -2 -20 -20 -20 -20 -20 -18 -1 -1 6 18
-20 -20 -20 -20 -20 -20 -20 -20 -20 -20 -20 -20 -20 -20 -20 -20 -20 -20 -20 -20 -20 -20 -20 -20 -20 -20 -20 -20 -20 -20 -20 -20 -20 -20 -20 -20 -20 -16 -19 -3 -11 16 21
-20 -20 -20 -20 -20 -20 -20 -20 -20 -20 -15 -15 -20 -7 -17 -12 -20 -20 -20 -20 -20 -20 -20 -20 -20 -20 -20 -20 -20 -20 -20 -15 -10 -20 -20 -19 -4 8 5 15 24 27 12
-20 -20 -20 -20 -20 -18 -10 0 -5 -5 -10 9 -4 1 -5 -15 -6 -13 -20 -20 -20 -20 -20 -20 -20 -20 -20 -20 -20 -20 -20 -16 -1 -20 -20 -10 17 -19 24 20 -20 -20 -20
-20 7 -14 -5 8 4 5 5 4 19 12 1 -5 -7 -6 8 10 -1 -19 -20 -20 -20 -20 -20 -20 -20 -20 -20 -20 -20 -20 -20 -20 -20 -20 -20 11 8 -17 20 10 -20 -20
5 9 10 14 15 12 18 19 11 4 0 -11 -20 -20 -20 -20 -20 -20 -20 -20 -20 -20 -20 -20 -20 -20 -20 -20 -20 -20 -20 -20 -20 -20 -20 -20 -20 4 -9 -15 15 -20 -20
17 23 24 23 21 18 15 13 9 6 7 4 -4 -20 -20 -20 -20 -20 -20 -20 -20 -20 -20 -20 -20 -20 -20 -20 -20 -20 -20 -20 -11 -20 -14 -20 -20 2 9 8 -19 20 -4
21 21 22 21 18 16 15 10 8 10 7 -2 -10 -17 -20 -20 -20 -20 -20 -20 -20 -20 -20 -20 -20 -20 -20 -20 -11 -20 -20 -20 -20 -20 0 -20 -20 -3 15 5 3 -20 -20
20 16 13 10 7 9 9 6 3 1 -11 -19 -16 -20 -20 -20 -20 -20 -20 -20 -20 -20 -20 -20 -20 -20 -20 -20 -20 -20 -20 -14 -15 -15 -20 -20 -20 -14 10 3 -19 -20 -10
12 11 11 12 10 5 1 -5 -2 -6 -19 -20 -20 -20 -20 -20 -20 -20 -20 -20 -20 -20 -20 -20 -20 -20 -20 -20 -20 -10 -2 -14 -20 -20 -20 -20 -20 -20 -20 -20 -20 -20 -11
0 -3 -4 -4 -9 -10 -13 -19 -20 -20 -20 -20 -20 -20 -20 -20 -20 -20 -20 -20 -20 -20 -20 -20 -20 -20 -20 -20 -17 -20 -20 -20 -20 -20 -1 -20 -20 -20 -20 -20 -20 -20 -15
-5 -8 -15 -20 -20 -20 -20 -20 -20 -20 -20 -20 -20 -20 -20 -20 -20 -20 -20 -20 -20 -20 -20 -20 -20 -20 -20 -20 -20 -20 -20 -20 -3 -20 -20 -20 -20 -20 -20 -20 -20 -20 -20
-20 -20 -20 -20 -20 -20 -20 -20 -20 -20 -20 -20 -20 -20 -20 -20 -20 -20 -20 -20 -20 -20 -20 -20 -20 -20 -20 -20 -20 -20 -20 -20 -20 -20 -4 -20 -20 -20 -20 -20 -20 -20 -20

GFSGL_prec_radar_072.txt.gz
Reflectivity
-18 -20 -20 -20 -11 -20 1 -20 23 28 32 36 39 23 8 12 23 -20 -1 1 4 -10 17 -20 -20 -20 -13 -17 -20 -20 -19 -20 -20 -20 -20 -20 -20 -20 -20 -20 -20 -20 -20
30 27 26 22 25 26 26 31 30 41 39 35 27 29 4 1 6 16 -11 -6 3 -7 -20 -20 4 22 7 17 -5 -20 -20 -20 -20 -20 -20 -20 -20 -20 -20 -20 -20 -20 -20
24 36 26 4 23 27 50 49 31 13 -11 16 8 -10 -8 -17 14 14 15 7 -11 -20 -17 2 -18 -7 7 -12 -10 -20 -20 -18 -20 -20 -10 -20 -20 -20 -20 -20 -20 -20 -20
2 -4 1 3 -3 33 17 31 24 1 -20 -20 26 23 -1 3 6 13 19 1 -20 -17 -16 1 5 13 -8 -17 -20 -20 -20 -20 -20 -20 -20 -20 -20 -20 -16 -7 -10 -20 -20
-18 -18 -20 -20 -20 -20 -20 -20 -20 -19 1 19 25 14 6 13 15 3 19 5 0 -17 3 -2 -1 -18 2 1 -20 -20 -20 -20 -20 -20 -20 -20 -20 -20 -20 -20 -20 -20 -20
-17 -19 -20 -20 -20 -20 -20 -20 -1 0 10 11 18 22 19 18 20 11 5 -13 -2 3 8 -20 -20 -20 -20 -20 -20 -20 -20 -20 -20 -20 -20 -20 -20 -20 -20 -20 -17 6 1
-20 -20 -20 -18 17 10 -19 -16 -0 0 15 11 14 16 7 -8 12 3 6 -2 -14 -20 -20 -20 -20 -20 -20 -20 -20 -20 -20 -20 -20 -20 -20 -20 -20 -20 -1 3 5 5 -11
-20 -20 -4 -5 10 12 -5 -15 9 8 0 9 -2 -16 -20 -15 8 7 13 -20 -20 -20 -20 -20 -20 -20 -20 -20 -20 -20 -20 -20 -20 -20 -20 -20 -20 -20 -17 -12 -10 -15 -9
-20 -20 -20 6 9 -14 -11 -20 -14 -20 -20 -20 -20 -20 -20 -20 8 9 -15 -20 -20 -20 -20 -20 -20 -20 -20 -20 -20 -20 -20 -20 -20 -20 -20 -20 -20 -20 -20 -20 -20 -7 -20
-20 -20 -20 -20 -20 -20 -20 -20 -20 -20 -20 -20 -20 -20 5 -20 0 9 -20 -20 -20 -20 -20 -20 -20 -20 -20 -20 -20 -20 -20 -20 -19 -19 -19 -20 -20 -20 -20 -20 -15 7 -1
-20 -20 -20 -20 -20 -20 -20 -20 -20 -20 -20 -20 -20 -20 -20 -20 -20 -20 -20 -20 -20 -20 -20 -20 -20 -20 -20 -20 -20 -20 -19 -20 -20 -20 -20 -20 -20 -20 -20 -20 -20 -20 4
-20 -20 -20 -20 -20 -20 -20 -20 -20 -20 -20 -20 -20 -20 -20 -20 -20 -20 -20 -20 -20 -20 -20 -20 -20 -20 -20 -20 -20 -20 -20 -20 -20 -20 -20 -20 -20 -20 -20 -15 -20 -18 -16
-20 -20 -20 -20 -20 -20 -20 -20 -20 -20 -20 -20 -20 -20 -20 -20 -20 -20 -20 -20 -20 -20 -20 -20 -20 -20 -20 -20 -20 -20 -20 -20 -20 -20 -20 -20 -20 -20 -20 -13 -20 -20 -7
-20 -20 -20 -20 -20 -20 -20 -20 -20 -20 -20 -20 -20 -20 -20 -20 -20 -20 -20 -20 -20 -20 -20 -20 -20 -20 -20 -20 -20 -20 -20 -20 -20 -6 -20 -20 -20 -20 -20 -20 -15 -20 2
-20 -20 -20 -20 -20 -20 -20 -20 -20 -20 -20 -20 -20 -20 -20 -15 -17 -8 1 -15 -20 -20 -20 -20 -20 -20 -20 -20 -20 -20 -20 -20 -20 -20 -20 -20 -20 -20 -20 -20 -20 -5 13
-20 -20 -15 -19 -20 -20 -20 -20 -17 -18 -20 -11 -15 -8 -15 8 11 -13 -20 -20 -20 -20 -20 -20 -20 -20 -20 -20 -20 -20 -20 -20 -20 -8 -20 -20 -20 -20 -20 -20 -20 -4 -16
-1 -18 -20 3 -20 -16 -15 -16 -17 -16 1 4 11 18 11 -8 -20 -20 -20 -20 -20 -20 -20 -20 -20 -20 -20 -20 -20 -20 -20 -20 -12 -8 -5 -20 -20 -20 -20 -20 10 28 -16
-18 12 9 16 19 20 12 2 10 18 18 12 8 4 -4 3 3 1 1 -6 -16 -12 -1 -12 -20 -20 -20 -20 -20 -20 -20 -20 -20 -20 -20 -20 -20 -20 -20 -20 -13 6 26
6 9 10 7 7 12 14 13 14 15 12 11 11 9 5 8 8 9 6 1 -9 -20 -20 -20 -20 -20 -20 -20 -20 -20 -20 -20 -20 -20 -20 -20 -17 -20 -20 -20 -2 7 10
9 4 4 8 11 11 11 10 10 11 12 11 9 6 3 -9 -17 -15 -17 -20 -18 -20 -20 -20 -20 -20 -20 -20 -20 -20 -20 -20 -20 -20 -20 -14 -20 -20 -20 -20 -16 -4 -16
3 10 11 10 11 12 11 9 9 9 9 6 -1 -3 -11 -20 -20 -20 -20 -20 -20 -20 -20 -20 -20 -20 -20 -20 -20 -20 -20 -20 -20 -20 -20 -20 -20 -20 -20 -20 -20 12 2
-2 -0 2 0 1 2 -0 -4 -10 -13 -10 -7 -8 -13 -14 -18 -20 -20 -20 -20 -20 -20 -20 -20 -20 -20 -20 -20 -20 -20 -20 -20 -20 -20 -20 -20 -20 -20 -20 -20 -20 1 11
-5 -10 -16 -15 -7 -20 -20 -19 -13 -7 -8 -17 -20 -20 -20 -20 -20 -20 -20 -20 -20 -20 -20 -20 -20 -20 -20 -20 -20 -20 -20 -20 -20 -20 -20 -20 -20 -20 -20 -20 -20 9 7
-20 -20 -20 -20 -20 -20 -19 -20 -20 -20 -20 -20 -20 -20 -20 -20 -20 -20 -20 -20 -20 -20 -20 -20 -20 -20 -20 -20 -20 -20 -20 -20 -20 -20 -20 -5 -20 -20 -20 -20 -20 -13 -15
-20 -20 -20 -20 -20 -20 -20 -20 -20 -20 -20 -20 -20 -20 -20 -20 -20 -20 -20 -20 -20 -20 -20 -20 -20 -20 -20 -20 -20 -20 -20 -20 -19 -20 -20 -20 -20 -20 -20 -20 -20 -20 -20
-20 -20 -20 -20 -20 -20 -20 -20 -20 -20 -20 -20 -20 -20 -20 -20 -20 -20 -20 -20 -20 -20 -20 -20 -20 -20 -20 -20 -20 -20 -20 -20 -20 -20 -20 -20 -20 -20 -20 -20 -20 -20 -20

GFSGL_prec_radar_075.txt.gz
Reflectivity
-20 -20 -20 -20 -20 -20 -16 -20 -20 -8 -13 23 34 31 30 36 28 14 25 23 -9 21 4 -9 13 -20 7 -10 -20 -14 -20 -20 -20 -20 -20 -20 -20 -20 -20 -20 -20 -20 -20
29 30 38 39 28 21 18 19 10 27 3 33 30 22 31 11 15 20 -4 26 4 22 -8 -17 25 -20 -20 -20 15 8 -18 0 -20 -20 -20 -20 -20 -20 -20 -20 -20 -20 -20
21 18 17 27 -6 -6 -15 -19 20 8 32 33 21 5 -20 -8 -20 5 9 -4 24 -7 12 25 -0 -3 -16 13 -16 -17 14 -20 -20 -20 -20 -20 -20 -20 -20 -20 -20 -20 -20
-19 14 -5 26 -11 -20 -20 -20 -20 26 -11 -7 -12 -20 -15 -20 -18 -2 28 18 6 11 23 -5 -20 -17 -10 -17 -13 -8 -20 -20 -20 -20 -20 -20 -20 -20 -20 -20 -20 -20 -20
-20 -17 -20 29 16 -20 -20 -20 -2 -20 -3 24 -20 -20 -20 -18 18 26 22 20 5 11 3 9 -0 6 -6 11 -1 -20 -20 -20 -20 -20 -20 -20 -20 -20 -20 -20 -20 -20 -20
-20 -20 8 21 31 -20 -20 -20 -5 13 -8 9 8 -20 -0 15 25 14 11 2 21 24 4 -20 -9 -6 16 9 -20 -20 -20 -20 -20 -20 -20 -20 -20 -20 -20 -20 -17 -20 -20
-20 -20 -20 -20 -9 -19 -20 -20 4 22 21 1 -7 10 19 16 21 19 15 12 -6 -19 -3 10 -1 8 6 -20 -20 -20 -20 -20 -20 -20 -20 -20 -20 -20 -20 -20 -20 -20 -20
-19 15 15 -20 0 -20 -14 13 12 9 -3 -9 21 17 21 16 17 15 16 -5 -10 10 13 7 -8 -20 -20 -20 -20 -20 -20 -20 -20 -20 -20 -20 -20 -20 -20 -20 -20 -20 -20
-19 -13 14 -20 -20 -20 4 14 15 21 17 17 21 11 8 10 15 12 10 6 3 2 -17 -20 -20 -20 -20 -20 -20 -20 -20 -20 -20 -20 -20 -20 -20 -20 -20 -8 -16 -20 -20
-20 -20 -20 -20 -20 9 18 15 15 16 13 11 11 12 16 4 15 14 10 -20 -20 -20 -20 -20 -20 -20 -20 -20 -20 -20 -20 -20 -20 -14 -13 -20 -20 -20 -20 -20 -5 2 4
-4 -16 -20 -20 14 3 7 6 7 6 4 -4 -14 -20 -20 -8 3 12 9 -19 -20 -20 -20 -20 -20 -20 -15 -19 -20 -20 -20 -20 -20 -20 -20 -20 -20 -20 -20 -20 -20 -8 5
-18 -20 3 6 10 8 9 13 10 -20 -20 -20 -20 -3 -19 -17 -2 7 -13 -20 -20 -20 -20 -20 -12 -2 -17 -8 -20 -20 -20 -20 -20 -20 -20 -20 -20 -20 -20 -20 -20 -20 -20
-20 15 7 7 8 -12 -20 -19 -20 -20 -20 -20 -20 -20 -20 -20 -20 -20 -20 -20 -20 -20 -2 9 -2 -20 -20 -20 -20 -20 -20 -20 -20 -20 -20 -20 -20 -20 -20 -20 -20 -20 -20
-20 -15 -20 -20 -20 -20 -20 -20 -20 -20 -20 -20 -20 -20 -20 -20 -20 -16 -11 10 15 11 7 -5 -4 4 0 -5 -17 -20 -20 -20 -20 -20 -20 -20 -20 -20 -20 -20 -20 -20 -20
-20 -20 -20 -20 -20 -20 -20 -20 -20 -20 -20 -20 -19 -18 -20 -19 -3 8 7 9 8 -9 -3 -6 -11 -10 -19 -20 -20 -20 -20 -20 -20 -20 -20 -20 -20 -20 -20 -20 -20 -20 -20
-20 -20 -20 -20 -20 -20 -20 -18 -17 -10 3 11 11 10 12 6 -1 -0 -8 -8 -17 -16 -18 -19 -20 -20 -20 -20 -20 -20 -20 -20 -20 -20 -20 -20 -20 -20 -20 -20 -20 -20 -20
21 27 -4 0 4 22 19 12 17 13 -1 -8 -8 -11 -14 -19 -18 -7 -3 -3 -19 -20 -20 -20 -20 -20 -20 -20 -20 -20 -20 -20 -20 -20 -20 -20 -20 -20 -20 -20 -20 -20 -20
-12 10 -11 -12 -9 -11 -9 -7 -7 -6 -3 -4 -5 -3 -0 -0 5 7 6 7 7 -3 -20 -20 -20 -20 -20 -20 -20 -20 -20 -20 -20 -20 -20 -20 -20 -20 -20 -20 -20 -20 -20
-4 8 10 12 6 -11 -11 -11 -6 -1 1 5 8 13 11 7 5 5 5 3 4 2 -1 -0 -1 -6 -17 -20 -20 -20 -20 -20 -20 -20 -20 -20 -20 -20 -20 -20 -20 -20 -20
14 13 -0 -11 -14 -16 -17 -18 -15 -13 -9 -16 -16 -16 -11 -19 -20 -20 -20 -20 -20 -20 -20 -20 -20 -20 -20 -20 -20 -20 -20 -20 -20 -20 -20 -20 -20 -20 -20 -20 -20 -20 -20
-7 -5 -16 -20 -20 -20 -20 -20 -20 -20 -20 -20 -20 -20 -20 -20 -20 -20 -20 -20 -20 -20 -20 -20 -20 -20 -20 -20 -20 -20 -20 -20 -20 -20 -20 -20 -20 -20 -20 -20 -20 -20 -20
-3 -19 -20 -20 -20 -20 -20 -20 -20 -20 -20 -20 -20 -20 -20 -20 -20 -20 -20 -20 -20 -20 -20 -20 -20 -20 -20 -20 -20 -20 -20 -20 -20 -20 -20 -20 -20 -20 -20 -20 -20 -20 -20
-20 -20 -20 -20 -20 -20 -20 -20 -20 -20 -20 -20 -20 -20 -20 -20 -20 -20 -20 -20 -20 -20 -20 -20 -20 -20 -20 -20 -20 -20 -20 -20 -20 -20 -20 -20 -20 -20 -20 -20 -20 -20 -20
-20 -20 -20 -20 -20 -20 -20 -20 -20 -20 -20 -20 -20 -20 -20 -20 -20 -20 -20 -20 -20 -20 -20 -20 -20 -20 -20 -20 -20 -20 -20 -20 -20 -20 -20 -20 -20 -20 -20 -20 -20 -20 -20
-20 -20 -20 -20 -20 -20 -20 -20 -20 -20 -20 -20 -20 -20 -20 -20 -20 -20 -20 -20 -20 -20 -20 -20 -20 -20 -20 -20 -20 -20 -20 -20 -20 -20 -20 -20 -20 -20 -20 -20 -20 -20 -20
-20 -20 -20 -20 -20 -20 -20 -20 -20 -20 -20 -20 -20 -20 -20 -20 -20 -20 -20 -20 -20 -20 -20 -20 -20 -20 -20 -20 -20 -20 -20 -20 -20 -20 -20 -20 -20 -20 -20 -20 -20 -20 -20

GFSGL_prec_radar_078.txt.gz
Reflectivity
-20 -20 -20 -20 -20 -20 -20 -20 -20 -20 -20 -20 -8 -17 20 23 25 29 37 22 4 -2 16 19 32 19 12 22 -18 13 -20 -20 -20 -6 -20 -20 -20 -20 -20 -20 -20 -20 -20
-6 20 6 13 20 14 6 -14 -5 -20 8 7 -20 20 32 12 -3 -20 4 23 21 2 -3 -7 31 11 20 15 -14 -19 -20 -20 10 9 -20 -6 -20 -20 -20 -20 -20 -20 -20
-20 19 26 18 13 23 -11 -20 -20 -20 -19 17 13 22 12 13 -18 -20 -20 -20 -20 -19 18 28 28 24 21 -8 20 -17 1 5 1 -20 -7 -15 -20 -20 -20 -20 -20 -20 -20
-20 -2 5 -1 12 3 -14 -19 -20 -20 10 27 -20 -8 -20 -20 -13 -20 -20 -20 -20 8 4 30 25 4 -1 19 -3 -16 -17 -15 0 -20 -16 -20 -20 -20 -20 -20 -20 -20 -20
-20 -20 -20 -20 -20 -17 -15 2 -20 -11 -17 -20 -8 -19 -20 -20 -20 -20 -20 -20 -12 19 26 27 19 22 20 8 -4 1 -9 7 7 -20 -20 -20 -20 -20 -20 -20 -20 -20 -20
-20 -20 -20 -20 29 -20 9 26 -20 -20 -20 -20 -20 27 20 22 -14 9 -2 4 16 22 19 10 0 28 16 28 -16 8 1 -10 -20 -20 -20 -20 -20 -20 -20 -20 -20 -20 -20
-20 -20 -20 -20 -20 -20 -20 -20 -17 11 -3 -16 8 13 10 6 18 -1 7 12 10 11 5 18 -6 14 5 -11 15 7 -11 -10 -20 -20 -20 -20 -20 -20 -20 -20 -20 -20 -20
-20 -20 -20 -20 -20 -20 -20 -1 -20 -7 -20 10 5 5 2 3 16 13 17 2 18 11 11 13 9 -2 -5 4 -12 -14 -19 -20 -20 -20 -20 -20 -20 -20 -20 -20 -20 -20 -20
-20 -20 -20 -20 -20 -20 11 -20 -20 -18 12 17 13 9 8 11 19 17 13 0 8 9 13 -17 2 7 12 10 -4 -19 -20 -20 -20 -20 -20 -20 -20 -20 -20 -20 -19 -2 -20
-20 -19 7 3 -16 -20 -18 -19 13 13 18 15 19 23 20 18 20 19 14 -8 -9 -20 -11 3 14 4 10 -7 -20 -20 -20 -20 -20 -17 -16 -8 -2 -0 2 3 -0 -5 -18
-13 -15 -2 -16 -1 13 0 18 20 16 17 17 13 13 18 19 17 14 13 -4 -0 7 5 -7 -20 -18 -20 -20 -18 -20 -20 -6 -9 -2 -1 -2 -9 -1 4 2 -2 -7 -20
-18 -2 9 8 -2 8 20 17 15 15 14 11 12 11 14 9 16 13 12 12 11 -11 -19 -20 -19 -11 1 3 -8 -18 -20 -20 -20 -18 -20 -20 -20 -16 -16 -12 -11 -20 -16
8 4 -18 -9 7 11 14 14 13 13 -2 11 11 9 9 11 11 15 8 1 -19 -15 -0 -9 -9 -17 -20 -18 -20 -20 -20 -20 -20 -20 -20 -20 -20 -20 -20 -20 -20 -20 -20
-20 -17 -2 10 13 10 12 11 12 -9 -2 5 9 -20 -14 -20 -20 -14 7 11 7 -2 -13 -19 -2 -17 -20 -20 -20 -20 -20 -20 -20 -20 -20 -20 -20 -20 -20 -20 -20 -20 -20
-20 -17 -11 -18 -20 -20 -20 -20 -20 -20 -20 -20 -11 4 14 15 12 12 9 -7 -8 -11 -20 -20 -20 -20 -20 -20 -20 -20 -20 -20 -20 -20 -20 -20 -20 -20 -20 -20 -20 -20 -20
-20 -20 -20 -20 -20 -20 -5 2 -8 4 11 18 19 17 16 15 13 3 -13 -20 -20 -20 -20 -20 -20 -20 -20 -20 -20 -20 -20 -20 -20 -20 -20 -20 -20 -20 -20 -20 -20 -20 -20
-20 -20 -16 -6 17 24 15 10 2 6 -7 -19 -20 -20 -20 -20 -20 -20 -20 -20 -20 -20 -20 -20 -20 -20 -20 -20 -20 -20 -20 -20 -20 -19 -19 -20 -20 -20 -20 -20 -20 -20 -20
-15 15 -12 -10 -14 -0 1 -13 -20 -20 -20 -20 -10 -17 -3 -3 -2 -0 -8 -13 -17 -20 -19 -19 -19 -20 -20 -17 -13 -11 -8 -4 -9 -20 -20 -20 -20 -20 -20 -20 -20 -20 -20
1 7 -1 -7 -14 -19 -20 -20 -20 -20 -20 -20 -20 -20 -20 -20 -20 -20 -16 -17 -12 -6 -1 3 5 5 3 -10 -19 -20 -20 -20 -20 -20 -20 -20 -20 -20 -20 -20 -20 -20 -20
3 6 -8 -9 -16 -17 -20 -20 -20 -20 -20 -20 -20 -17 -20 -20 -20 -20 -20 -20 -20 -20 -20 -20 -20 -20 -20 -20 -20 -20 -20 -20 -20 -20 -20 -20 -20 -20 -20 -20 -20 -20 -20
6 6 -1 -16 -19 -20 -20 -20 -20 -20 -20 -20 -20 -20 -20 -20 -20 -20 -20 -20 -20 -20 -20 -20 -20 -20 -20 -20 -20 -20 -20 -20 -20 -20 -20 -20 -20 -20 -20 -20 -20 -20 -20
-4 -11 -15 -15 -14 -20 -20 -20 -20 -20 -20 -20 -20 -20 -20 -20 -20 -20 -20 -20 -20 -20 -20 -20 -20 -20 -20 -20 -20 -20 -20 -20 -20 -20 -20 -20 -20 -20 -20 -20 -20 -20 -20
8 6 -1 -14 -20 -20 -20 -20 -20 -20 -20 -20 -20 -20 -20 -20 -20 -20 -20 -20 -20 -20 -20 -20 -20 -20 -20 -20 -20 -20 -20 -20 -20 -20 -20 -20 -20 -20 -20 -20 -20 -20 -20
-4 -15 -20 -20 -20 -20 -20 -20 -20 -20 -20 -20 -20 -20 -20 -20 -20 -20 -20 -20 -20 -20 -20 -20 -20 -20 -20 -20 -20 -20 -20 -20 -20 -20 -20 -20 -20 -20 -20 -20 -20 -20 -20
-20 -20 -20 -20 -20 -20 -20 -20 -20 -20 -20 -20 -20 -20 -20 -20 -20 -20 -20 -20 -20 -20 -20 -20 -20 -20 -20 -20 -20 -20 -20 -20 -20 -20 -20 -20 -20 -20 -20 -20 -20 -20 -20
-20 -20 -20 -20 -20 -20 -20 -20 -20 -20 -20 -20 -20 -20 -20 -20 -20 -20 -20 -20 -20 -20 -20 -20 -20 -20 -20 -20 -20 -20 -20 -20 -20 -20 -20 -20 -20 -20 -20 -20 -20 -20 -20

GFSGL_prec_radar_081.txt.gz
Reflectivity
-20 -20 -20 -20 -20 -20 -20 -20 -20 -20 -20 -20 -20 -20 -20 -20 -20 -20 -20 1 17 20 18 17 6 35 28 14 33 30 35 19 -12 -20 -20 -20 -19 11 -18 -20 -20 -20 -20
-20 -20 -20 -20 -20 -20 -20 -2 -20 -20 -20 -20 -20 -20 -10 -20 -20 10 26 24 17 17 24 26 32 32 -12 17 37 29 21 12 -2 -3 12 -14 -12 -3 -20 -20 -20 -20 -20
28 12 9 -17 6 11 14 6 -20 -20 -20 -20 -20 -20 -18 -16 -1 16 27 19 9 -11 1 -20 -20 -20 4 6 23 24 10 16 4 -5 -14 -6 -20 -20 -20 -20 -20 -20 -20
-20 -20 -20 -14 -20 -18 -5 5 -20 -20 -20 -20 -20 -4 19 5 -6 3 -9 -4 -16 -20 -20 -13 -15 -3 -17 -5 28 13 11 22 -20 -20 -20 -20 -20 -20 -20 -20 -20 -20 -20
-20 -20 -20 -20 -20 -20 -20 -20 -13 -7 -20 -20 -20 16 -7 18 8 -18 3 19 -20 -20 -20 -12 9 13 -20 -2 23 24 -11 3 -8 -13 -8 -20 -20 -20 -20 -20 -20 -20 -20
-20 -20 -20 -20 -20 -20 -20 -17 -12 -19 20 -20 -20 -20 -20 8 24 20 20 20 -20 16 -15 -10 -15 4 22 19 11 19 15 24 22 -1 -11 -16 -20 -20 -20 -20 -20 -20 -20
-20 -20 -20 -20 -20 -20 -20 -20 -20 14 14 -14 -7 11 9 11 24 24 25 14 4 -19 15 -11 -0 11 15 5 -5 11 19 11 -1 -9 -4 -20 -20 -20 -20 -20 -20 -20 -20
-20 -20 -20 -20 -20 -20 -20 -20 -20 -19 8 15 9 10 13 12 22 12 16 10 -13 -4 10 18 7 19 19 -1 14 11 -3 -10 -13 -12 -19 -20 -20 -20 -20 -20 -20 -20 -20
-20 -20 -20 -20 -20 -12 -7 -20 6 15 5 -8 17 -1 7 17 19 17 19 0 17 6 4 7 6 -0 16 16 7 -13 -13 -19 -9 -19 -13 -20 -19 -20 -20 -20 -20 -20 -20
-20 -20 -20 -20 -20 2 15 20 -4 -8 13 16 -10 14 20 7 20 19 13 -13 -14 11 14 11 16 12 11 -2 -9 -9 4 -3 -16 -20 -20 -18 -7 -10 -20 -16 -20 -20 -20
-20 -18 2 -12 -13 -12 -19 -19 -20 -7 2 9 10 17 14 17 17 16 14 1 -6 1 10 7 -5 8 -3 -17 -18 -18 -20 -17 -9 -0 3 -5 -18 -12 -2 -7 -19 -20 -20
1 -15 -20 -20 -20 -18 -20 -18 -15 -7 18 15 15 15 14 12 18 13 8 1 -2 -16 -20 -20 -13 -13 -20 -20 -19 -18 -11 -10 -18 -20 -20 -19 -4 -6 -6 -19 -20 -20 -20
-20 -20 -17 -12 -9 -13 -16 -4 1 11 16 13 12 11 10 2 14 16 7 -20 -20 -20 -20 -20 -20 -20 -17 -1 3 -16 -20 -20 -20 -20 -20 -8 -17 -20 -20 -20 -20 -20 -20
-20 -20 -20 -20 -8 9 12 9 9 10 13 3 -3 7 5 9 4 -0 7 11 4 5 -1 -18 2 -2 -20 -20 -20 -20 -20 -20 -20 -20 -20 -20 -20 -20 -20 -20 -20 -20 -20
-20 -9 -11 -19 -15 -5 2 -9 -11 -13 -0 6 13 14 5 3 7 -6 -8 -14 -16 -20 -19 -20 -20 -20 -20 -20 -20 -20 -20 -20 -20 -20 -20 -20 -20 -20 -20 -20 -20 -20 -20
-20 -20 -20 -8 -20 -20 -20 -13 6 13 16 8 -4 -5 -7 -15 -16 -20 -20 -20 -20 -20 -20 -20 -20 -20 -20 -20 -20 -20 -20 -8 -8 -20 -20 -20 -20 -20 -20 -20 -20 -20 -20
25 10 20 21 19 -19 -20 -20 -18 2 -14 -17 -20 -20 -20 -20 -20 -5 -20 -20 -20 -20 -20 -20 -20 -20 -20 -20 -2 -2 -0 -1 -3 -20 -20 -20 -20 -20 -20 -20 -20 -20 -20
29 23 21 3 -7 8 7 -13 -15 -17 -18 0 -17 -20 -3 -17 -7 -20 -20 -20 -20 -20 -17 -1 0 1 1 0 0 1 -2 -16 -10 -16 -16 -3 -2 -1 -3 -9 -17 -4 -20
21 20 19 11 2 -4 -14 -20 -20 -20 -12 -1 -20 -20 -13 -13 -20 -20 -20 -20 -13 -1 0 1 3 2 2 1 3 3 3 2 1 1 0 -1 0 2 -1 -2 -2 -11 -20
11 11 6 -1 -12 -20 -20 -20 -20 -20 -20 -20 -20 -2 -10 -20 -20 -6 -2 -1 -1 -1 0 -1 0 1 2 2 4 3 4 3 2 1 0 2 4 3 3 1 1 2 -0
12 8 4 -16 -18 -20 -20 -20 -20 -20 -20 -20 -2 -13 -20 -20 -4 -3 -3 -3 -2 -1 -0 -1 -2 -1 -2 -0 0 2 2 2 1 -20 -2 -0 2 4 1 2 5 4 3
6 5 2 -12 -20 -20 -20 -20 -20 -20 -20 -20 -4 -20 -20 -20 -20 -8 -18 -20 -20 -20 -20 -20 -20 -20 -20 -20 -9 -7 -7 -2 -2 -3 1 1 1 2 2 3 2 1 2
-8 -8 -9 -18 -20 -20 -20 -20 -20 -20 -20 -20 -20 -20 -20 -20 -20 -20 -20 -20 -20 -20 -20 -20 -20 -20 -20 -20 -20 -20 -4 -11 -2 0 1 -0 -1 1 2 2 1 1 0
-18 -20 -20 -20 -20 -20 -20 -20 -20 -20 -20 -20 -20 -20 -20 -20 -20 -20 -20 -20 -20 -20 -20 -20 -20 -20 -20 -20 -20 -20 -20 -5 -0 -1 -1 1 -1 -4 1 1 -1 -2 -1
-20 -20 -20 -20 -20 -20 -20 -20 -20 -20 -20 -20 -20 -20 -20 -20 -20 -20 -20 -20 -20 -20 -20 -20 -20 -20 -20 -20 -20 -20 -20 -20 -20 -20 -18 -20 -20 -20 -20 -19 -20 -20 -9
-20 -20 -20 -20 -20 -20 -20 -20 -20 -20 -20 -20 -20 -20 -20 -20 -20 -20 -20 -20 -20 -20 -20 -20 -20 -20 -20 -20 -20 -20 -20 -20 -20 -20 -20 -20 -20 -20 -20 -20 -20 -13 -20

GFSGL_prec_radar_084.txt.gz
Reflectivity
-20 -20 -20 -20 -20 -20 -20 -20 -20 -20 -20 -20 -20 -20 -20 -20 -20 -20 -20 -20 -20 -20 2 -2 4 28 -5 23 30 36 30 32 26 27 29 5 1 -20 -20 -20 -10 -20 -20
-20 -20 -20 -20 -20 -20 -20 -20 -20 -20 -20 -20 -20 -20 -20 -20 -20 -20 -20 -20 -20 -20 -20 11 -0 17 -3 16 -3 11 25 31 8 21 -0 25 24 10 -3 -1 -5 -20 -20
-20 -20 -20 -20 -20 -18 -3 -20 -20 -17 -20 -20 -20 -20 -20 -20 -20 -20 -20 -20 -20 -20 12 -20 -1 4 6 4 -20 -20 10 -5 -10 -8 25 21 25 21 19 13 -13 -20 -20
-20 -20 -20 -20 -20 -20 -20 -20 -20 -20 -20 -20 -20 -20 -20 -20 -20 -20 -20 -13 -13 -20 -20 -20 -20 -16 6 12 -15 20 13 -20 -12 21 20 31 29 18 7 -16 -14 -19 -20
-20 -20 -20 -19 -20 -20 -20 -20 -20 -20 -20 -20 -20 -20 -20 -20 -20 -20 -4 -14 -5 -20 4 -13 -20 11 21 7 -1 10 -6 24 22 10 3 20 24 17 4 -20 -20 -20 -20
-20 -20 -20 -20 -20 -3 -20 -20 -20 -20 -20 -20 -20 -18 -20 -20 -14 -0 -9 16 -3 9 22 24 15 15 22 16 16 14 10 10 7 12 -1 20 20 9 -18 -20 -20 -20 -20
-20 -20 -20 -20 -20 -20 -20 -20 -20 -10 7 14 2 -20 -20 -20 -8 9 16 5 7 13 12 12 9 11 17 -1 15 14 18 13 13 14 16 8 2 -14 -18 -18 -20 -20 -20
-20 -20 -20 -20 -20 -20 -20 -20 -20 -3 -17 -20 -20 -20 -20 -7 15 -4 -7 2 2 4 3 9 8 14 18 16 11 10 10 13 4 6 1 -4 -18 -18 -20 -20 -20 -20 -20
-20 -20 -20 -20 -20 -20 -20 -20 -16 -20 -20 -20 -20 -18 -4 -0 14 -14 -20 -5 5 14 12 11 22 22 31 14 9 -2 2 -9 1 -9 -19 -20 -20 -19 -20 -20 -20 -20 -20
-20 -20 -20 -20 -20 -20 -20 -20 -20 -20 -16 -9 -7 -2 17 1 19 -0 4 -7 8 8 4 18 23 5 11 10 4 -10 -19 -20 -20 -20 -20 -18 -8 -20 -20 -20 -20 -20 -20
-20 -20 -20 -20 -20 -20 -20 -19 -14 -6 -3 -7 -2 -7 0 -2 14 19 19 11 6 8 4 0 1 13 9 5 -0 -20 -15 -11 -14 -14 -20 -20 -20 -20 -20 -20 -20 -20 -20
-20 -20 -20 -20 -20 -14 -18 -11 -4 -10 -15 -3 -4 3 6 12 22 18 16 14 12 1 -19 -20 -12 1 -20 -20 -4 11 8 -11 -20 -20 -20 -20 -20 -20 -20 -20 -20 -20 -20
-20 6 -11 -13 -20 -10 -12 -18 -3 -8 -7 -4 -9 -0 5 6 5 21 10 1 -7 -10 -15 -20 -19 -19 -19 -19 -20 -20 -20 -20 -20 -20 -20 -20 -20 -20 -20 -20 -20 -20 -20
-9 -12 -13 -8 -15 -14 -17 -19 -12 -8 -12 10 3 2 4 6 -2 -5 8 11 8 5 7 9 6 -8 -20 -20 -20 -20 -20 -20 -20 -20 -20 -20 -20 -20 -20 -20 -20 -20 -20
7 12 -6 -12 -4 -20 -12 -5 7 -7 10 8 3 2 -1 -5 3 -3 -7 0 -5 -9 -20 -20 -20 -20 -20 -20 -20 -20 -20 -13 -1 1 1 1 -1 -3 -1 -20 -20 -20 -20
-16 -20 -9 -20 -19 0 14 5 13 13 14 18 14 2 -8 -15 -19 -20 -20 -20 -20 -20 -8 -7 1 -0 -0 -2 -2 -2 -1 -1 3 -2 0 0 1 4 -5 -17 -20 -20 -20
-20 -20 -20 -19 6 15 25 22 29 24 20 20 21 14 -20 -5 -11 -20 -20 -20 -20 -20 -1 -3 3 1 0 -3 -2 -1 3 3 2 0 -1 3 -18 -20 -20 -20 -20 -20 -20
28 36 32 30 30 29 27 22 19 14 8 5 -0 -6 -2 -18 -14 -20 -20 -20 -6 -17 -20 -4 0 1 -0 1 -0 1 -3 4 -9 -17 -13 -20 -20 -20 -20 -20 -20 -18 -20
27 26 25 21 12 10 11 7 3 -1 -3 0 -1 -7 -6 -20 -20 -20 -20 -4 -4 -3 -14 -12 -1 -1 -0 -1 -8 -17 -8 -20 -20 -8 -11 -9 -4 -6 -7 -2 -17 -10 -8
25 18 16 16 16 9 6 -6 -11 -8 -5 -1 -2 0 0 -2 -1 -3 -2 -1 -1 -3 -2 -4 -3 -1 1 2 1 -11 -2 -20 -20 2 -4 -20 -20 -12 -20 -12 -11 -12 -20
18 21 21 20 12 -11 -0 8 9 3 -3 -3 -1 -20 -20 -6 0 -1 -2 -1 -3 -1 2 -1 -0 1 -20 -15 -20 1 1 3 3 2 -17 -20 3 5 -1 -13 -5 -19 -20
-2 5 5 -10 -11 -6 -8 -15 -11 -16 -11 -4 -0 -18 -20 -5 -5 -5 -2 1 3 1 0 -1 -1 -2 -20 -2 -1 2 2 2 2 2 3 2 3 -19 -20 -11 -20 -14 -6
-7 -15 -18 -20 -20 -20 -20 -20 -5 -4 -10 -6 -7 -6 -5 0 0 -2 0 2 -0 -2 -1 -4 -2 -20 -20 -3 -2 -1 1 1 2 2 3 4 4 4 5 6 4 -5 -5
-20 -20 -20 -20 -20 -20 -20 -20 -20 -20 -20 -3 -0 -1 -1 -1 1 -1 -2 -1 -20 -4 -5 -2 -11 -20 -20 -20 -4 -3 -17 -4 -0 0 1 3 3 2 4 4 3 -1 -0
-20 -20 -20 -20 -20 -20 -20 -20 -20 -20 -20 -4 -3 -2 -20 -20 -20 -3 -6 -19 -20 -20 -20 -20 -13 -20 -20 -20 -20 -20 -20 -20 -11 -18 -1 0 2 1 2 2 2 3 3
-20 -20 -20 -20 -20 -20 -20 -20 -20 -20 -20 -20 -3 -2 -4 -20 -20 -6 -13 -20 -20 -20 -20 -20 -20 -20 -20 -20 -20 -20 -20 -20 -20 -20 -3 -1 -0 -1 -0 2 1 3 3

GFSGL_prec_radar_087.txt.gz
Reflectivity
-8 -13 -8 -20 10 12 5 -20 -20 -20 -20 -20 -20 -20 -17 -20 -20 -20 -20 -16 -20 -11 -17 -20 -2 21 24 -10 17 2 9 30 8 -3 24 12 21 -1 3 -6 7 9 -3
-20 -14 -8 -20 -19 -19 7 -4 -20 -20 -20 -20 -20 7 -20 -20 -18 -19 -20 -20 -20 -20 14 25 21 10 9 13 14 -16 -14 4 4 -19 -11 -20 7 -20 -15 23 25 25 -20
-20 -20 -20 -1 -10 -14 -20 -20 -4 -19 -20 -20 -20 -20 -20 -20 -20 -20 -20 -20 -16 16 16 -6 -15 -7 -13 -11 14 -12 6 18 22 24 21 37 13 7 23 20 -9 25 20
-20 -20 -20 -20 -20 -20 -13 2 1 -3 1 -3 -10 -6 -18 -20 -20 -20 -20 -19 -3 -14 -14 -15 -17 -20 -20 -20 -20 8 11 1 2 20 20 9 8 16 18 7 24 13 14
-20 -20 -20 -20 -20 -20 -16 2 -3 -20 3 6 8 9 2 -20 -20 -20 -20 -20 -20 -9 -4 -20 -6 8 22 12 8 11 10 18 3 21 15 3 9 15 27 8 8 16 13
-20 -20 -20 -20 -20 -20 -20 -20 -20 -20 -20 -20 -20 -20 -20 -20 -20 -20 -20 18 20 -20 -19 7 2 28 17 23 19 17 12 21 14 1 10 -3 -2 0 11 15 21 15 3
-20 -20 -20 -20 -20 -20 -20 -20 -20 -20 -20 -20 -20 -20 -3 9 -5 1 8 -15 2 -7 12 20 20 20 21 17 19 28 23 24 22 14 19 28 13 21 20 12 9 -13 -20
-20 -20 -20 -20 -20 -20 -20 -20 -20 -20 -20 -3 -12 -14 -20 -20 -20 3 15 13 13 -2 8 8 15 23 15 22 23 -1 17 17 20 25 14 18 8 11 10 3 2 4 -3
-20 -20 -20 -20 -20 -20 -20 -20 -20 -20 -20 -20 -20 -20 -20 -19 18 16 14 7 -10 -12 6 12 14 20 32 15 18 14 24 17 19 10 -2 1 -4 -17 -3 13 0 4 -18
-20 -18 -20 -20 -20 -20 -20 -20 -20 -20 -20 -20 -15 -8 22 -3 18 4 12 -8 -20 -20 -13 2 25 10 14 13 4 -3 -10 -18 -16 -17 -18 -17 2 3 1 0 -10 -20 -20
-10 13 -20 -20 -20 -20 -20 -20 -20 -20 -20 16 12 -9 10 17 14 16 9 -9 -9 -1 8 15 19 22 11 5 6 -7 -18 -19 -20 -16 -16 -15 1 -20 -20 -20 -20 -19 -14
17 3 0 16 8 -20 -20 -20 -20 1 18 -16 -14 -5 3 2 11 12 11 16 19 5 6 -5 -4 7 -4 -10 -18 -16 -8 3 7 8 -7 -20 -20 -20 -20 -20 -17 -17 -20
6 10 5 -4 -2 -20 -19 21 26 18 14 14 -20 -9 -13 -13 5 19 18 15 15 7 -19 -20 -13 -13 -18 -19 -19 -19 -19 -20 -20 -20 -20 -20 -20 -20 -20 -20 -20 -20 -20
-15 3 6 15 19 20 25 22 16 23 18 -1 1 2 9 -4 7 2 9 10 9 -3 -1 -1 -5 -20 -20 -14 -19 -20 -20 -20 -20 -20 0 -18 -20 -17 -2 -1 3 -3 -1
10 13 4 24 17 14 18 9 15 28 19 18 15 10 13 20 12 16 18 3 -4 -6 -17 -20 -20 -20 -20 -7 -4 2 1 -12 -11 4 -12 -4 -2 -4 -0 3 4 -5 6
22 23 21 18 22 15 12 9 17 20 14 18 22 25 26 24 26 26 23 12 -3 -19 -10 -2 6 2 -12 -17 -7 -20 -20 -4 -7 -20 -4 2 3 5 -15 -16 -9 8 12
23 24 27 28 -5 5 12 11 20 22 25 27 27 28 26 23 19 16 6 -11 -19 -16 -3 3 4 1 -4 -6 1 -2 -4 -7 -12 3 3 5 1 -18 3 7 10 11 13
36 32 32 31 31 29 26 26 27 25 19 15 16 14 13 10 9 13 13 14 7 3 -2 -6 -1 -2 -9 -8 -20 -8 -3 -1 1 2 1 5 5 6 2 7 -11 12 -7
17 23 25 27 27 22 20 18 21 22 17 13 14 15 15 15 9 3 -4 -4 -10 -20 -20 -20 -20 -20 -20 -20 -4 -1 0 2 1 3 3 -4 6 4 5 0 3 9 9
17 23 22 22 22 20 17 19 19 15 6 8 12 15 11 7 -0 2 -2 -5 -20 -20 -20 -20 -20 -20 -6 -4 -2 0 0 -2 -1 0 1 1 3 7 6 2 -1 10 6
11 16 16 19 20 16 2 0 1 5 6 0 -8 -9 -20 -19 -20 -20 -20 -8 -20 -20 -3 -9 -6 -2 -3 -1 -3 -0 1 1 1 -0 1 3 4 3 3 5 -13 7 -12
-7 0 1 -1 -1 3 -0 -1 -12 -20 -20 -7 -18 -20 -20 -20 -20 -20 -11 -2 -1 -5 -5 -4 -3 -2 -4 -1 0 2 -1 -0 1 2 2 0 1 1 4 5 7 10 10
-5 -8 -11 -15 -20 -20 -20 -20 -20 -20 -20 -20 -20 -11 -15 -3 -4 -11 -3 -2 -6 -4 -2 -4 -1 -2 -2 -2 -2 -0 1 0 0 0 2 2 1 2 5 -8 -1 8 9
-20 -20 -20 -20 -20 -20 -20 -20 -20 -20 -20 -2 -2 -3 -4 -3 -3 -4 -3 -2 -5 -2 -1 -1 -3 -6 -18 -19 -3 -3 -18 -4 -3 -2 0 1 1 -16 -2 3 3 3 9
-20 -20 -20 -20 -20 -20 -20 -20 -17 -18 -5 -5 -4 -4 -18 -4 -4 -0 0 -2 -4 -6 -20 -20 -2 -16 -20 -20 -20 -19 -3 -5 -11 -20 -3 -1 -2 -2 4 5 6 4 7
-20 -20 -20 -20 -20 -20 -15 -14 -4 -12 -5 -4 -1 -1 -1 -3 -1 -0 -1 -5 -20 -20 -20 -12 -20 -20 -20 -20 -4 -5 -20 -20 -20 -20 -7 -2 0 -1 1 1 1 9 6

GFSGL_prec_radar_093.txt.gz
Reflectivity
-5 -17 -20 -20 -7 -16 -20 -20 -20 -20 -20 -20 -20 -20 -20 -20 -20 -9 -15 8 13 -20 -20 -8 -20 -20 -5 -20 -20 -20 -20 -20 9 -14 -20 -20 -17 -8 -20 -20 -20 -20 -13
-2 -20 8 -20 -14 -17 -20 -20 -20 -20 -20 -20 -20 -20 -20 -20 -20 -20 -18 -20 -20 -20 -20 13 -20 14 24 25 -20 -20 -20 -20 5 3 -20 -10 3 7 -20 -20 -20 -10 -12
-20 -20 -20 -13 -20 -20 -20 -20 -20 -20 -20 -20 -20 -20 -20 -20 -20 -4 8 -3 -4 22 9 15 -15 20 -20 -19 20 -16 15 5 -0 -11 -13 -1 23 12 -17 21 32 12 27
-20 -20 -20 -20 -20 1 -20 -20 -20 -20 -20 -20 -20 -20 -20 -20 -20 -20 -20 -20 -20 -20 -20 0 22 -12 -20 -17 -20 -20 -20 -20 15 -0 -1 24 18 14 12 20 2 20 24
-20 -20 -20 -20 7 -17 -20 -20 -20 -20 -20 -20 -20 -20 -20 -20 -20 -20 -20 -18 -14 -20 -20 22 -10 -20 -20 -20 -20 -20 -20 -18 15 19 15 4 25 24 11 8 20 -2 17
-20 -20 -20 -20 -20 -17 4 2 -20 -20 -20 -20 -20 -20 -20 -20 -20 -20 -20 -20 -20 -2 20 -19 -20 -20 -0 -3 5 3 10 8 11 18 28 4 5 25 10 12 26 16 22
-20 -20 -20 -20 -20 -20 -20 -20 -0 2 5 -20 -20 -20 -20 -20 -20 -20 -20 -19 5 21 21 -10 -0 -17 -0 -20 9 13 31 30 18 12 0 17 7 13 21 25 16 11 17
-20 -20 -20 -20 -20 -20 -20 -20 7 -20 -20 10 9 -1 -2 -19 -5 -17 -20 -18 -20 17 15 16 -13 -8 4 32 30 43 15 27 4 -18 -8 20 25 21 19 2 -6 -20 -20
-20 -20 23 22 -20 -20 -20 -20 -20 13 -20 -17 -20 7 14 14 18 18 14 17 7 -2 17 -6 -11 7 36 28 28 19 38 28 11 9 6 0 2 2 -2 -18 -20 -20 -20
-14 -20 24 -20 -20 -20 -20 -12 -20 -20 -20 -2 1 1 21 8 19 16 13 16 17 13 15 6 28 16 29 27 24 17 -9 8 9 9 16 15 -6 -15 -19 -20 -20 -20 -20
-20 22 9 3 11 -15 -19 -20 -20 -2 -11 -4 22 10 5 5 9 16 16 11 7 -1 18 27 23 32 25 18 9 11 19 5 2 9 13 16 14 5 -9 -20 -20 -20 -20
20 24 26 29 29 12 -18 -18 -5 -10 10 16 12 15 21 22 23 16 15 14 18 9 17 16 21 26 25 21 13 14 13 12 15 14 10 8 10 6 -20 -20 -20 -20 -20
10 22 26 26 27 24 11 -2 -2 0 12 17 8 -1 3 16 13 31 21 26 28 21 16 23 29 29 22 14 19 19 21 20 18 11 0 -1 -1 -15 -20 -20 -20 -20 -11
-18 10 20 19 23 22 23 23 23 29 27 18 24 9 20 24 27 30 26 36 40 31 27 28 30 25 22 20 19 15 8 -5 2 3 6 3 2 -4 -2 -1 -5 -19 -20
-5 -7 23 22 22 17 11 -0 2 15 30 41 32 33 45 26 27 38 40 33 36 36 37 30 23 20 18 13 9 10 8 4 -1 4 2 0 -4 -13 -20 -20 -20 -20 -20
19 -9 12 11 23 33 15 17 20 24 33 38 36 30 31 24 27 30 32 31 29 29 28 26 15 12 10 8 8 7 -1 -7 -19 -20 -20 -20 -20 -20 -20 -20 -20 -20 -20
2 20 22 29 31 26 23 28 30 28 25 26 27 23 25 28 29 28 27 23 22 20 19 18 14 10 5 1 2 -4 -20 -20 -20 -20 -20 -20 -20 -20 -20 -20 -20 -20 -20
2 4 19 27 29 28 27 29 30 29 30 29 29 28 30 29 27 25 21 20 20 19 19 16 12 10 7 2 -3 -11 -20 -20 -20 -20 -20 -20 -20 -20 -20 -20 -20 -20 -20
2 6 4 16 19 20 21 22 24 25 25 25 25 21 21 20 20 19 17 13 9 3 1 -1 -3 -1 -11 -17 -19 -20 -20 -20 -20 -20 -20 -20 -20 -20 -20 -20 -20 -20 -20
-3 -8 -6 -8 0 8 14 15 14 12 10 12 12 12 11 5 -7 -11 -14 -12 -19 -20 -20 -20 -20 -20 -20 -20 -20 -20 -20 -20 -20 -20 -20 -20 -20 -20 -20 -20 -20 -20 -20
-20 -16 -16 -16 -12 -18 -13 -7 5 1 -10 -0 -5 -7 -19 -20 -20 -20 -20 -20 -20 -20 -20 -20 -20 -20 -20 -20 -20 -20 -20 -20 -20 -20 -20 -20 -20 -20 -20 -20 -20 -20 -20
-16 -16 -9 -2 2 3 -1 -9 -17 -20 -20 -20 -20 -20 -19 -20 -20 -20 -20 -20 -20 -20 -20 -20 -20 -20 -20 -20 -20 -20 -20 -20 -20 -20 -20 -20 -20 -20 -20 -20 -20 -20 -20
-5 -12 -17 -18 -19 -20 -20 -20 -20 -20 -20 -20 -20 -20 -20 -20 -20 -20 -20 -20 -20 -20 -20 -20 -20 -20 -20 -20 -20 -20 -20 -20 -20 -20 -20 -20 -20 -20 -20 -20 -20 -20 -20
5 4 -9 -20 -20 -20 -20 -20 -20 -20 -20 -20 -20 -20 -20 -20 -20 -20 -20 -20 -20 -20 -20 -20 -20 -20 -20 -20 -20 -20 -20 -20 -20 -20 -20 -20 -20 -20 -20 -20 -20 -20 -20
0 3 -0 -20 -20 -20 -20 -20 -20 -20 -20 -20 -20 -20 -20 -20 -20 -20 -20 -20 -20 -20 -20 -20 -20 -20 -20 -20 -20 -20 -20 -20 -20 -20 -20 -20 -20 -20 -20 -20 -20 -20 -20
1 1 0 -9 -20 -20 -20 -20 -20 -20 -20 -20 -20 -20 -20 -20 -20 -20 -20 -20 -20 -20 -20 -20 -20 -20 -20 -20 -20 -20 -20 -20 -20 -20 -20 -20 -20 -20 -20 -20 -20 -20 -20

GFSGL_prec_radar_096.txt.gz
Reflectivity
-20 -20 -20 -20 -20 -20 -20 -20 -20 -20 -20 -20 -20 -20 19 12 -12 -14 -20 -20 -20 4 -19 -18 14 -20 -20 -7 -20 -20 -20 19 19 -20 -20 -20 -20 -20 -20 -20 -16 14 12
-20 -20 -20 -20 -20 -20 -20 -20 -18 -20 -20 -20 -20 -20 -20 -20 -20 -11 -20 -20 15 17 -20 10 -20 8 28 -20 -20 -20 -20 -19 22 -20 -20 -20 -20 -20 -20 -20 -20 -14 14
-20 -20 -10 -20 -20 -20 -20 -5 -20 -20 -20 -20 -20 -20 -20 -20 -20 -20 -20 -20 -16 -18 -20 -20 -6 11 -20 -20 -20 -20 -20 -20 -20 16 -19 -20 -20 -20 -20 -20 -20 -13 1
-20 -20 -17 -2 -20 -12 -20 -20 -20 -20 -20 -20 -20 -20 -20 -20 -20 -20 -20 -20 -20 -19 -16 -20 -20 -20 -20 -20 -20 -20 -20 -20 -9 17 19 -4 -20 -20 3 -2 -7 -19 21
-20 -20 -20 -14 -4 -14 -18 10 -14 -20 -20 -20 -20 -20 -20 -20 -20 -20 -20 -20 -20 -7 -20 -20 -20 -20 -15 -20 -20 -20 -13 17 21 17 -9 -6 -17 23 7 10 -12 -20 -2
-20 -20 -20 -20 6 -3 -0 -20 -17 -20 -20 -20 -20 -20 -20 -20 -20 -20 -20 -20 -20 -20 -20 -20 -20 -17 -10 -3 1 21 21 20 20 13 11 28 27 22 34 -17 -20 -0 -16
18 -16 -6 -20 -20 -20 -14 2 -13 -19 -20 -20 -20 -20 -20 -20 -20 -20 -20 -20 -20 -20 -20 -15 -20 -20 -17 -11 -3 14 13 14 9 -0 32 30 18 26 37 -20 -20 -20 -20
14 10 4 -20 2 -4 -20 -20 3 7 -20 -20 -20 -20 -20 -20 -20 -19 -20 -20 -20 -20 -20 -20 -20 -13 -10 2 -1 -13 -7 5 16 6 10 23 37 40 22 -4 -20 -20 -19
22 -8 -4 33 -20 -20 -17 -20 -17 -1 3 4 -20 -20 -20 -20 11 13 11 14 -3 13 13 9 9 14 31 20 10 16 9 16 25 22 21 26 16 14 1 -5 -15 -15 -20
23 -5 20 20 27 26 -15 -13 -20 0 -17 -17 17 -1 4 5 17 15 10 10 11 12 8 15 36 27 36 20 10 33 24 16 19 23 23 26 18 4 8 -7 -18 -19 -12
-20 -9 -16 25 19 16 22 23 -1 -20 -8 22 12 15 -17 12 13 23 20 7 -2 13 14 28 6 25 31 28 35 17 27 27 31 27 27 16 15 6 1 -1 -10 -20 -20
-20 -20 -20 -19 24 23 23 30 12 7 -7 11 -1 12 17 12 31 31 19 27 29 20 15 23 31 36 33 23 19 21 22 20 22 28 30 28 24 15 -5 -20 -20 -20 -20
0 -19 -20 -2 -4 22 25 26 28 25 28 25 14 5 16 17 25 30 33 25 19 22 22 27 29 25 24 25 25 22 26 28 30 29 27 22 14 3 -17 -5 -4 -16 -20
-2 4 -5 -5 22 30 25 25 25 33 40 28 37 27 6 9 16 21 13 19 25 25 26 25 30 33 33 37 35 32 29 28 25 19 12 11 9 -5 -20 -20 -20 -20 -20
-20 -16 -20 -1 5 13 21 25 26 27 35 28 15 23 2 13 23 30 36 38 34 36 37 34 25 26 29 29 26 23 20 17 15 15 13 8 -8 -20 -20 -13 -20 -20 -20
-20 -20 -16 -20 -20 -12 1 19 28 28 30 29 27 29 30 22 28 33 32 30 31 29 26 22 15 15 15 11 10 8 8 1 -12 -13 -10 -6 -2 6 -11 -20 -20 -20 -20
-20 -20 -20 -18 -18 -15 -13 -11 7 22 36 42 39 32 29 22 24 26 25 22 20 18 14 16 14 12 13 14 15 13 15 12 7 4 4 -1 -18 -20 -20 -20 -20 -20 -20
-20 -20 -20 -20 -18 -18 -16 -3 8 17 18 20 24 26 26 24 21 18 16 14 12 12 13 15 15 13 9 8 5 6 3 -5 -17 -20 -20 -20 -20 -20 -20 -20 -20 -20 -20
-20 -20 -20 -20 -19 -20 -14 -5 0 8 15 18 18 18 16 16 16 16 14 10 8 8 7 1 -6 -4 -5 -17 -19 -20 -20 -20 -20 -20 -20 -20 -20 -20 -20 -20 -20 -20 -20
-12 -16 -20 -20 -20 -19 -20 -19 -7 0 5 7 8 10 8 2 -8 -19 -19 -20 -20 -20 -20 -20 -20 -20 -20 -20 -20 -20 -20 -20 -20 -20 -20 -20 -20 -20 -20 -20 -20 -20 -20
-16 -14 -17 -19 -17 -17 -20 -20 -20 -18 -18 -19 -19 -20 -20 -20 -20 -20 -20 -20 -20 -20 -20 -20 -20 -20 -20 -20 -20 -20 -20 -20 -20 -20 -20 -20 -20 -20 -20 -20 -20 -20 -20
-10 -19 -15 -14 -14 -18 -20 -20 -20 -19 -20 -20 -20 -20 -20 -20 -20 -20 -20 -20 -20 -20 -20 -20 -20 -20 -20 -20 -20 -20 -20 -20 -20 -20 -20 -20 -20 -20 -20 -20 -20 -20 -20
-2 6 4 2 -13 -20 -20 -20 -20 -20 -20 -20 -20 -20 -20 -20 -20 -20 -20 -20 -20 -20 -20 -20 -20 -20 -20 -20 -20 -20 -20 -20 -20 -20 -20 -20 -20 -20 -20 -20 -20 -20 -20
-7 -9 -15 -20 -20 -20 -20 -20 -20 -20 -19 -20 -20 -20 -20 -20 -20 -20 -20 -20 -20 -20 -20 -20 -20 -20 -20 -20 -20 -20 -20 -20 -20 -20 -20 -20 -20 -20 -20 -20 -20 -20 -20
-20 -20 -20 -20 -20 -20 -20 -20 -20 -20 -20 -20 -20 -20 -20 -20 -20 -20 -20 -20 -20 -20 -20 -20 -20 -20 -20 -20 -20 -20 -20 -20 -20 -20 -20 -20 -20 -20 -20 -20 -20 -20 -20
-20 -20 -20 -20 -20 -20 -20 -20 -20 -20 -20 -20 -20 -20 -20 -20 -20 -20 -20 -20 -20 -20 -20 -20 -20 -20 -20 -20 -20 -20 -20 -20 -20 -20 -20 -20 -20 -20 -20 -20 -20 -20 -20

GFSGL_prec_radar_099.txt.gz
Reflectivity
-19 -20 -20 -20 -20 -20 -20 -9 -20 -20 -20 -13 2 3 5 24 20 15 6 20 8 1 22 0 -20 -11 -14 -20 -15 29 22 17 -10 -11 -20 -20 -20 -20 -20 -20 -20 -20 -20
-20 -20 -20 -20 -20 -20 -20 -20 -20 -20 -20 -20 -20 -20 11 19 17 15 15 23 2 3 4 -11 -18 -9 10 12 -13 -19 -18 19 -19 -20 -20 -20 -20 -20 -20 -20 -20 -20 -20
-16 -20 -20 -20 -20 -20 -20 -20 -20 -20 -20 -20 -20 -20 -20 -12 -1 4 -10 -20 -20 -20 -20 -18 -13 13 5 13 -1 -20 -20 -20 0 9 -20 -20 -20 -20 -20 -20 -20 -18 -3
-20 -11 -20 -20 -20 -20 -20 -20 -20 -20 -20 -20 -20 -20 -20 -20 -20 -20 -20 -20 -20 -20 -20 -15 -5 -9 -2 15 17 2 -16 11 13 11 13 -4 -20 -20 -20 -20 -0 7 8
27 -20 -20 -20 -20 -20 -20 -20 -20 -20 3 -20 -20 -20 -20 -20 -20 -20 -20 -20 -20 -20 -20 -17 -14 5 9 16 18 12 16 15 10 6 6 -20 -20 -20 -8 13 -11 15 26
-20 8 -17 -20 -20 -20 -20 -20 -20 -20 -4 2 -20 -20 -20 -20 -20 -20 -20 -20 -20 -20 -20 -20 -20 -0 6 10 24 20 16 12 -13 -20 -20 -20 -3 -2 3 15 22 24 22
28 20 -11 -18 -20 -17 -14 -20 -20 -20 -20 -15 -20 -20 -20 -20 -20 -20 -20 -20 -20 -20 -20 -20 -20 -20 -11 -10 3 5 6 4 9 -8 -19 -9 18 28 32 20 22 19 18
29 19 24 3 -2 -20 -1 4 -3 -8 -20 8 -9 -20 -20 -20 -20 -20 -20 -20 -20 -20 -20 -18 -0 -17 -8 -6 -20 -20 -20 -9 12 12 11 20 12 15 21 33 32 14 11
-10 19 18 17 -2 2 27 26 16 14 10 6 1 -10 -20 -20 -20 -20 -20 -20 -20 -20 -20 -20 -20 -20 13 10 -20 -20 -20 3 32 29 23 33 22 34 24 6 8 13 21
8 17 -15 -18 -13 9 -19 -20 19 20 16 -17 -2 6 12 -13 4 -20 8 -13 -5 9 13 8 17 12 18 15 9 5 19 23 23 28 29 20 22 23 14 19 25 27 25
-20 -20 7 13 10 7 4 5 17 4 -12 21 5 11 0 -6 -9 3 -7 2 15 15 17 16 -5 19 12 19 19 -0 17 27 24 20 23 24 23 22 22 20 15 16 14
-20 -20 -20 -20 -15 -4 17 18 19 13 25 27 26 33 29 28 29 23 23 21 22 -4 15 14 21 32 25 26 23 23 24 23 26 29 31 29 22 21 23 22 20 14 12
-20 -20 -20 -20 -3 13 16 19 21 16 22 17 -3 9 37 44 23 33 28 20 16 17 23 30 34 30 20 22 24 26 27 24 21 26 28 27 25 23 19 17 14 14 11
-7 -20 -20 -20 -13 -9 9 24 28 22 21 18 20 13 30 33 34 39 35 27 31 25 28 31 31 34 34 32 32 32 30 25 24 22 20 17 15 9 7 5 2 3 -4
-20 -20 -20 -20 -20 -20 -11 -0 7 24 32 25 24 36 39 14 17 22 27 28 26 23 13 21 26 30 30 29 26 24 21 19 17 15 3 -11 -15 -15 -14 -7 4 8 5
-20 -20 -20 -20 -20 -20 -20 -9 9 13 0 12 19 18 21 29 34 35 33 28 29 30 30 22 24 27 26 24 17 16 14 15 14 10 6 5 3 -0 2 -10 -20 -20 -20
-20 -20 -20 -20 -20 -20 -20 -20 -16 -10 -1 12 16 19 19 29 34 33 33 30 32 33 32 21 18 20 18 16 14 11 9 6 -0 -15 -8 -6 -1 -19 -20 -20 -20 -20 -20
-20 -20 -20 -20 -20 -20 -20 -20 -20 -20 -20 -16 -11 -3 8 14 19 21 21 21 22 21 19 17 17 16 13 2 -2 1 -6 -20 -20 -20 -20 -20 -20 -20 -20 -20 -20 -20 -20
-20 -20 -20 -20 -20 -20 -20 -20 -20 -20 -17 -8 6 8 11 10 10 7 -1 -4 -10 -13 -16 -19 -19 -20 -20 -20 -20 -20 -20 -20 -20 -20 -20 -20 -20 -20 -20 -20 -20 -20 -20
-18 -20 -20 -20 -20 -20 -20 -20 -20 -20 -19 -13 -5 4 9 8 4 -5 -8 -18 -19 -14 -15 -20 -20 -20 -20 -20 -20 -20 -20 -20 -20 -20 -20 -20 -20 -20 -20 -20 -20 -20 -20
-17 -17 -19 -20 -20 -20 -20 -20 -20 -20 -20 -20 -20 -20 -20 -19 -18 -8 -20 -20 -20 -20 -20 -20 -20 -20 -20 -20 -20 -20 -20 -20 -20 -20 -20 -20 -20 -20 -20 -20 -20 -20 -20
-18 -20 -19 -20 -18 -17 -19 -20 -20 -20 -20 -20 -20 -20 -20 -20 -20 -20 -20 -20 -20 -20 -20 -20 -20 -20 -20 -20 -20 -20 -20 -20 -20 -20 -20 -20 -20 -20 -20 -20 -20 -20 -20
-16 -16 -18 -18 -19 -19 -13 -11 -20 -20 -20 -20 -20 -20 -20 -20 -20 -20 -20 -20 -20 -20 -20 -20 -20 -20 -20 -20 -20 -20 -20 -20 -20 -20 -20 -20 -20 -20 -20 -20 -20 -20 -20
-20 -20 -20 -20 -20 -20 -20 -20 -20 -20 -20 -20 -20 -20 -20 -20 -20 -20 -20 -20 -20 -20 -20 -20 -20 -20 -20 -20 -20 -20 -20 -20 -20 -20 -20 -20 -20 -20 -20 -20 -20 -20 -20
-20 -20 -20 -20 -20 -20 -20 -20 -20 -20 -20 -20 -20 -20 -20 -20 -20 -20 -20 -20 -20 -20 -20 -20 -20 -20 -20 -20 -20 -20 -20 -20 -20 -20 -20 -20 -20 -20 -20 -20 -20 -20 -20
-20 -20 -20 -20 -20 -20 -20 -20 -20 -20 -20 -20 -20 -20 -20 -20 -20 -20 -20 -20 -20 -20 -20 -20 -20 -20 -20 -20 -20 -20 -20 -20 -20 -20 -20 -20 -20 -20 -20 -20 -20 -20 -20

GFSGL_prec_radar_102.txt.gz
Reflectivity
-19 3 -20 -20 -20 -20 -20 -20 -20 -20 -20 -20 -20 -17 1 9 11 12 13 22 30 27 24 24 19 20 -1 6 6 12 6 13 7 25 0 3 -13 -20 -16 -12 -20 -20 -20
-18 13 -19 -20 -20 -20 -20 -20 -20 -20 -20 -20 -20 -19 1 -8 9 23 21 18 13 3 14 21 26 23 -3 15 16 -12 -20 -4 3 -10 25 9 -20 -20 -20 -20 -20 6 -19
-20 9 -20 -20 -20 -20 -20 -20 -20 -20 -20 -20 -19 -8 1 -19 11 20 17 20 23 22 3 17 -2 10 15 -0 0 -16 9 2 17 17 -20 -20 -20 -20 -20 -20 -20 -20 -20
3 9 -20 -20 -20 -20 -20 -20 -20 -20 -20 -20 -20 -20 -20 -11 10 5 8 13 18 16 19 -5 2 8 14 15 23 29 26 21 14 6 -20 -20 -20 -20 -20 -20 -20 -20 -20
-18 12 3 -20 -20 -20 -20 -20 -20 -20 -20 -20 -20 -20 -20 -20 -20 -18 -16 -5 -5 -12 -12 -16 -11 -19 5 13 16 12 7 13 13 18 18 3 -20 -20 -20 -20 -20 -2 5
22 20 3 14 -20 -20 -20 -20 -20 -20 -20 -20 -20 -20 -20 -20 -20 -20 -20 -20 -20 -20 -20 -20 -20 -20 -0 25 23 16 -12 13 -5 21 19 18 22 -17 -20 -20 -20 -2 17
24 22 8 -20 -20 -20 -20 -20 -20 -20 -20 -17 7 10 -0 -20 -20 -20 -20 -20 -20 -20 -20 -20 -20 -20 -20 -20 -0 9 13 5 -9 18 29 19 -5 -3 -2 8 20 34 18
29 22 24 4 -20 -5 -20 -20 -20 -20 -20 -17 6 10 5 12 16 2 -20 -20 -20 -20 -20 -20 -20 -20 -20 -20 -20 -20 -20 -20 -20 -3 -4 -6 -1 -1 3 22 29 29 20
3 13 36 31 24 8 -19 -20 -20 -20 -20 -20 -20 -17 -15 9 18 15 12 -16 -20 -20 -20 -20 -20 -20 -20 -7 -20 -20 -20 -19 8 6 6 9 18 21 21 22 21 11 13
19 13 21 12 10 -12 -11 -1 10 -18 -20 -20 -19 -20 13 -7 19 16 14 -14 -20 -20 -20 -20 2 2 10 11 -9 -14 -7 10 12 10 13 23 20 16 19 22 23 22 16
7 7 12 10 11 9 11 17 6 -5 -6 14 -13 -13 10 3 1 11 10 -11 11 23 25 21 29 35 31 34 31 18 23 27 26 20 15 11 15 14 23 24 25 23 15
-20 -20 -20 -20 -14 -19 -15 8 7 18 15 19 26 14 11 13 25 22 31 39 36 33 34 29 27 26 20 21 23 29 24 20 19 16 15 19 16 14 17 20 22 21 19
2 3 -19 -20 -20 -20 -4 5 15 20 29 20 20 18 17 10 11 22 13 14 26 35 44 36 33 37 32 20 24 19 20 22 26 30 30 27 25 25 26 24 20 11 11
-20 -20 -20 -20 -19 -3 7 10 9 -3 2 14 22 23 20 27 22 30 35 29 38 26 29 36 40 39 35 28 30 28 27 25 22 23 20 18 16 15 12 13 14 12 11
-20 -20 -20 -20 -20 -16 -7 -9 -11 -1 17 10 -1 13 7 21 28 27 21 22 20 24 26 24 27 28 27 25 25 25 23 18 12 9 4 9 10 10 8 8 6 -7 -16
-20 -20 -20 -20 -20 -20 -20 -15 -3 -2 3 12 20 14 1 8 1 6 14 17 16 15 19 26 26 24 23 22 21 22 22 20 13 6 2 3 -0 -7 -10 -14 -16 -17 -20
-20 -20 -20 -20 -20 -20 -20 -20 -18 -14 -9 -6 -1 -18 -20 -20 -19 -11 -3 2 10 11 13 20 20 18 18 16 16 14 14 11 6 -5 -20 -20 -20 -20 -20 -20 -20 -20 -20
-20 -20 -20 -20 -20 -20 -20 -20 -20 -20 -20 -7 -0 -3 -16 -19 -20 -20 -20 -20 -13 -3 4 7 3 -2 -4 -3 -5 -9 -19 -20 -20 -20 -20 -20 -20 -20 -20 -20 -20 -20 -20
-20 -20 -20 -20 -20 -20 -20 -20 -20 -20 -20 -20 -20 -20 -19 -20 -20 -20 -20 -20 -20 -20 -20 -7 -5 -10 -15 -13 -15 -20 -20 -20 -20 -20 -20 -20 -20 -20 -20 -20 -20 -20 -20
-18 -18 -20 -20 -20 -20 -20 -20 -20 -20 -20 -20 -20 -20 -20 -20 -20 -20 -20 -20 -20 -20 -20 -20 -20 -20 -20 -20 -20 -20 -20 -20 -20 -20 -20 -20 -20 -20 -20 -20 -20 -20 -20
-20 -20 -19 -18 -17 -17 -18 -20 -20 -20 -20 -20 -20 -20 -20 -20 -20 -20 -20 -20 -20 -20 -20 -20 -20 -20 -20 -20 -20 -20 -20 -20 -20 -20 -20 -20 -20 -20 -20 -20 -20 -20 -20
-20 -20 -19 -19 -17 -17 -18 -20 -20 -20 -20 -20 -20 -20 -20 -20 -20 -20 -20 -20 -20 -20 -20 -20 -20 -20 -20 -20 -20 -20 -20 -20 -20 -20 -20 -20 -20 -20 -20 -20 -20 -20 -20
-20 -20 -18 -17 -16 -18 -20 -20 -20 -20 -20 -20 -20 -20 -20 -20 -20 -20 -20 -20 -20 -20 -20 -20 -20 -20 -20 -20 -20 -20 -20 -20 -20 -20 -20 -20 -20 -20 -20 -20 -20 -20 -20
-20 -20 -20 -20 -20 -20 -20 -20 -20 -20 -20 -20 -20 -20 -20 -20 -20 -20 -20 -20 -20 -20 -20 -20 -20 -20 -20 -20 -20 -20 -20 -20 -20 -20 -20 -20 -20 -20 -20 -20 -20 -20 -20
-20 -20 -20 -20 -20 -20 -20 -20 -20 -20 -20 -20 -20 -20 -20 -20 -20 -20 -20 -20 -20 -20 -20 -20 -20 -20 -20 -20 -20 -20 -20 -20 -20 -20 -20 -20 -20 -20 -20 -20 -20 -20 -20
-20 -20 -20 -20 -20 -20 -20 -20 -20 -20 -20 -20 -20 -20 -20 -20 -20 -20 -20 -20 -20 -20 -20 -20 -20 -20 -20 -20 -20 -20 -20 -20 -20 -20 -20 -20 -20 -20 -20 -20 -20 -20 -20

GFSGL_prec_radar_105.txt.gz
Reflectivity
-17 -20 -20 -20 -20 -20 -20 -20 -17 -20 -20 2 -20 -7 15 15 14 26 23 23 18 27 22 29 32 24 18 -1 -20 1 19 -2 -3 -19 -20 -14 -9 -6 20 -16 -20 -20 -14
8 -20 -12 -19 -20 -20 -20 -20 -2 -20 -1 -0 -20 -20 -20 -19 -5 13 15 29 21 11 1 28 11 25 17 -8 -20 11 9 1 22 -20 20 22 28 25 -1 -20 -20 -20 -20
3 -20 -20 -0 -20 -20 -20 -20 -20 -20 -19 2 -20 -20 -20 -20 -20 -20 -18 -14 2 19 27 23 18 24 22 13 6 14 -14 9 15 25 -10 -0 19 18 20 20 -17 -20 -20
4 -20 6 0 -20 -20 -20 -20 -20 -20 -20 -20 -18 7 -10 -20 -20 -6 2 -2 -18 8 -1 4 7 7 10 19 18 15 24 23 21 20 6 -10 -3 -19 -17 -15 -17 -2 -20
-12 -20 -5 0 -20 -20 -20 -20 -20 -20 -20 -20 -20 -20 -20 -20 -20 4 6 3 3 2 4 18 10 4 22 5 -2 11 -6 24 27 22 -3 28 17 7 7 -7 21 17 -3
23 18 20 -20 -20 -20 -20 -20 -20 -20 -20 -20 -20 -20 -1 4 18 12 -3 6 3 -2 10 18 -1 20 9 14 21 15 15 6 -2 6 13 4 22 -1 -9 14 24 32 28
22 -11 -20 -18 -20 -20 -20 -20 -20 -20 -20 -20 -20 -20 -20 -20 -20 -20 -4 -17 -2 5 12 15 14 12 10 -4 19 15 16 14 26 27 14 17 -11 1 -3 -2 4 17 20
0 -8 11 -1 10 5 -20 -17 -20 -20 -20 -20 -20 -20 -15 -1 14 -7 -20 -20 -20 -20 -20 -20 -20 -14 -20 -19 -19 -9 3 11 -6 1 -0 -5 -14 -20 -10 2 26 27 22
32 27 23 18 1 -0 -7 11 -0 -20 -20 -20 -16 0 -2 2 17 12 10 -20 -20 -20 -20 -20 -20 -20 -20 -9 6 -15 -11 -17 -1 -2 -0 6 7 5 7 2 2 8 19
27 26 14 12 30 25 21 15 1 -1 3 13 7 -2 16 6 16 11 7 -18 -20 -4 -19 9 20 15 3 0 -20 -20 -20 -20 -19 -9 1 9 9 10 17 11 8 18 20
17 8 -9 -20 7 3 12 18 16 21 17 19 22 20 23 15 7 12 11 6 -16 -19 -10 -4 4 20 23 30 26 12 8 13 21 20 23 33 25 21 16 16 10 12 9
-20 -20 -20 -20 -19 -18 -16 9 4 13 17 16 19 23 14 18 22 18 16 29 30 33 36 32 28 37 33 37 35 30 29 25 23 26 25 20 23 25 23 16 19 19 19
-20 -20 -20 -20 -20 -20 -14 -0 8 14 15 18 18 21 16 15 15 23 10 14 27 24 29 25 34 33 30 29 30 33 32 32 31 25 28 27 24 24 25 24 21 16 17
-20 -20 -20 -20 -20 -20 -18 -11 -5 7 14 14 21 19 7 14 6 9 7 7 16 23 24 17 24 27 24 22 24 25 28 28 28 27 26 25 26 25 24 23 20 15 12
-20 -20 -20 -20 -20 -20 -18 -15 -5 -1 1 3 -3 -1 -3 7 20 18 20 26 6 13 10 13 -0 -3 0 1 4 13 19 21 21 21 21 19 18 19 17 16 14 9 1
-20 -20 -20 -20 -20 -20 -20 -12 3 -7 3 11 -7 8 16 6 3 -5 -19 -20 -20 -20 -20 -20 -20 -19 -20 -20 -19 -16 -16 -12 -9 -6 -5 -6 -1 0 -7 -7 -15 -19 -20
-20 -20 -20 -20 -20 -20 -20 -20 -19 -15 -14 2 2 -8 -1 2 -13 -20 -20 -20 -20 -20 -20 -20 -20 -20 -20 -20 -20 -20 -20 -20 -20 -12 -7 -3 -1 -6 -9 -10 -20 -20 -20
-20 -20 -20 -20 -20 -20 -20 -20 -20 -20 -20 -17 -0 1 -0 -8 -15 -18 -20 -20 -20 -20 -20 -20 -20 -20 -20 -20 -20 -20 -20 -20 -20 -20 -20 -20 -20 -20 -20 -20 -20 -20 -20
-20 -20 -20 -20 -20 -20 -20 -20 -20 -20 -20 -20 -20 -20 -20 -20 -20 -20 -20 -20 -20 -20 -20 -20 -20 -20 -20 -20 -20 -20 -20 -20 -20 -20 -20 -20 -20 -20 -20 -20 -20 -20 -20
-20 -20 -20 -20 -20 -20 -20 -20 -20 -20 -20 -20 -20 -20 -20 -20 -20 -20 -20 -20 -18 -18 -19 -20 -20 -20 -20 -20 -20 -20 -20 -20 -20 -20 -20 -20 -20 -20 -20 -20 -20 -20 -20
-20 -20 -20 -20 -20 -20 -20 -20 -20 -20 -20 -20 -20 -20 -20 -20 -20 -20 -20 -20 -20 -20 -20 -20 -20 -20 -20 -20 -20 -20 -20 -20 -20 -20 -20 -20 -20 -20 -20 -20 -20 -20 -20
-18 -18 -17 -18 -20 -20 -20 -20 -20 -20 -20 -20 -20 -20 -20 -20 -20 -20 -20 -20 -20 -20 -20 -20 -20 -20 -20 -20 -20 -20 -20 -20 -20 -20 -20 -20 -20 -20 -20 -20 -20 -20 -20
-16 -15 -14 -15 -16 -18 -20 -20 -20 -20 -20 -20 -20 -20 -20 -20 -20 -20 -20 -20 -20 -20 -20 -20 -20 -20 -20 -20 -20 -20 -20 -20 -20 -20 -20 -20 -20 -20 -20 -20 -20 -20 -20
-15 -14 -16 -18 -20 -20 -20 -20 -20 -20 -20 -20 -20 -20 -20 -20 -20 -20 -20 -20 -20 -20 -20 -20 -20 -20 -20 -20 -14 -8 -20 -20 -20 -20 -20 -20 -20 -20 -20 -20 -20 -20 -20
-20 -20 -20 -20 -20 -20 -20 -20 -20 -20 -20 -20 -20 -20 -20 -20 -20 -20 -20 -20 -20 -20 -20 -20 -20 -20 -20 -20 -20 -20 -20 -20 -20 -20 -20 -20 -20 -20 -20 -20 -20 -20 -20
-20 -20 -20 -20 -20 -20 -20 -20 -20 -20 -20 -20 -20 -20 -20 -20 -20 -20 -20 -20 -20 -20 -20 -20 -20 -20 -20 -20 -20 -20 -20 -20 -20 -20 -20 -20 -20 -20 -20 -20 -20 -20 -20

GFSGL_prec_radar_108.txt.gz
Reflectivity
-20 -14 13 -20 -20 -20 -11 -20 -20 -5 3 8 14 -3 -20 -17 16 20 -13 14 26 29 22 22 22 25 9 -4 -16 -3 -6 -20 -20 0 5 25 5 31 -20 -20 -20 -20 -9
-3 4 11 -20 -20 -20 -14 -20 -16 -1 -2 2 -4 -19 -20 -9 7 5 14 30 26 26 17 21 23 25 32 11 29 13 11 7 -20 -20 24 28 -4 12 17 7 -20 23 -20
-3 -13 2 -5 -17 -20 -19 -20 -20 -2 1 4 4 -5 1 21 7 17 17 19 27 23 21 24 13 18 17 4 24 20 22 9 -13 21 -9 20 31 21 12 21 32 25 21
-20 -8 -17 27 -11 -13 -20 -20 -18 -20 -2 -6 -20 -2 -4 -5 -20 -19 -13 -4 15 17 16 19 25 28 26 23 23 26 26 -1 -2 13 0 16 24 25 18 20 26 32 29
10 19 23 24 -19 -17 -20 -16 -20 -20 -17 -0 -3 -18 3 2 -20 -20 -20 -20 -17 -5 6 7 14 14 19 1 11 16 -1 6 3 -17 4 1 -0 -5 11 15 27 27 22
17 24 24 13 -16 -20 -9 -8 -20 -20 -20 2 -5 -4 -0 -4 -20 -20 -16 -20 -20 -20 -12 -20 -6 8 -7 4 11 16 24 16 17 19 21 26 21 27 25 14 31 28 25
22 26 23 -8 -20 -20 -20 -20 -16 -12 -3 -14 -20 2 -4 -18 1 -20 -20 -6 -13 -11 -13 -18 -1 5 19 4 15 9 -20 1 10 9 16 9 4 5 19 20 29 31 32
32 27 22 -12 -12 -20 -20 -20 -20 -20 -20 -12 -1 -4 -6 -8 -20 -14 -20 -19 2 -0 -5 -15 -11 -1 12 15 13 -2 -15 2 8 4 -6 -3 -1 10 23 1 -5 -18 -17
7 4 20 15 1 -15 -20 -20 -4 -4 -8 -6 -16 -20 -20 -20 -14 -1 -4 -17 15 4 -14 -9 -1 -3 15 10 -8 8 18 23 31 24 13 11 15 3 -14 -17 -13 5 16
17 27 10 -11 -10 -0 15 2 -4 -16 -16 -14 -20 -18 5 -9 14 7 10 -3 -9 -1 -18 -17 -10 -15 8 12 -17 -20 -20 -20 -18 -18 -9 8 16 9 6 -7 -6 8 24
37 35 38 29 29 23 24 20 10 6 4 6 18 11 3 9 3 12 4 -15 5 4 7 9 7 20 14 23 21 24 26 26 27 24 23 15 3 4 5 7 11 15 21
43 16 -5 14 10 -1 4 7 -9 6 2 4 12 18 14 17 19 9 13 27 30 28 29 30 35 36 36 36 33 33 30 30 27 25 24 25 26 26 25 24 23 23 22
10 -17 -20 -20 -20 -11 1 -17 -19 -1 19 11 19 19 17 17 16 23 15 24 26 23 15 20 23 26 34 29 36 25 19 23 25 20 15 21 23 22 21 21 21 20 19
-9 -20 -20 -19 -18 -20 -20 -20 -20 -15 -4 11 12 14 12 2 5 6 11 11 18 13 13 19 23 28 13 14 12 18 24 22 14 6 12 7 -1 2 4 12 17 17 13
-7 -20 -20 -20 -20 -20 -18 -5 -9 -3 0 -7 -7 -4 2 -1 4 9 5 -10 -0 4 5 1 -3 -8 -10 -8 -8 -16 -11 -14 -16 -19 -20 -20 -20 -20 -15 -12 -12 -16 -18
7 7 -8 -20 -19 -20 -20 -15 0 0 4 11 12 -5 6 9 9 11 6 -17 -19 -16 -3 5 2 0 -2 -8 -20 -20 -20 -20 -20 -20 -20 -20 -20 -20 -20 -20 -20 -20 -20
-0 -1 -20 -20 -20 -20 -20 -4 -19 -10 5 6 -1 -12 3 -3 1 -20 -20 -20 -20 -20 -2 -0 -1 -2 -20 -20 -20 -20 -20 -20 -20 -20 -20 -20 -20 -20 -20 -20 -20 -20 -20
-1 -3 -3 1 0 -1 -2 -1 3 -1 -4 -1 -14 -20 -2 -16 -7 -19 -20 -20 -20 -20 -20 -20 -20 -20 -20 -20 -20 -20 -20 -20 -20 -20 -20 -20 -20 -20 -20 -20 -20 -20 -20
-2 -0 -1 -2 -1 -1 -1 -2 -2 -1 -2 -3 -14 -20 -11 -20 -20 -20 -20 -20 -20 -20 -20 -20 -20 -20 -20 -20 -20 -20 -20 -20 -20 -20 -20 -20 -20 -20 -20 -20 -20 -20 -20
-5 -18 -7 -1 -2 -2 -2 -2 -3 -2 -4 -2 -2 -2 -20 -20 -20 -20 -20 -20 -20 -20 -20 -20 -20 -20 -20 -20 -20 -20 -20 -20 -20 -20 -20 -20 -20 -20 -20 -20 -20 -20 -20
-1 -2 -15 -20 -3 -20 -15 -20 -20 -20 -20 -20 -4 -20 -20 -20 -20 -20 -20 -20 -20 -20 -20 -20 -20 -20 -20 -20 -20 -20 -20 -20 -20 -20 -20 -20 -20 -20 -20 -20 -20 -20 -20
-9 -9 -20 -11 -10 -4 -20 -20 -20 -20 -20 -20 -20 -20 -20 -20 -20 -20 -20 -14 -10 -20 -20 -20 -20 -20 -20 -20 -20 -20 -20 -20 -20 -15 -20 -20 -20 -20 -20 -20 -20 -20 -20
-5 -11 -20 -20 -19 -19 -20 -20 -20 -20 -20 -20 -20 -20 -20 -20 -20 -20 -20 -14 -20 -20 -20 -20 -20 -20 -20 -4 -4 -13 -20 -20 -16 -20 -19 -20 -20 -20 -20 -20 -20 -20 -20
-3 -2 -20 -17 -20 -20 -20 -20 -20 -20 -20 -20 -20 -20 -20 -20 -20 -20 -18 -8 -15 -6 -20 -20 -20 -20 -20 -2 -2 -17 -20 -3 -14 -20 -20 -20 -20 -20 -20 -20 -20 -20 -20
-5 -5 -20 -20 -20 -20 -20 -20 -20 -20 -20 -20 -20 -20 -20 -20 -20 -5 -8 -20 -20 -20 -20 -20 -20 -20 -20 -20 -20 -9 -7 -20 -20 -20 -4 -19 -20 -20 -20 -20 -20 -20 -20
-20 -20 -20 -20 -20 -20 -20 -20 -20 -20 -20 -20 -12 -14 -20 -20 -20 -20 -20 -20 -20 -20 -20 -20 -20 -20 -20 -20 -8 -14 -20 -20 -20 -20 -20 -20 -20 -19 -17 -9 -20 -20 -20

GFSGL_prec_radar_111.txt.gz
Reflectivity
-20 -8 10 -20 -2 -4 -19 -20 -20 -20 -20 3 14 9 -20 -20 -13 -14 10 -2 13 11 2 34 29 31 32 28 20 29 29 -19 -20 16 28 22 6 5 -10 31 31 -20 2
-20 1 9 -20 -12 14 -19 -20 -20 -20 -20 -20 4 -8 -20 -20 -20 -1 15 4 23 20 22 26 33 31 32 26 25 25 13 5 22 15 19 21 -20 -18 16 23 26 24 -20
6 10 3 -8 15 6 -20 -20 -20 -20 -20 -20 -20 2 4 -19 -15 -4 6 9 20 26 25 25 24 24 28 24 19 22 20 23 0 -20 12 19 -16 -9 -14 33 13 18 2
13 5 14 18 22 -2 -19 -2 -20 -2 -20 -20 -20 1 -2 -20 -20 -2 10 18 19 25 27 30 23 22 26 29 21 19 26 19 24 20 26 -18 -20 4 6 18 24 17 2
7 10 19 6 18 10 11 -20 -20 -17 -12 -20 -20 -14 -3 -6 -7 -15 -10 -15 1 10 14 19 22 20 31 28 28 21 27 26 27 27 16 -12 -18 -15 -12 1 24 25 23
17 18 9 26 25 25 -20 -20 1 -13 -8 -20 -20 -20 -18 -20 11 -20 -20 -20 -20 -10 1 -1 6 18 9 10 -13 16 16 19 19 16 8 -20 -16 -7 -2 12 16 13 12
18 23 20 27 29 24 -20 5 -2 11 -15 -2 -13 -14 -20 -15 -20 10 -20 -4 -20 -20 -20 -18 -17 -13 15 -12 -20 5 14 12 -6 4 6 -20 -20 -20 -20 -18 15 19 23
29 26 28 28 21 -19 8 -0 16 2 1 -20 -20 -20 -4 -13 3 -14 -19 -17 -11 -20 -20 -20 -12 -20 -8 -11 -13 -5 3 -3 -6 -20 -20 -20 -20 -19 -20 -19 -5 19 23
26 21 23 15 -0 23 6 1 6 6 0 -20 -18 5 1 -20 2 -13 -9 -20 -20 -20 -20 -20 -12 -20 15 16 5 1 7 13 24 16 1 2 16 20 21 17 12 15 26
34 15 15 20 31 11 3 -19 -6 2 -14 -20 -5 -13 -4 -20 -7 6 -3 -20 -20 12 3 1 14 -19 12 -6 4 -3 -5 -4 1 6 14 20 16 10 18 16 11 16 23
43 26 30 32 24 27 24 14 5 -9 5 12 5 1 -20 -3 -20 -20 -20 -20 -20 -15 8 19 24 27 23 20 21 11 19 7 20 12 7 15 20 21 21 24 26 24 24
32 43 41 35 45 29 14 -0 -4 4 16 21 24 -1 -1 -6 9 7 -17 4 16 -6 4 26 32 33 29 28 30 28 27 30 27 27 25 23 23 21 23 21 17 15 12
38 43 41 38 43 37 34 35 28 9 13 11 16 9 6 1 4 13 17 20 21 15 14 18 23 30 31 27 24 25 28 30 16 20 17 16 16 15 4 -18 -20 -15 -17
31 35 37 36 38 32 18 24 24 14 20 14 6 10 16 15 -0 -1 9 4 18 16 18 24 31 3 16 5 9 7 10 9 2 3 11 -8 -20 -20 -20 -20 -20 -20 -20
10 8 5 -1 -10 -17 -11 -6 -11 -0 14 14 1 16 13 12 10 13 6 -5 7 9 11 -4 4 14 18 -10 -7 -18 -20 -12 -12 -16 -16 -19 -20 -20 -20 -20 -20 -20 -20
17 16 10 4 0 -18 -19 -10 9 11 9 12 13 10 10 14 12 3 -4 -0 2 -5 -3 -1 3 4 -2 -17 -20 -20 -20 -20 -20 -20 -20 -20 -20 -20 -20 -20 -20 -20 -20
2 9 5 -5 0 3 -2 -19 -19 1 7 6 7 4 4 -8 -19 -6 -20 -20 -20 -20 -1 4 3 1 -19 -20 -20 -20 -20 -20 -20 -20 -20 -20 -20 -20 -20 -20 -20 -20 -20
2 -2 3 4 4 3 1 3 2 -7 -11 -10 -13 -15 -6 -6 -13 -20 -20 -20 -12 -20 -7 -4 -10 -20 -20 -20 -20 -20 -20 -20 -20 -20 -20 -20 -20 -20 -20 -20 -20 -20 -20
2 1 3 2 -0 5 2 2 4 4 3 2 -2 -10 -5 -20 -20 -20 -20 -20 -20 -20 -20 -20 -20 -20 -20 -20 -16 -20 -20 -20 -20 -20 -20 -20 -20 -20 -20 -20 -20 -20 -20
-2 -16 1 2 -1 2 1 -6 -1 -4 -14 -16 -12 7 1 -20 -20 -20 -19 -20 -20 -20 -20 -20 -20 -20 -20 -20 -20 -20 -20 -20 -20 -20 -3 -1 -3 -20 -20 -20 -20 -20 -20
2 -0 -20 -2 -1 -1 -2 -4 -6 -6 -6 -20 -7 -20 -20 -20 -20 -20 -20 -20 -20 -19 -19 -20 -19 -20 -20 -20 -20 -20 -19 -20 -20 -20 -20 -14 -6 -20 -20 -20 -20 -20 -20
3 3 2 -6 -0 -0 -4 -15 -20 -20 -20 -20 -20 -20 -20 -20 -20 -20 -2 0 -0 -5 -20 -5 -16 -20 -20 -16 -12 -18 -20 -15 -15 -15 -20 -20 -20 -20 -20 -20 -20 -16 -20
6 6 4 1 -3 -12 -20 -14 -20 -20 -20 -20 -20 -20 -12 -2 -3 -5 0 -1 -3 -3 -5 -13 -20 -20 -5 -6 -17 -13 -19 -12 -9 -14 -5 -9 -20 -14 -10 -5 -20 -20 -20
-0 -0 -4 -16 -3 -20 -18 -20 -20 -20 -20 -2 -1 -3 -4 -2 -2 -2 -2 0 -1 -1 -7 -20 -20 -20 -20 -0 -4 -20 -20 -19 -14 -20 -20 -18 -9 -20 -18 -20 -20 -20 -20
1 -1 -3 -3 -5 -1 -3 -18 -2 -3 -2 -2 -2 -3 -4 -5 -4 -2 -6 -20 -20 -20 -20 -17 -20 -20 -20 -20 -20 -20 -20 -20 -20 -20 -11 -19 -19 -20 -20 -20 -20 -20 -7
-5 -4 -1 -1 -0 -0 -1 -1 -1 -2 -1 -0 -0 -1 -2 -4 -3 -10 -20 -20 -20 -20 -20 -20 -20 -20 -20 -20 -20 -20 -20 -20 -20 -20 -20 -18 -5 -5 -3 -5 -3 -3 -4

GFSGL_prec_radar_114.txt.gz
Reflectivity
-20 -20 -20 -20 -20 9 13 13 9 -19 -20 -8 -20 -16 -1 -20 -10 -16 -20 -20 -9 2 -6 13 3 20 30 29 30 29 26 17 -10 -20 -13 5 1 20 5 22 -3 -20 -20
-20 -10 -20 -20 -20 12 12 14 15 -18 -20 4 -20 -20 9 -20 1 -20 -13 -18 -15 -20 -3 -0 12 22 33 27 26 25 31 26 10 6 -0 11 12 30 31 30 6 -20 4
-12 13 2 -14 6 -1 7 21 5 -20 -3 9 5 -15 -6 6 -1 -17 7 -20 0 17 1 16 16 20 15 24 30 30 27 26 9 19 15 -7 -7 -4 7 17 8 -13 -20
-4 22 13 10 7 -20 23 8 6 -20 1 1 -15 -17 -20 -20 -20 3 13 8 9 10 9 8 21 22 19 21 33 35 25 17 22 23 18 17 11 22 19 17 5 -6 -13
-3 15 15 8 -7 3 15 19 -9 -12 10 8 -10 -20 -20 -20 -20 -6 -14 -20 -20 -6 15 20 18 24 33 29 30 32 27 22 26 29 28 29 26 21 25 21 7 22 11
9 5 15 13 15 23 25 22 -20 8 10 4 -3 -20 -20 -20 11 8 9 3 7 -16 6 8 18 24 25 31 29 26 26 16 21 24 25 22 21 28 28 18 18 15 11
13 14 18 14 17 26 14 17 -2 10 10 -12 6 -7 -1 -6 3 11 7 -20 -20 -20 -19 -9 6 14 21 12 26 25 24 14 3 3 19 22 20 19 18 20 -2 -1 3
27 22 29 16 22 26 26 22 24 11 8 12 -20 -6 -1 -13 -20 12 8 -7 -18 -20 -20 -20 -16 -1 -3 10 6 3 -0 -20 -20 -19 2 21 12 -9 -10 4 -10 7 22
26 24 16 24 21 26 28 12 20 5 16 22 13 1 -14 -19 -16 5 -7 -12 10 -13 -14 -9 -20 -15 3 -18 -17 -11 5 -6 8 14 22 29 26 17 19 15 -5 12 23
38 31 24 22 24 22 24 20 9 15 5 8 10 7 17 -5 11 10 8 -20 8 10 17 -13 -2 12 13 12 5 1 5 5 10 15 18 21 20 18 23 12 -0 19 20
37 36 32 28 27 25 16 7 -15 7 17 15 15 12 14 6 -12 7 12 -17 -20 -20 -17 -8 -3 12 19 16 17 -12 0 8 17 16 -0 1 6 5 11 19 21 24 29
33 34 35 35 38 25 11 20 27 20 16 6 -13 -12 -17 -13 5 -10 -6 12 11 -20 -10 2 15 12 11 22 24 27 24 22 15 13 9 14 19 18 19 20 18 14 15
28 31 30 40 44 41 34 32 35 23 20 19 12 9 10 2 4 9 21 21 21 17 4 19 20 18 23 22 24 25 26 21 22 27 29 24 11 9 -4 -4 1 -14 -20
26 29 32 40 37 38 42 37 40 33 23 20 13 1 -1 -1 12 20 20 16 12 20 31 25 33 25 34 14 20 12 11 21 7 3 5 -1 1 5 0 -20 -20 -20 -20
28 25 28 27 35 37 40 40 41 40 38 24 26 23 26 34 34 21 14 10 5 16 8 -5 -5 7 14 -4 5 8 9 9 1 -12 -16 -14 -19 -20 -20 -20 -20 -20 -20
20 22 21 19 20 27 29 27 29 28 23 23 23 15 6 15 15 20 15 4 4 -4 -7 -13 -6 -7 -20 -20 -20 -20 -20 -20 -20 -20 -20 -20 -20 -20 -20 -20 -20 -20 -20
7 10 10 13 14 14 9 9 14 15 10 11 12 8 12 11 -19 -8 -18 0 -19 -20 -20 -20 -20 -20 -20 -20 -20 -20 -20 -20 -20 -20 -20 -20 -20 -20 -20 -20 -20 -20 -20
-1 -3 3 7 12 12 3 8 7 9 11 12 4 0 -3 -14 -5 -12 -20 -20 -20 -20 -20 -20 -20 -20 -20 -20 -20 -20 -20 -20 -20 -20 -20 -20 -20 -20 -20 -20 -20 -20 -20
-2 -15 -15 -2 4 -4 -17 -19 -11 -10 -4 -5 -6 -8 -18 -20 -20 -20 -20 -20 -20 -20 -20 -20 -20 -20 -20 -20 -20 -20 -20 -20 -20 -20 -20 -20 -20 -20 -20 -20 -20 -20 -20
-1 -20 -9 -2 -8 -16 -19 -20 -20 -20 -20 -20 -19 -5 -20 -20 -20 -20 -20 -20 -20 -20 -20 -20 -20 -20 -20 -20 -20 -20 -20 -20 -20 -20 -20 -20 -20 -20 -20 -20 -20 -20 -20
2 -0 -20 -20 -11 -7 -15 -5 -20 -20 -20 -20 -20 -20 -20 -20 -20 -20 -20 -20 -20 -20 -20 -20 -20 -20 -20 -20 -20 -20 -20 -20 -20 -20 -20 -20 -20 -20 -20 -20 -20 -20 -20
-15 -20 -20 -15 -11 -11 -8 -15 -20 -20 -20 -20 -20 -20 -20 -20 -20 -20 -20 -20 -20 -20 -20 -20 -20 -20 -20 -20 -20 -20 -20 -20 -20 -20 -20 -20 -20 -20 -20 -20 -20 -20 -20
-3 1 2 3 -0 -8 1 -19 -20 -20 -20 -20 -20 -20 -20 -20 -20 -20 -20 -20 -20 -20 -20 -20 -20 -20 -20 -20 -20 -20 -20 -20 -20 -20 -20 -20 -20 -20 -20 -20 -20 -20 -20
4 -20 -18 -7 -12 -20 -20 -20 -20 -20 -20 -20 -20 -20 -20 -20 -20 -20 -20 -17 -11 -12 -20 -20 -20 -20 -20 -20 -20 -20 -20 -20 -20 -20 -20 -20 -20 -20 -20 -20 -20 -20 -20
3 -1 1 3 -6 -4 -12 -11 -7 -3 -15 -20 -20 -18 -19 -18 -19 -19 -20 -20 -20 -20 -20 -20 -20 -20 -20 -20 -20 -20 -20 -20 -20 -20 -20 -20 -20 -20 -20 -20 -20 -20 -20
-20 -18 -5 -8 -1 -2 -18 -20 -12 -18 -20 -20 -20 -20 -20 -20 -15 -20 -20 -20 -20 -20 -20 -20 -20 -20 -20 -20 -20 -20 -20 -20 -20 -20 -20 -20 -20 -20 -20 -20 -20 -20 -20

GFSGL_prec_radar_117.txt.gz
Reflectivity
-20 -13 -7 -20 -20 -20 -6 4 1 -2 13 13 -14 -16 7 10 6 -4 5 -7 12 14 -20 3 -6 -5 17 26 26 28 24 26 26 26 11 20 9 2 15 -20 -5 -7 5
3 -16 -19 -20 -20 -20 -20 -7 15 18 3 20 -17 -20 -20 9 18 9 5 5 7 2 -4 11 7 -20 2 26 27 27 30 29 26 24 23 25 23 19 15 20 -20 -20 17
-20 -20 -20 -20 10 11 7 8 17 14 -0 3 -18 -20 -19 -14 10 14 -4 -20 -20 -20 -20 10 2 -11 -4 -2 20 30 25 22 24 21 20 21 24 14 23 24 4 12 13
-20 -20 -20 -20 10 22 17 16 17 2 8 10 -19 -20 -8 11 12 -14 12 7 10 -16 -20 -10 8 -2 10 7 -1 13 24 27 22 20 18 18 20 19 13 19 16 15 25
-20 -20 -20 -20 13 15 9 14 8 10 18 3 -20 -20 7 12 13 11 17 -10 -3 -0 -5 5 -1 15 31 26 19 24 22 24 29 21 28 24 16 21 19 22 24 18 17
-20 -20 -20 -19 9 16 9 8 25 24 19 -2 -19 4 4 -9 16 13 10 -20 3 -12 -5 8 13 29 29 30 30 34 30 31 29 31 31 29 28 25 29 29 23 15 16
-20 -20 -20 3 14 4 10 0 16 27 -1 -9 -13 3 6 8 13 14 14 -9 -18 13 -4 -10 4 21 24 27 29 32 30 27 25 23 27 22 27 27 27 24 25 23 18
-20 -20 -7 11 20 14 -8 0 30 18 26 -20 10 13 -18 -18 9 16 15 11 -20 -20 -20 -16 -16 11 10 17 16 21 23 23 23 24 15 10 20 25 25 26 22 23 27
-20 -20 6 26 10 26 29 25 25 20 22 23 13 5 11 15 9 13 10 -20 -13 -20 -20 -0 -20 -20 15 -3 2 11 11 7 18 16 17 11 7 2 1 -6 16 14 24
-20 -2 14 29 26 24 29 26 33 26 20 24 4 -11 16 -14 -4 1 6 -9 -20 -19 -11 -0 13 6 2 -1 -13 -20 -14 -12 -14 -20 -8 12 9 -0 2 6 15 19 23
-15 4 30 33 33 27 27 25 22 24 20 28 14 17 22 15 5 14 8 -20 -20 -20 -17 -20 -15 12 16 15 9 -14 -1 6 12 1 -1 6 0 -1 12 20 23 23 25
8 19 22 32 36 32 28 32 29 24 22 30 24 16 -1 9 29 23 16 18 13 -13 10 8 13 12 15 17 19 23 21 20 -0 -2 2 10 16 15 16 23 24 19 14
16 22 24 27 35 36 37 30 31 26 25 27 17 19 1 1 -2 20 21 15 19 10 -13 14 13 5 9 12 12 16 21 18 20 18 19 18 13 15 10 2 -8 -17 -20
19 22 25 27 29 35 33 34 39 27 15 1 11 19 16 20 22 7 8 17 22 16 19 8 10 9 9 22 16 16 18 3 12 13 8 9 2 -3 -9 -20 -20 -20 -20
16 22 23 20 26 29 33 36 32 30 36 38 32 19 24 24 24 24 18 -3 5 29 40 20 30 22 35 7 11 8 15 12 8 3 -6 -14 -17 -19 -20 -20 -20 -20 -20
10 17 20 22 25 23 27 27 31 33 33 32 35 37 34 31 27 25 25 27 24 31 30 28 23 16 -0 4 4 5 3 10 -4 -12 -19 -20 -20 -20 -20 -20 -20 -20 -20
-1 5 14 19 21 25 25 23 25 25 26 27 26 25 23 28 29 24 22 21 20 18 -2 -19 -19 -20 -15 -19 -20 -20 -20 -20 -20 -20 -20 -20 -20 -20 -20 -20 -20 -20 -20
-20 -12 5 10 8 14 17 21 22 23 20 19 19 18 16 14 18 15 9 5 -5 -6 -20 -20 -20 -20 -20 -20 -15 -20 -20 -20 -20 -20 -20 -20 -20 -20 -20 -20 -20 -20 -20
-20 -20 -18 -4 3 5 10 9 10 12 15 16 14 14 13 12 12 13 12 10 8 3 -1 -8 -20 -20 -20 -20 -20 -20 -20 -20 -20 -20 -20 -20 -20 -20 -20 -20 -20 -20 -20
-20 -20 -20 -19 -14 -6 1 -3 -0 4 7 6 -6 -10 -15 -9 -5 -7 -7 -8 -13 -18 -20 -20 -20 -20 -20 -20 -20 -20 -20 -20 -20 -20 -20 -20 -20 -20 -20 -20 -20 -20 -20
-20 -20 -20 -20 -20 -20 -20 -20 -20 -20 -20 -20 -20 -17 -20 -20 -20 -20 -20 -19 -20 -20 -20 -20 -20 -20 -20 -20 -20 -20 -20 -20 -20 -20 -20 -20 -20 -20 -20 -20 -20 -20 -20
-20 -20 -20 -20 -20 -20 -20 -20 -20 -20 -20 -20 -20 -20 -20 -20 -20 -20 -20 -20 -20 -20 -20 -20 -20 -20 -20 -20 -20 -20 -20 -20 -20 -20 -20 -20 -20 -20 -20 -20 -20 -20 -20
-20 -20 -20 -20 -20 -20 -20 -20 -20 -20 -20 -20 -20 -20 -20 -20 -20 -20 -20 -20 -20 -20 -20 -20 -20 -20 -20 -20 -20 -20 -20 -20 -20 -20 -20 -20 -20 -20 -20 -20 -20 -20 -20
-20 -20 -20 -20 -20 -20 -20 -20 -20 -20 -20 -20 -20 -20 -20 -20 -20 -20 -20 -20 -20 -20 -20 -20 -20 -20 -20 -20 -20 -20 -20 -20 -20 -20 -20 -20 -20 -20 -20 -20 -20 -20 -20
-20 -20 -20 -20 -20 -20 -20 -20 -20 -20 -20 -20 -20 -20 -20 -20 -20 -20 -20 -20 -20 -20 -20 -20 -20 -20 -20 -20 -20 -20 -20 -20 -20 -20 -20 -20 -20 -20 -20 -20 -20 -20 -20
-20 -20 -20 -20 -20 -20 -20 -20 -20 -20 -20 -20 -20 -20 -20 -20 -20 -20 -20 -20 -20 -20 -20 -20 -20 -20 -20 -20 -20 -20 -20 -20 -20 -20 -20 -20 -20 -20 -20 -20 -20 -20 -20

GFSGL_prec_radar_120.txt.gz
Reflectivity
-20 -20 -20 -20 -20 -20 -20 -20 -20 -9 8 -20 -13 18 17 3 7 11 11 5 -20 -7 6 9 -0 3 7 6 -1 24 25 29 32 30 28 31 13 16 21 -3 -20 -17 -16
-20 -20 -20 -20 -20 -20 -20 -20 -20 -5 -20 5 8 18 23 -9 -19 6 7 6 -20 5 -2 0 17 6 21 12 4 7 27 26 27 31 23 26 20 -19 1 8 1 9 8
-20 -20 -20 -20 -20 -20 -20 -20 -2 15 -20 1 16 18 -20 14 -20 -7 -3 -17 -20 -9 -20 14 11 5 19 21 -7 21 15 24 31 27 25 22 23 10 10 11 15 24 24
-20 -20 -20 -20 -20 -20 -20 11 23 14 17 -20 11 17 24 3 -20 -18 -20 -8 0 0 13 10 9 8 -2 5 -5 17 18 18 22 25 21 25 23 17 21 25 27 25 27
-20 -20 -20 -20 -20 -20 -20 -18 4 20 4 5 10 5 -6 -4 -20 -20 -20 -18 -18 -18 -15 1 -2 3 2 23 30 28 25 23 21 8 12 10 17 23 16 11 20 30 24
-20 -20 -20 -20 -20 -20 -20 -20 12 14 9 14 -20 5 24 -13 -20 -20 -5 -20 -14 6 10 22 7 19 23 12 28 31 34 31 28 25 20 21 24 27 24 20 22 26 25
-20 -20 -20 -20 -20 -20 -18 -8 19 13 17 14 17 -8 3 -7 1 1 -4 -6 -8 -5 6 19 24 19 17 24 26 27 28 30 30 27 28 28 31 25 31 30 24 25 23
-20 -20 -20 -20 -20 -20 9 4 11 12 6 14 16 30 8 0 10 12 8 -20 -20 12 17 -1 2 -3 17 17 19 20 29 30 30 29 30 23 29 29 24 23 22 19 17
-20 -20 -20 -20 -20 -14 8 16 14 6 11 16 4 11 -8 -20 8 9 10 -20 8 20 2 3 -19 -2 17 11 10 16 22 21 21 16 23 28 28 25 21 19 21 20 23
-20 -20 -20 -20 -18 2 23 14 17 28 -5 29 30 4 -20 -20 2 13 -1 1 -18 -20 -20 -20 6 8 14 9 -10 6 21 19 18 14 13 17 22 20 12 -20 -12 0 6
-20 -20 -20 -20 -18 18 26 26 24 19 4 36 24 16 -19 -10 -19 2 -19 -20 -18 -12 -16 2 10 11 9 10 7 -9 2 -1 13 7 -12 -20 -20 -20 -20 -14 5 22 25
-20 -20 -20 -20 -14 29 24 38 23 36 42 32 18 36 9 -10 10 14 8 12 12 -20 -20 -12 5 13 17 13 19 20 12 16 4 4 -3 -2 -8 -4 6 7 12 18 21
-20 -20 -2 -7 0 11 30 26 35 31 35 35 32 30 8 9 18 23 18 20 18 4 -5 15 15 11 13 12 11 13 14 6 -7 -8 -6 -1 3 11 22 23 27 29 22
-20 -19 7 6 14 23 25 25 30 33 35 35 30 36 23 28 20 25 12 16 16 10 8 3 5 11 18 17 11 11 -1 -3 4 16 19 13 8 17 20 11 5 -6 -18
-20 -14 1 16 20 25 27 29 32 25 28 31 29 33 36 31 28 35 29 -3 6 18 22 6 11 6 17 20 21 23 23 21 15 14 8 10 7 8 5 -9 -18 -20 -20
-20 -16 -0 8 19 22 28 28 32 33 32 31 31 36 39 31 34 26 26 27 29 29 33 40 28 24 30 28 36 34 29 16 20 18 18 7 -13 -18 -20 -20 -20 -20 -20
-20 -13 -6 7 14 12 24 26 28 29 31 31 31 27 21 24 26 27 34 33 31 29 26 17 21 22 26 26 24 19 14 14 11 4 -17 -20 -20 -20 -20 -20 -20 -20 -20
-20 -20 -17 -13 5 12 15 16 25 23 22 25 24 23 23 24 24 29 29 28 27 22 16 18 19 17 5 4 0 -10 -20 -20 -20 -20 -20 -20 -20 -18 -20 -20 -20 -20 -20
-20 -20 -20 -20 -12 0 8 9 14 15 14 17 18 17 13 12 14 12 7 10 15 -6 -6 3 -0 -8 -11 -17 -20 -20 -17 -14 -14 -20 -20 -20 -20 -20 -20 -20 -20 -20 -20
-20 -20 -20 -20 -20 -18 -3 1 5 6 5 9 13 13 9 5 9 7 8 8 9 7 5 4 4 2 -10 -19 -20 -20 -20 -20 -20 -20 -20 -20 -20 -20 -20 -20 -20 -20 -20
-20 -20 -20 -20 -20 -20 -20 -20 -12 -8 0 1 1 3 2 5 7 3 -1 -3 -3 -3 -8 -20 -20 -20 -20 -20 -20 -20 -20 -20 -20 -20 -20 -20 -20 -20 -20 -20 -20 -20 -20
-20 -20 -20 -20 -20 -20 -20 -20 -20 -20 -20 -16 -9 -10 -11 -3 1 4 1 -6 -20 -20 -20 -20 -20 -20 -20 -20 -20 -20 -20 -20 -20 -20 -20 -20 -20 -20 -20 -20 -20 -20 -20
-20 -20 -20 -20 -20 -20 -20 -20 -20 -20 -20 -20 -20 -20 -20 -20 -20 -16 -8 -13 -20 -20 -20 -20 -20 -20 -20 -20 -20 -20 -20 -20 -20 -20 -20 -20 -20 -20 -20 -20 -20 -20 -20
-20 -20 -20 -20 -20 -20 -20 -20 -20 -20 -20 -20 -20 -20 -20 -20 -20 -20 -20 -20 -20 -20 -20 -20 -20 -20 -20 -20 -20 -20 -20 -20 -20 -20 -20 -20 -20 -20 -20 -20 -20 -20 -20
-20 -20 -20 -20 -20 -20 -20 -20 -20 -20 -20 -20 -20 -20 -20 -20 -20 -20 -20 -20 -20 -20 -20 -20 -20 -20 -20 -20 -20 -20 -20 -20 -20 -20 -20 -20 -20 -20 -20 -20 -20 -20 -20
-20 -20 -20 -20 -20 -20 -20 -20 -20 -20 -20 -20 -20 -20 -20 -20 -20 -20 -20 -20 -20 -20 -20 -20 -20 -20 -20 -20 -20 -20 -20 -20 -20 -20 -20 -20 -20 -20 -20 -20 -20 -20 -20

GFSGL_prec_radar_123.txt.gz
Reflectivity
3 1 -20 -20 -20 -20 -20 -20 -20 -20 -20 -20 -20 -20 -20 -20 -17 -1 14 9 15 11 12 6 -13 -20 16 -20 -20 -15 21 -4 12 30 16 30 31 23 24 19 21 7 -20
-20 -20 -20 -20 -20 -20 -20 -20 -20 -20 -20 -2 -20 -20 -20 -20 -20 -9 12 14 18 14 -1 6 -20 -20 -20 -20 -20 17 4 -2 19 21 29 27 24 9 20 25 1 11 -5
-20 -20 -20 -20 -20 -20 -20 -20 -20 -8 -2 -17 4 -12 -15 -20 -20 -20 -6 4 12 16 15 3 -20 -11 -20 -18 15 -1 16 10 28 24 25 30 22 12 21 20 8 -16 5
-20 -20 -20 -20 -19 -20 -20 -20 -20 -16 4 -7 -1 -11 -5 -20 -20 -5 5 7 3 12 7 -20 -20 -20 -15 0 -9 21 12 -16 15 21 23 27 24 12 26 9 10 20 26
-20 -20 -20 -20 -5 -20 -20 -20 -20 -20 -20 -20 -20 14 -2 -20 -2 -2 3 14 2 -9 -17 -20 -20 0 15 -17 3 15 -10 -13 13 22 22 22 17 23 13 -2 21 28 26
-20 -20 -20 -20 -20 -20 -20 -20 -20 -20 -20 16 7 2 -4 2 19 10 25 -5 -11 8 -20 -20 -20 -20 -20 -1 -6 19 22 23 25 22 26 20 23 24 24 25 11 18 18
-20 -20 -20 -20 -20 -20 -20 -20 -20 -20 -20 5 13 6 3 4 4 13 -5 -20 -17 -20 -20 -20 -20 -20 -1 -5 24 27 22 18 21 29 27 24 18 22 26 27 24 23 20
-20 -20 -20 -20 -20 -20 -20 -20 -20 -20 -13 4 13 14 7 -20 17 15 25 -18 -20 -20 -20 5 -11 -17 -16 -0 1 21 17 24 22 25 25 27 30 31 29 25 24 26 28
-20 -20 -20 -20 -20 -20 -20 -20 -20 -1 -19 18 -2 4 24 -3 14 31 13 -20 -20 -13 10 -18 -20 -20 14 21 19 12 11 15 19 24 30 32 30 33 27 26 30 30 28
-20 -20 -20 -20 -20 -20 -20 -20 -18 -8 1 16 7 19 11 20 16 24 10 -20 -20 -20 -6 19 10 -10 13 9 -12 1 24 23 10 15 20 21 22 31 32 25 21 24 9
-20 -20 -20 -20 -20 -20 -20 -20 -12 17 15 16 -4 9 18 27 33 27 30 -20 -19 -19 1 6 -16 3 5 13 10 -20 8 9 22 20 15 19 21 16 23 24 24 21 23
-20 -20 -20 -20 -20 -20 -20 -20 10 -6 18 34 20 -4 29 30 24 31 15 12 10 -19 -14 -20 -5 8 11 15 12 11 13 13 9 13 3 14 17 16 7 19 22 20 15
-20 -20 -20 -20 -20 -20 -20 -16 8 13 13 26 29 30 35 25 35 38 19 3 5 -6 -20 13 12 11 10 8 8 13 15 2 -7 -18 -15 -8 -14 -8 -8 2 19 25 28
-20 -20 -20 -20 -20 -20 -19 -13 11 19 18 23 33 34 29 39 29 35 13 12 14 -4 9 10 10 13 18 10 7 11 9 11 16 -9 -14 -6 -7 -1 4 18 23 24 22
-20 -20 -20 -20 -16 -13 7 18 19 25 25 25 32 37 28 33 25 29 20 11 -6 14 8 -14 2 0 -8 -3 -2 8 3 2 5 10 15 17 22 26 23 7 8 8 -8
-20 -20 -20 -17 -5 6 8 18 25 26 28 26 32 29 29 31 38 36 31 32 26 29 30 15 -4 -3 10 18 18 21 25 30 32 26 28 27 20 17 14 12 8 -11 -19
-20 -20 -20 -20 -11 -8 11 15 19 23 28 30 29 31 31 30 29 31 31 30 35 28 28 26 27 27 32 24 29 25 26 26 26 26 21 21 23 22 18 11 -20 -20 -20
-20 -20 -20 -20 -15 -9 1 12 21 23 21 22 25 26 28 27 27 26 27 26 26 28 26 23 21 27 27 25 23 22 22 24 23 18 12 2 -6 -20 -20 -20 -20 -20 -20
-20 -20 -20 -20 -20 -14 -16 -5 3 14 21 23 20 18 20 20 20 21 24 24 23 23 23 24 21 20 18 19 18 9 -7 -6 -3 -18 -20 -15 -14 -20 -20 -20 -20 -20 -20
-20 -20 -20 -20 -20 -20 -20 -20 -6 1 5 11 14 15 17 16 17 19 19 18 15 13 13 4 3 -2 -2 -0 -4 -12 -8 -9 -5 -5 -17 -20 -20 -20 -20 -20 -20 -20 -20
-20 -20 -20 -20 -20 -20 -20 -20 -20 -18 -6 -13 -1 2 8 7 11 13 13 12 13 14 13 9 4 4 9 10 -2 -11 -9 -16 -20 -20 -20 -20 -20 -20 -20 -20 -20 -20 -20
-20 -20 -20 -20 -20 -20 -20 -20 -20 -20 -20 -19 -8 -7 -7 -8 -9 -3 -0 3 2 -1 1 3 1 -18 -20 -20 -20 -20 -20 -20 -20 -20 -20 -20 -20 -20 -20 -20 -20 -20 -20
-20 -20 -20 -20 -20 -20 -20 -20 -20 -20 -20 -20 -20 -20 -18 -15 -10 -7 -8 -12 -20 -19 -20 -20 -20 -20 -19 -17 -14 -18 -20 -20 -20 -20 -20 -20 -20 -20 -20 -20 -20 -20 -20
-20 -20 -20 -20 -20 -20 -20 -20 -20 -20 -20 -20 -20 -20 -20 -20 -20 -20 -20 -20 -20 -20 -20 -20 -20 -20 -20 -20 -20 -20 -20 -20 -20 -20 -20 -20 -20 -20 -20 -20 -20 -20 -20
-20 -20 -20 -20 -20 -20 -20 -20 -20 -20 -20 -20 -20 -20 -20 -20 -20 -20 -20 -20 -20 -20 -20 -20 -20 -20 -20 -20 -20 -20 -20 -20 -20 -20 -20 -20 -20 -20 -20 -20 -20 -20 -20
-20 -20 -20 -20 -20 -20 -20 -20 -20 -20 -20 -20 -20 -20 -20 -20 -20 -20 -20 -20 -20 -20 -20 -20 -20 -20 -20 -20 -20 -20 -20 -20 -20 -20 -20 -20 -20 -20 -20 -20 -20 -20 -20